<?xml version="1.0" encoding="UTF-8" standalone="no" ?>
<gpx xmlns="http://www.topografix.com/GPX/1/1" xmlns:xsi="http://www.w3.org/2001/XMLSchema-instance" xsi:schemaLocation="http://www.topografix.com/GPX/1/1 http://www.topografix.com/GPX/1/1/gpx.xsd" version="1.1" creator="VisuGPX - https://www.visugpx.com">
  <metadata>
    <name>Trail du Grand SOM</name>
    <desc><![CDATA[parcours 2012 en course des 3 jours de chartreuses]]></desc>
  </metadata>
  <trk>
    <name><![CDATA[trail du grand som]]></name>
    <desc><![CDATA[étape des 3 jours de chartreuse. Bien monté, mais contractures cuisses à la descente]]></desc>
    <trkseg>
      <trkpt lat="45.34138" lon="5.81708">
        <ele>894.59997558594</ele>
        <time>2012-05-19T07:28:24.000Z</time>
      </trkpt>
      <trkpt lat="45.34129" lon="5.81712">
        <ele>894</ele>
        <time>2012-05-19T07:28:28.000Z</time>
      </trkpt>
      <trkpt lat="45.34116" lon="5.81741">
        <ele>894</ele>
        <time>2012-05-19T07:28:34.000Z</time>
      </trkpt>
      <trkpt lat="45.3411" lon="5.81763">
        <ele>893.59997558594</ele>
        <time>2012-05-19T07:28:38.000Z</time>
      </trkpt>
      <trkpt lat="45.34105" lon="5.81784">
        <ele>892.20001220703</ele>
        <time>2012-05-19T07:28:42.000Z</time>
      </trkpt>
      <trkpt lat="45.34099" lon="5.81806">
        <ele>891.20001220703</ele>
        <time>2012-05-19T07:28:46.000Z</time>
      </trkpt>
      <trkpt lat="45.34094" lon="5.81828">
        <ele>889.20001220703</ele>
        <time>2012-05-19T07:28:50.000Z</time>
      </trkpt>
      <trkpt lat="45.34093" lon="5.81855">
        <ele>887.79998779297</ele>
        <time>2012-05-19T07:28:55.000Z</time>
      </trkpt>
      <trkpt lat="45.34092" lon="5.81872">
        <ele>887.79998779297</ele>
        <time>2012-05-19T07:28:58.000Z</time>
      </trkpt>
      <trkpt lat="45.34091" lon="5.81903">
        <ele>887.79998779297</ele>
        <time>2012-05-19T07:29:04.000Z</time>
      </trkpt>
      <trkpt lat="45.34087" lon="5.8193">
        <ele>888.20001220703</ele>
        <time>2012-05-19T07:29:09.000Z</time>
      </trkpt>
      <trkpt lat="45.34075" lon="5.81957">
        <ele>889.20001220703</ele>
        <time>2012-05-19T07:29:15.000Z</time>
      </trkpt>
      <trkpt lat="45.34068" lon="5.81977">
        <ele>888.79998779297</ele>
        <time>2012-05-19T07:29:19.000Z</time>
      </trkpt>
      <trkpt lat="45.34063" lon="5.81988">
        <ele>888.79998779297</ele>
        <time>2012-05-19T07:29:21.000Z</time>
      </trkpt>
      <trkpt lat="45.34059" lon="5.81997">
        <ele>888.79998779297</ele>
        <time>2012-05-19T07:29:23.000Z</time>
      </trkpt>
      <trkpt lat="45.34043" lon="5.82019">
        <ele>888.20001220703</ele>
        <time>2012-05-19T07:29:29.000Z</time>
      </trkpt>
      <trkpt lat="45.34031" lon="5.82035">
        <ele>886.79998779297</ele>
        <time>2012-05-19T07:29:33.000Z</time>
      </trkpt>
      <trkpt lat="45.34018" lon="5.82053">
        <ele>885</ele>
        <time>2012-05-19T07:29:38.000Z</time>
      </trkpt>
      <trkpt lat="45.34007" lon="5.82076">
        <ele>885</ele>
        <time>2012-05-19T07:29:43.000Z</time>
      </trkpt>
      <trkpt lat="45.33998" lon="5.821">
        <ele>885.40002441406</ele>
        <time>2012-05-19T07:29:48.000Z</time>
      </trkpt>
      <trkpt lat="45.33992" lon="5.82123">
        <ele>886.40002441406</ele>
        <time>2012-05-19T07:29:53.000Z</time>
      </trkpt>
      <trkpt lat="45.33992" lon="5.82127">
        <ele>887.40002441406</ele>
        <time>2012-05-19T07:29:57.000Z</time>
      </trkpt>
      <trkpt lat="45.33992" lon="5.8213">
        <ele>887.40002441406</ele>
        <time>2012-05-19T07:29:59.000Z</time>
      </trkpt>
      <trkpt lat="45.3399" lon="5.82139">
        <ele>889.20001220703</ele>
        <time>2012-05-19T07:30:04.000Z</time>
      </trkpt>
      <trkpt lat="45.33988" lon="5.82149">
        <ele>891.20001220703</ele>
        <time>2012-05-19T07:30:09.000Z</time>
      </trkpt>
      <trkpt lat="45.33985" lon="5.82157">
        <ele>896.40002441406</ele>
        <time>2012-05-19T07:30:14.000Z</time>
      </trkpt>
      <trkpt lat="45.33984" lon="5.82158">
        <ele>896</ele>
        <time>2012-05-19T07:30:15.000Z</time>
      </trkpt>
      <trkpt lat="45.3398" lon="5.82169">
        <ele>898.40002441406</ele>
        <time>2012-05-19T07:30:21.000Z</time>
      </trkpt>
      <trkpt lat="45.3398" lon="5.82175">
        <ele>899.40002441406</ele>
        <time>2012-05-19T07:30:24.000Z</time>
      </trkpt>
      <trkpt lat="45.33982" lon="5.82186">
        <ele>902.79998779297</ele>
        <time>2012-05-19T07:30:29.000Z</time>
      </trkpt>
      <trkpt lat="45.33982" lon="5.82192">
        <ele>907</ele>
        <time>2012-05-19T07:30:33.000Z</time>
      </trkpt>
      <trkpt lat="45.33982" lon="5.82202">
        <ele>913.79998779297</ele>
        <time>2012-05-19T07:30:39.000Z</time>
      </trkpt>
      <trkpt lat="45.33988" lon="5.822">
        <ele>916.59997558594</ele>
        <time>2012-05-19T07:30:43.000Z</time>
      </trkpt>
      <trkpt lat="45.33991" lon="5.82194">
        <ele>918.59997558594</ele>
        <time>2012-05-19T07:30:47.000Z</time>
      </trkpt>
      <trkpt lat="45.33996" lon="5.82194">
        <ele>919</ele>
        <time>2012-05-19T07:30:50.000Z</time>
      </trkpt>
      <trkpt lat="45.33996" lon="5.82205">
        <ele>922</ele>
        <time>2012-05-19T07:30:55.000Z</time>
      </trkpt>
      <trkpt lat="45.33995" lon="5.8221">
        <ele>923</ele>
        <time>2012-05-19T07:30:57.000Z</time>
      </trkpt>
      <trkpt lat="45.33994" lon="5.82221">
        <ele>923</ele>
        <time>2012-05-19T07:31:01.000Z</time>
      </trkpt>
      <trkpt lat="45.33993" lon="5.82227">
        <ele>922.40002441406</ele>
        <time>2012-05-19T07:31:04.000Z</time>
      </trkpt>
      <trkpt lat="45.33994" lon="5.82239">
        <ele>924.79998779297</ele>
        <time>2012-05-19T07:31:10.000Z</time>
      </trkpt>
      <trkpt lat="45.33994" lon="5.82248">
        <ele>928.59997558594</ele>
        <time>2012-05-19T07:31:15.000Z</time>
      </trkpt>
      <trkpt lat="45.33994" lon="5.82259">
        <ele>933</ele>
        <time>2012-05-19T07:31:20.000Z</time>
      </trkpt>
      <trkpt lat="45.33994" lon="5.8227">
        <ele>933.40002441406</ele>
        <time>2012-05-19T07:31:26.000Z</time>
      </trkpt>
      <trkpt lat="45.33994" lon="5.82279">
        <ele>936.40002441406</ele>
        <time>2012-05-19T07:31:32.000Z</time>
      </trkpt>
      <trkpt lat="45.33994" lon="5.8229">
        <ele>938.20001220703</ele>
        <time>2012-05-19T07:31:38.000Z</time>
      </trkpt>
      <trkpt lat="45.33992" lon="5.82301">
        <ele>939.79998779297</ele>
        <time>2012-05-19T07:31:43.000Z</time>
      </trkpt>
      <trkpt lat="45.33988" lon="5.82311">
        <ele>940.20001220703</ele>
        <time>2012-05-19T07:31:48.000Z</time>
      </trkpt>
      <trkpt lat="45.33988" lon="5.82322">
        <ele>942.59997558594</ele>
        <time>2012-05-19T07:31:55.000Z</time>
      </trkpt>
      <trkpt lat="45.33994" lon="5.82321">
        <ele>946.40002441406</ele>
        <time>2012-05-19T07:32:01.000Z</time>
      </trkpt>
      <trkpt lat="45.33999" lon="5.82319">
        <ele>946.40002441406</ele>
        <time>2012-05-19T07:32:04.000Z</time>
      </trkpt>
      <trkpt lat="45.34004" lon="5.82317">
        <ele>947.40002441406</ele>
        <time>2012-05-19T07:32:09.000Z</time>
      </trkpt>
      <trkpt lat="45.34006" lon="5.82316">
        <ele>948.79998779297</ele>
        <time>2012-05-19T07:32:11.000Z</time>
      </trkpt>
      <trkpt lat="45.34009" lon="5.82316">
        <ele>950.79998779297</ele>
        <time>2012-05-19T07:32:13.000Z</time>
      </trkpt>
      <trkpt lat="45.34018" lon="5.82318">
        <ele>957</ele>
        <time>2012-05-19T07:32:18.000Z</time>
      </trkpt>
      <trkpt lat="45.34026" lon="5.82318">
        <ele>960.40002441406</ele>
        <time>2012-05-19T07:32:23.000Z</time>
      </trkpt>
      <trkpt lat="45.34036" lon="5.8232">
        <ele>965.20001220703</ele>
        <time>2012-05-19T07:32:28.000Z</time>
      </trkpt>
      <trkpt lat="45.3404" lon="5.82319">
        <ele>965.59997558594</ele>
        <time>2012-05-19T07:32:30.000Z</time>
      </trkpt>
      <trkpt lat="45.34053" lon="5.8232">
        <ele>975.79998779297</ele>
        <time>2012-05-19T07:32:37.000Z</time>
      </trkpt>
      <trkpt lat="45.34054" lon="5.82322">
        <ele>976.20001220703</ele>
        <time>2012-05-19T07:32:38.000Z</time>
      </trkpt>
      <trkpt lat="45.34056" lon="5.82326">
        <ele>975.20001220703</ele>
        <time>2012-05-19T07:32:40.000Z</time>
      </trkpt>
      <trkpt lat="45.3406" lon="5.8233">
        <ele>973.40002441406</ele>
        <time>2012-05-19T07:32:43.000Z</time>
      </trkpt>
      <trkpt lat="45.34068" lon="5.82334">
        <ele>977.59997558594</ele>
        <time>2012-05-19T07:32:48.000Z</time>
      </trkpt>
      <trkpt lat="45.34059" lon="5.82343">
        <ele>979.20001220703</ele>
        <time>2012-05-19T07:32:54.000Z</time>
      </trkpt>
      <trkpt lat="45.34055" lon="5.82358">
        <ele>976.79998779297</ele>
        <time>2012-05-19T07:32:59.000Z</time>
      </trkpt>
      <trkpt lat="45.34057" lon="5.82363">
        <ele>977.20001220703</ele>
        <time>2012-05-19T07:33:01.000Z</time>
      </trkpt>
      <trkpt lat="45.34064" lon="5.82372">
        <ele>972.40002441406</ele>
        <time>2012-05-19T07:33:06.000Z</time>
      </trkpt>
      <trkpt lat="45.3407" lon="5.82374">
        <ele>965.59997558594</ele>
        <time>2012-05-19T07:33:11.000Z</time>
      </trkpt>
      <trkpt lat="45.34075" lon="5.82375">
        <ele>965.59997558594</ele>
        <time>2012-05-19T07:33:15.000Z</time>
      </trkpt>
      <trkpt lat="45.3408" lon="5.82378">
        <ele>970</ele>
        <time>2012-05-19T07:33:19.000Z</time>
      </trkpt>
      <trkpt lat="45.34088" lon="5.82382">
        <ele>973.40002441406</ele>
        <time>2012-05-19T07:33:25.000Z</time>
      </trkpt>
      <trkpt lat="45.34092" lon="5.82386">
        <ele>974.79998779297</ele>
        <time>2012-05-19T07:33:29.000Z</time>
      </trkpt>
      <trkpt lat="45.34105" lon="5.82386">
        <ele>981.59997558594</ele>
        <time>2012-05-19T07:33:36.000Z</time>
      </trkpt>
      <trkpt lat="45.34106" lon="5.82387">
        <ele>981.59997558594</ele>
        <time>2012-05-19T07:33:37.000Z</time>
      </trkpt>
      <trkpt lat="45.34116" lon="5.82389">
        <ele>992.59997558594</ele>
        <time>2012-05-19T07:33:43.000Z</time>
      </trkpt>
      <trkpt lat="45.34124" lon="5.82389">
        <ele>997.40002441406</ele>
        <time>2012-05-19T07:33:48.000Z</time>
      </trkpt>
      <trkpt lat="45.34134" lon="5.82387">
        <ele>1003.5999755859</ele>
        <time>2012-05-19T07:33:53.000Z</time>
      </trkpt>
      <trkpt lat="45.34141" lon="5.82377">
        <ele>1004.5999755859</ele>
        <time>2012-05-19T07:33:59.000Z</time>
      </trkpt>
      <trkpt lat="45.34141" lon="5.82367">
        <ele>997.79998779297</ele>
        <time>2012-05-19T07:34:04.000Z</time>
      </trkpt>
      <trkpt lat="45.34143" lon="5.82359">
        <ele>997.40002441406</ele>
        <time>2012-05-19T07:34:07.000Z</time>
      </trkpt>
      <trkpt lat="45.34146" lon="5.82342">
        <ele>992.20001220703</ele>
        <time>2012-05-19T07:34:13.000Z</time>
      </trkpt>
      <trkpt lat="45.34146" lon="5.82339">
        <ele>989.79998779297</ele>
        <time>2012-05-19T07:34:14.000Z</time>
      </trkpt>
      <trkpt lat="45.34149" lon="5.82326">
        <ele>992.20001220703</ele>
        <time>2012-05-19T07:34:20.000Z</time>
      </trkpt>
      <trkpt lat="45.34151" lon="5.82313">
        <ele>991.59997558594</ele>
        <time>2012-05-19T07:34:25.000Z</time>
      </trkpt>
      <trkpt lat="45.34155" lon="5.82295">
        <ele>994.59997558594</ele>
        <time>2012-05-19T07:34:32.000Z</time>
      </trkpt>
      <trkpt lat="45.3416" lon="5.82285">
        <ele>996</ele>
        <time>2012-05-19T07:34:36.000Z</time>
      </trkpt>
      <trkpt lat="45.3417" lon="5.82273">
        <ele>994</ele>
        <time>2012-05-19T07:34:41.000Z</time>
      </trkpt>
      <trkpt lat="45.34182" lon="5.82258">
        <ele>991.20001220703</ele>
        <time>2012-05-19T07:34:46.000Z</time>
      </trkpt>
      <trkpt lat="45.34187" lon="5.82246">
        <ele>998.79998779297</ele>
        <time>2012-05-19T07:34:49.000Z</time>
      </trkpt>
      <trkpt lat="45.3419" lon="5.82238">
        <ele>999.40002441406</ele>
        <time>2012-05-19T07:34:52.000Z</time>
      </trkpt>
      <trkpt lat="45.34198" lon="5.8223">
        <ele>999.79998779297</ele>
        <time>2012-05-19T07:34:56.000Z</time>
      </trkpt>
      <trkpt lat="45.34208" lon="5.82213">
        <ele>993.59997558594</ele>
        <time>2012-05-19T07:35:01.000Z</time>
      </trkpt>
      <trkpt lat="45.34211" lon="5.82195">
        <ele>989.79998779297</ele>
        <time>2012-05-19T07:35:06.000Z</time>
      </trkpt>
      <trkpt lat="45.34213" lon="5.82173">
        <ele>985.79998779297</ele>
        <time>2012-05-19T07:35:11.000Z</time>
      </trkpt>
      <trkpt lat="45.34213" lon="5.82159">
        <ele>991.20001220703</ele>
        <time>2012-05-19T07:35:14.000Z</time>
      </trkpt>
      <trkpt lat="45.34216" lon="5.82142">
        <ele>992.20001220703</ele>
        <time>2012-05-19T07:35:19.000Z</time>
      </trkpt>
      <trkpt lat="45.34225" lon="5.82124">
        <ele>991.59997558594</ele>
        <time>2012-05-19T07:35:24.000Z</time>
      </trkpt>
      <trkpt lat="45.34234" lon="5.82102">
        <ele>988.79998779297</ele>
        <time>2012-05-19T07:35:29.000Z</time>
      </trkpt>
      <trkpt lat="45.3424" lon="5.82081">
        <ele>990.20001220703</ele>
        <time>2012-05-19T07:35:34.000Z</time>
      </trkpt>
      <trkpt lat="45.34246" lon="5.8207">
        <ele>988.20001220703</ele>
        <time>2012-05-19T07:35:39.000Z</time>
      </trkpt>
      <trkpt lat="45.34252" lon="5.82057">
        <ele>986.40002441406</ele>
        <time>2012-05-19T07:35:44.000Z</time>
      </trkpt>
      <trkpt lat="45.34253" lon="5.82051">
        <ele>989.79998779297</ele>
        <time>2012-05-19T07:35:47.000Z</time>
      </trkpt>
      <trkpt lat="45.34253" lon="5.82043">
        <ele>991.20001220703</ele>
        <time>2012-05-19T07:35:51.000Z</time>
      </trkpt>
      <trkpt lat="45.34253" lon="5.82033">
        <ele>994.59997558594</ele>
        <time>2012-05-19T07:35:55.000Z</time>
      </trkpt>
      <trkpt lat="45.3426" lon="5.82027">
        <ele>1000.200012207</ele>
        <time>2012-05-19T07:36:00.000Z</time>
      </trkpt>
      <trkpt lat="45.34267" lon="5.82025">
        <ele>1002.5999755859</ele>
        <time>2012-05-19T07:36:04.000Z</time>
      </trkpt>
      <trkpt lat="45.34269" lon="5.82027">
        <ele>1003.200012207</ele>
        <time>2012-05-19T07:36:07.000Z</time>
      </trkpt>
      <trkpt lat="45.34274" lon="5.82031">
        <ele>1002.5999755859</ele>
        <time>2012-05-19T07:36:11.000Z</time>
      </trkpt>
      <trkpt lat="45.34285" lon="5.82037">
        <ele>1004.200012207</ele>
        <time>2012-05-19T07:36:17.000Z</time>
      </trkpt>
      <trkpt lat="45.34288" lon="5.82037">
        <ele>1006.5999755859</ele>
        <time>2012-05-19T07:36:19.000Z</time>
      </trkpt>
      <trkpt lat="45.34295" lon="5.82037">
        <ele>1008</ele>
        <time>2012-05-19T07:36:24.000Z</time>
      </trkpt>
      <trkpt lat="45.34296" lon="5.82037">
        <ele>1009</ele>
        <time>2012-05-19T07:36:25.000Z</time>
      </trkpt>
      <trkpt lat="45.34303" lon="5.8204">
        <ele>1011.4000244141</ele>
        <time>2012-05-19T07:36:30.000Z</time>
      </trkpt>
      <trkpt lat="45.34312" lon="5.82044">
        <ele>1012.4000244141</ele>
        <time>2012-05-19T07:36:36.000Z</time>
      </trkpt>
      <trkpt lat="45.3432" lon="5.82047">
        <ele>1012.799987793</ele>
        <time>2012-05-19T07:36:41.000Z</time>
      </trkpt>
      <trkpt lat="45.34326" lon="5.8205">
        <ele>1013.200012207</ele>
        <time>2012-05-19T07:36:45.000Z</time>
      </trkpt>
      <trkpt lat="45.34332" lon="5.82053">
        <ele>1016.200012207</ele>
        <time>2012-05-19T07:36:50.000Z</time>
      </trkpt>
      <trkpt lat="45.34344" lon="5.82057">
        <ele>1017.200012207</ele>
        <time>2012-05-19T07:36:55.000Z</time>
      </trkpt>
      <trkpt lat="45.34346" lon="5.82061">
        <ele>1018.5999755859</ele>
        <time>2012-05-19T07:36:57.000Z</time>
      </trkpt>
      <trkpt lat="45.34355" lon="5.82068">
        <ele>1022.4000244141</ele>
        <time>2012-05-19T07:37:04.000Z</time>
      </trkpt>
      <trkpt lat="45.34361" lon="5.82072">
        <ele>1022.799987793</ele>
        <time>2012-05-19T07:37:08.000Z</time>
      </trkpt>
      <trkpt lat="45.34367" lon="5.82074">
        <ele>1023.799987793</ele>
        <time>2012-05-19T07:37:12.000Z</time>
      </trkpt>
      <trkpt lat="45.34375" lon="5.82076">
        <ele>1023.799987793</ele>
        <time>2012-05-19T07:37:16.000Z</time>
      </trkpt>
      <trkpt lat="45.34387" lon="5.82083">
        <ele>1027.1999511719</ele>
        <time>2012-05-19T07:37:22.000Z</time>
      </trkpt>
      <trkpt lat="45.34393" lon="5.82089">
        <ele>1026.8000488281</ele>
        <time>2012-05-19T07:37:25.000Z</time>
      </trkpt>
      <trkpt lat="45.34404" lon="5.82097">
        <ele>1027.1999511719</ele>
        <time>2012-05-19T07:37:30.000Z</time>
      </trkpt>
      <trkpt lat="45.34408" lon="5.82103">
        <ele>1027.1999511719</ele>
        <time>2012-05-19T07:37:33.000Z</time>
      </trkpt>
      <trkpt lat="45.34412" lon="5.82113">
        <ele>1027.1999511719</ele>
        <time>2012-05-19T07:37:37.000Z</time>
      </trkpt>
      <trkpt lat="45.34419" lon="5.8212">
        <ele>1029.5999755859</ele>
        <time>2012-05-19T07:37:42.000Z</time>
      </trkpt>
      <trkpt lat="45.34424" lon="5.82124">
        <ele>1032.4000244141</ele>
        <time>2012-05-19T07:37:47.000Z</time>
      </trkpt>
      <trkpt lat="45.34431" lon="5.8213">
        <ele>1035.8000488281</ele>
        <time>2012-05-19T07:37:53.000Z</time>
      </trkpt>
      <trkpt lat="45.34435" lon="5.82136">
        <ele>1040.5999755859</ele>
        <time>2012-05-19T07:37:59.000Z</time>
      </trkpt>
      <trkpt lat="45.3444" lon="5.82144">
        <ele>1042.5999755859</ele>
        <time>2012-05-19T07:38:06.000Z</time>
      </trkpt>
      <trkpt lat="45.34442" lon="5.82147">
        <ele>1044</ele>
        <time>2012-05-19T07:38:09.000Z</time>
      </trkpt>
      <trkpt lat="45.34445" lon="5.82152">
        <ele>1045</ele>
        <time>2012-05-19T07:38:14.000Z</time>
      </trkpt>
      <trkpt lat="45.34451" lon="5.82158">
        <ele>1045</ele>
        <time>2012-05-19T07:38:21.000Z</time>
      </trkpt>
      <trkpt lat="45.34455" lon="5.8216">
        <ele>1046</ele>
        <time>2012-05-19T07:38:26.000Z</time>
      </trkpt>
      <trkpt lat="45.34458" lon="5.82163">
        <ele>1048.4000244141</ele>
        <time>2012-05-19T07:38:31.000Z</time>
      </trkpt>
      <trkpt lat="45.34462" lon="5.82168">
        <ele>1050.1999511719</ele>
        <time>2012-05-19T07:38:36.000Z</time>
      </trkpt>
      <trkpt lat="45.34467" lon="5.82174">
        <ele>1052.1999511719</ele>
        <time>2012-05-19T07:38:40.000Z</time>
      </trkpt>
      <trkpt lat="45.34471" lon="5.82184">
        <ele>1054.1999511719</ele>
        <time>2012-05-19T07:38:45.000Z</time>
      </trkpt>
      <trkpt lat="45.34474" lon="5.82191">
        <ele>1054.5999755859</ele>
        <time>2012-05-19T07:38:50.000Z</time>
      </trkpt>
      <trkpt lat="45.34476" lon="5.82195">
        <ele>1056</ele>
        <time>2012-05-19T07:38:54.000Z</time>
      </trkpt>
      <trkpt lat="45.3448" lon="5.82204">
        <ele>1059</ele>
        <time>2012-05-19T07:39:00.000Z</time>
      </trkpt>
      <trkpt lat="45.3448" lon="5.82205">
        <ele>1058.4000244141</ele>
        <time>2012-05-19T07:39:01.000Z</time>
      </trkpt>
      <trkpt lat="45.34486" lon="5.82214">
        <ele>1058.4000244141</ele>
        <time>2012-05-19T07:39:07.000Z</time>
      </trkpt>
      <trkpt lat="45.34491" lon="5.82221">
        <ele>1057.4000244141</ele>
        <time>2012-05-19T07:39:11.000Z</time>
      </trkpt>
      <trkpt lat="45.34494" lon="5.82229">
        <ele>1058.4000244141</ele>
        <time>2012-05-19T07:39:15.000Z</time>
      </trkpt>
      <trkpt lat="45.34495" lon="5.82234">
        <ele>1059</ele>
        <time>2012-05-19T07:39:17.000Z</time>
      </trkpt>
      <trkpt lat="45.34496" lon="5.82242">
        <ele>1060.4000244141</ele>
        <time>2012-05-19T07:39:23.000Z</time>
      </trkpt>
      <trkpt lat="45.34496" lon="5.82243">
        <ele>1060.8000488281</ele>
        <time>2012-05-19T07:39:24.000Z</time>
      </trkpt>
      <trkpt lat="45.34493" lon="5.82252">
        <ele>1062.8000488281</ele>
        <time>2012-05-19T07:39:29.000Z</time>
      </trkpt>
      <trkpt lat="45.34492" lon="5.82254">
        <ele>1063.8000488281</ele>
        <time>2012-05-19T07:39:30.000Z</time>
      </trkpt>
      <trkpt lat="45.34491" lon="5.82265">
        <ele>1069.5999755859</ele>
        <time>2012-05-19T07:39:37.000Z</time>
      </trkpt>
      <trkpt lat="45.34491" lon="5.82267">
        <ele>1069.5999755859</ele>
        <time>2012-05-19T07:39:38.000Z</time>
      </trkpt>
      <trkpt lat="45.34491" lon="5.82283">
        <ele>1071</ele>
        <time>2012-05-19T07:39:45.000Z</time>
      </trkpt>
      <trkpt lat="45.34491" lon="5.82291">
        <ele>1072.4000244141</ele>
        <time>2012-05-19T07:39:50.000Z</time>
      </trkpt>
      <trkpt lat="45.34492" lon="5.82297">
        <ele>1073.4000244141</ele>
        <time>2012-05-19T07:39:54.000Z</time>
      </trkpt>
      <trkpt lat="45.34493" lon="5.82306">
        <ele>1076.8000488281</ele>
        <time>2012-05-19T07:40:01.000Z</time>
      </trkpt>
      <trkpt lat="45.34494" lon="5.82308">
        <ele>1077.5999755859</ele>
        <time>2012-05-19T07:40:02.000Z</time>
      </trkpt>
      <trkpt lat="45.34497" lon="5.82314">
        <ele>1077.5999755859</ele>
        <time>2012-05-19T07:40:06.000Z</time>
      </trkpt>
      <trkpt lat="45.345" lon="5.82326">
        <ele>1079.1999511719</ele>
        <time>2012-05-19T07:40:11.000Z</time>
      </trkpt>
      <trkpt lat="45.34503" lon="5.8233">
        <ele>1078.5999755859</ele>
        <time>2012-05-19T07:40:13.000Z</time>
      </trkpt>
      <trkpt lat="45.34521" lon="5.82339">
        <ele>1077.5999755859</ele>
        <time>2012-05-19T07:40:19.000Z</time>
      </trkpt>
      <trkpt lat="45.34539" lon="5.82342">
        <ele>1076.1999511719</ele>
        <time>2012-05-19T07:40:25.000Z</time>
      </trkpt>
      <trkpt lat="45.34552" lon="5.82341">
        <ele>1075.1999511719</ele>
        <time>2012-05-19T07:40:29.000Z</time>
      </trkpt>
      <trkpt lat="45.34568" lon="5.82346">
        <ele>1073.8000488281</ele>
        <time>2012-05-19T07:40:34.000Z</time>
      </trkpt>
      <trkpt lat="45.34577" lon="5.82355">
        <ele>1073.4000244141</ele>
        <time>2012-05-19T07:40:38.000Z</time>
      </trkpt>
      <trkpt lat="45.34588" lon="5.82367">
        <ele>1073.4000244141</ele>
        <time>2012-05-19T07:40:43.000Z</time>
      </trkpt>
      <trkpt lat="45.34599" lon="5.82371">
        <ele>1076.1999511719</ele>
        <time>2012-05-19T07:40:48.000Z</time>
      </trkpt>
      <trkpt lat="45.34602" lon="5.82372">
        <ele>1076.8000488281</ele>
        <time>2012-05-19T07:40:49.000Z</time>
      </trkpt>
      <trkpt lat="45.34611" lon="5.8237">
        <ele>1080</ele>
        <time>2012-05-19T07:40:53.000Z</time>
      </trkpt>
      <trkpt lat="45.34623" lon="5.82367">
        <ele>1085.8000488281</ele>
        <time>2012-05-19T07:40:58.000Z</time>
      </trkpt>
      <trkpt lat="45.34629" lon="5.82368">
        <ele>1088.8000488281</ele>
        <time>2012-05-19T07:41:01.000Z</time>
      </trkpt>
      <trkpt lat="45.34638" lon="5.82367">
        <ele>1095.4000244141</ele>
        <time>2012-05-19T07:41:05.000Z</time>
      </trkpt>
      <trkpt lat="45.34648" lon="5.82365">
        <ele>1106</ele>
        <time>2012-05-19T07:41:09.000Z</time>
      </trkpt>
      <trkpt lat="45.3466" lon="5.82362">
        <ele>1122.4000244141</ele>
        <time>2012-05-19T07:41:14.000Z</time>
      </trkpt>
      <trkpt lat="45.34662" lon="5.82362">
        <ele>1123.8000488281</ele>
        <time>2012-05-19T07:41:15.000Z</time>
      </trkpt>
      <trkpt lat="45.34675" lon="5.82365">
        <ele>1127.5999755859</ele>
        <time>2012-05-19T07:41:20.000Z</time>
      </trkpt>
      <trkpt lat="45.34682" lon="5.82366">
        <ele>1126.8000488281</ele>
        <time>2012-05-19T07:41:23.000Z</time>
      </trkpt>
      <trkpt lat="45.34693" lon="5.82367">
        <ele>1123.4000244141</ele>
        <time>2012-05-19T07:41:28.000Z</time>
      </trkpt>
      <trkpt lat="45.34701" lon="5.82366">
        <ele>1121</ele>
        <time>2012-05-19T07:41:32.000Z</time>
      </trkpt>
      <trkpt lat="45.34713" lon="5.82362">
        <ele>1117</ele>
        <time>2012-05-19T07:41:37.000Z</time>
      </trkpt>
      <trkpt lat="45.34725" lon="5.82359">
        <ele>1109</ele>
        <time>2012-05-19T07:41:42.000Z</time>
      </trkpt>
      <trkpt lat="45.34737" lon="5.82358">
        <ele>1097.4000244141</ele>
        <time>2012-05-19T07:41:47.000Z</time>
      </trkpt>
      <trkpt lat="45.34749" lon="5.82361">
        <ele>1092</ele>
        <time>2012-05-19T07:41:52.000Z</time>
      </trkpt>
      <trkpt lat="45.34757" lon="5.82363">
        <ele>1093.5999755859</ele>
        <time>2012-05-19T07:41:56.000Z</time>
      </trkpt>
      <trkpt lat="45.34771" lon="5.82361">
        <ele>1094.4000244141</ele>
        <time>2012-05-19T07:42:02.000Z</time>
      </trkpt>
      <trkpt lat="45.34779" lon="5.82359">
        <ele>1095.4000244141</ele>
        <time>2012-05-19T07:42:06.000Z</time>
      </trkpt>
      <trkpt lat="45.34787" lon="5.82358">
        <ele>1094</ele>
        <time>2012-05-19T07:42:10.000Z</time>
      </trkpt>
      <trkpt lat="45.34797" lon="5.82363">
        <ele>1093</ele>
        <time>2012-05-19T07:42:15.000Z</time>
      </trkpt>
      <trkpt lat="45.34812" lon="5.82372">
        <ele>1094.4000244141</ele>
        <time>2012-05-19T07:42:21.000Z</time>
      </trkpt>
      <trkpt lat="45.34818" lon="5.82375">
        <ele>1095.4000244141</ele>
        <time>2012-05-19T07:42:24.000Z</time>
      </trkpt>
      <trkpt lat="45.34829" lon="5.82385">
        <ele>1099.8000488281</ele>
        <time>2012-05-19T07:42:29.000Z</time>
      </trkpt>
      <trkpt lat="45.34838" lon="5.82393">
        <ele>1102.1999511719</ele>
        <time>2012-05-19T07:42:33.000Z</time>
      </trkpt>
      <trkpt lat="45.34847" lon="5.82397">
        <ele>1104.1999511719</ele>
        <time>2012-05-19T07:42:36.000Z</time>
      </trkpt>
      <trkpt lat="45.34861" lon="5.82406">
        <ele>1107.4000244141</ele>
        <time>2012-05-19T07:42:41.000Z</time>
      </trkpt>
      <trkpt lat="45.3487" lon="5.82418">
        <ele>1109</ele>
        <time>2012-05-19T07:42:46.000Z</time>
      </trkpt>
      <trkpt lat="45.34878" lon="5.82426">
        <ele>1108.4000244141</ele>
        <time>2012-05-19T07:42:50.000Z</time>
      </trkpt>
      <trkpt lat="45.34888" lon="5.82431">
        <ele>1110.4000244141</ele>
        <time>2012-05-19T07:42:54.000Z</time>
      </trkpt>
      <trkpt lat="45.34893" lon="5.8244">
        <ele>1109.8000488281</ele>
        <time>2012-05-19T07:42:58.000Z</time>
      </trkpt>
      <trkpt lat="45.34902" lon="5.8245">
        <ele>1111.8000488281</ele>
        <time>2012-05-19T07:43:03.000Z</time>
      </trkpt>
      <trkpt lat="45.34912" lon="5.82463">
        <ele>1113.1999511719</ele>
        <time>2012-05-19T07:43:08.000Z</time>
      </trkpt>
      <trkpt lat="45.34921" lon="5.82473">
        <ele>1115.5999755859</ele>
        <time>2012-05-19T07:43:13.000Z</time>
      </trkpt>
      <trkpt lat="45.34926" lon="5.82477">
        <ele>1115.5999755859</ele>
        <time>2012-05-19T07:43:15.000Z</time>
      </trkpt>
      <trkpt lat="45.34933" lon="5.8249">
        <ele>1115.5999755859</ele>
        <time>2012-05-19T07:43:20.000Z</time>
      </trkpt>
      <trkpt lat="45.3494" lon="5.82497">
        <ele>1113.8000488281</ele>
        <time>2012-05-19T07:43:23.000Z</time>
      </trkpt>
      <trkpt lat="45.34949" lon="5.8251">
        <ele>1113.1999511719</ele>
        <time>2012-05-19T07:43:28.000Z</time>
      </trkpt>
      <trkpt lat="45.34957" lon="5.82525">
        <ele>1112.8000488281</ele>
        <time>2012-05-19T07:43:34.000Z</time>
      </trkpt>
      <trkpt lat="45.3496" lon="5.82541">
        <ele>1110.8000488281</ele>
        <time>2012-05-19T07:43:39.000Z</time>
      </trkpt>
      <trkpt lat="45.34964" lon="5.82556">
        <ele>1111.4000244141</ele>
        <time>2012-05-19T07:43:43.000Z</time>
      </trkpt>
      <trkpt lat="45.34971" lon="5.82575">
        <ele>1111.8000488281</ele>
        <time>2012-05-19T07:43:49.000Z</time>
      </trkpt>
      <trkpt lat="45.34979" lon="5.82589">
        <ele>1114.5999755859</ele>
        <time>2012-05-19T07:43:54.000Z</time>
      </trkpt>
      <trkpt lat="45.34988" lon="5.82601">
        <ele>1116.1999511719</ele>
        <time>2012-05-19T07:43:59.000Z</time>
      </trkpt>
      <trkpt lat="45.34993" lon="5.82608">
        <ele>1116.1999511719</ele>
        <time>2012-05-19T07:44:02.000Z</time>
      </trkpt>
      <trkpt lat="45.3501" lon="5.82618">
        <ele>1118.5999755859</ele>
        <time>2012-05-19T07:44:08.000Z</time>
      </trkpt>
      <trkpt lat="45.35021" lon="5.82628">
        <ele>1120.4000244141</ele>
        <time>2012-05-19T07:44:13.000Z</time>
      </trkpt>
      <trkpt lat="45.35037" lon="5.82641">
        <ele>1121</ele>
        <time>2012-05-19T07:44:18.000Z</time>
      </trkpt>
      <trkpt lat="45.35044" lon="5.82651">
        <ele>1119</ele>
        <time>2012-05-19T07:44:21.000Z</time>
      </trkpt>
      <trkpt lat="45.35053" lon="5.82666">
        <ele>1117</ele>
        <time>2012-05-19T07:44:25.000Z</time>
      </trkpt>
      <trkpt lat="45.35063" lon="5.82687">
        <ele>1114.1999511719</ele>
        <time>2012-05-19T07:44:30.000Z</time>
      </trkpt>
      <trkpt lat="45.35075" lon="5.82707">
        <ele>1113.8000488281</ele>
        <time>2012-05-19T07:44:35.000Z</time>
      </trkpt>
      <trkpt lat="45.35087" lon="5.82715">
        <ele>1111.8000488281</ele>
        <time>2012-05-19T07:44:39.000Z</time>
      </trkpt>
      <trkpt lat="45.35099" lon="5.82721">
        <ele>1109.4000244141</ele>
        <time>2012-05-19T07:44:42.000Z</time>
      </trkpt>
      <trkpt lat="45.35117" lon="5.82732">
        <ele>1107</ele>
        <time>2012-05-19T07:44:47.000Z</time>
      </trkpt>
      <trkpt lat="45.35124" lon="5.82742">
        <ele>1106</ele>
        <time>2012-05-19T07:44:50.000Z</time>
      </trkpt>
      <trkpt lat="45.35133" lon="5.82749">
        <ele>1106.5999755859</ele>
        <time>2012-05-19T07:44:53.000Z</time>
      </trkpt>
      <trkpt lat="45.35142" lon="5.82762">
        <ele>1107</ele>
        <time>2012-05-19T07:44:57.000Z</time>
      </trkpt>
      <trkpt lat="45.35153" lon="5.82775">
        <ele>1107.4000244141</ele>
        <time>2012-05-19T07:45:02.000Z</time>
      </trkpt>
      <trkpt lat="45.35166" lon="5.8279">
        <ele>1108.4000244141</ele>
        <time>2012-05-19T07:45:07.000Z</time>
      </trkpt>
      <trkpt lat="45.35176" lon="5.828">
        <ele>1108</ele>
        <time>2012-05-19T07:45:11.000Z</time>
      </trkpt>
      <trkpt lat="45.35185" lon="5.82808">
        <ele>1109</ele>
        <time>2012-05-19T07:45:15.000Z</time>
      </trkpt>
      <trkpt lat="45.3519" lon="5.82812">
        <ele>1109.8000488281</ele>
        <time>2012-05-19T07:45:17.000Z</time>
      </trkpt>
      <trkpt lat="45.35202" lon="5.82823">
        <ele>1112.8000488281</ele>
        <time>2012-05-19T07:45:22.000Z</time>
      </trkpt>
      <trkpt lat="45.3521" lon="5.82836">
        <ele>1115.1999511719</ele>
        <time>2012-05-19T07:45:27.000Z</time>
      </trkpt>
      <trkpt lat="45.35218" lon="5.8285">
        <ele>1116.5999755859</ele>
        <time>2012-05-19T07:45:32.000Z</time>
      </trkpt>
      <trkpt lat="45.35228" lon="5.82862">
        <ele>1118</ele>
        <time>2012-05-19T07:45:37.000Z</time>
      </trkpt>
      <trkpt lat="45.35234" lon="5.82868">
        <ele>1118</ele>
        <time>2012-05-19T07:45:40.000Z</time>
      </trkpt>
      <trkpt lat="45.35235" lon="5.8287">
        <ele>1118.5999755859</ele>
        <time>2012-05-19T07:45:41.000Z</time>
      </trkpt>
      <trkpt lat="45.35237" lon="5.82881">
        <ele>1120</ele>
        <time>2012-05-19T07:45:45.000Z</time>
      </trkpt>
      <trkpt lat="45.35236" lon="5.82888">
        <ele>1123.8000488281</ele>
        <time>2012-05-19T07:45:50.000Z</time>
      </trkpt>
      <trkpt lat="45.35237" lon="5.82897">
        <ele>1125.8000488281</ele>
        <time>2012-05-19T07:45:55.000Z</time>
      </trkpt>
      <trkpt lat="45.35242" lon="5.82903">
        <ele>1127.1999511719</ele>
        <time>2012-05-19T07:46:00.000Z</time>
      </trkpt>
      <trkpt lat="45.35245" lon="5.82908">
        <ele>1129.5999755859</ele>
        <time>2012-05-19T07:46:04.000Z</time>
      </trkpt>
      <trkpt lat="45.3525" lon="5.82911">
        <ele>1133</ele>
        <time>2012-05-19T07:46:09.000Z</time>
      </trkpt>
      <trkpt lat="45.35257" lon="5.82918">
        <ele>1137.8000488281</ele>
        <time>2012-05-19T07:46:15.000Z</time>
      </trkpt>
      <trkpt lat="45.35265" lon="5.82925">
        <ele>1140.5999755859</ele>
        <time>2012-05-19T07:46:20.000Z</time>
      </trkpt>
      <trkpt lat="45.3527" lon="5.82931">
        <ele>1143.5999755859</ele>
        <time>2012-05-19T07:46:24.000Z</time>
      </trkpt>
      <trkpt lat="45.35274" lon="5.82936">
        <ele>1147.4000244141</ele>
        <time>2012-05-19T07:46:29.000Z</time>
      </trkpt>
      <trkpt lat="45.35281" lon="5.82943">
        <ele>1152.5999755859</ele>
        <time>2012-05-19T07:46:33.000Z</time>
      </trkpt>
      <trkpt lat="45.35286" lon="5.82952">
        <ele>1150.8000488281</ele>
        <time>2012-05-19T07:46:37.000Z</time>
      </trkpt>
      <trkpt lat="45.3529" lon="5.8296">
        <ele>1152.5999755859</ele>
        <time>2012-05-19T07:46:42.000Z</time>
      </trkpt>
      <trkpt lat="45.35291" lon="5.82962">
        <ele>1152.5999755859</ele>
        <time>2012-05-19T07:46:43.000Z</time>
      </trkpt>
      <trkpt lat="45.35294" lon="5.82968">
        <ele>1155</ele>
        <time>2012-05-19T07:46:47.000Z</time>
      </trkpt>
      <trkpt lat="45.35296" lon="5.82972">
        <ele>1154.5999755859</ele>
        <time>2012-05-19T07:46:50.000Z</time>
      </trkpt>
      <trkpt lat="45.35302" lon="5.82979">
        <ele>1155</ele>
        <time>2012-05-19T07:46:55.000Z</time>
      </trkpt>
      <trkpt lat="45.35309" lon="5.82987">
        <ele>1154.5999755859</ele>
        <time>2012-05-19T07:47:00.000Z</time>
      </trkpt>
      <trkpt lat="45.35318" lon="5.82994">
        <ele>1154.5999755859</ele>
        <time>2012-05-19T07:47:05.000Z</time>
      </trkpt>
      <trkpt lat="45.35325" lon="5.83005">
        <ele>1153.5999755859</ele>
        <time>2012-05-19T07:47:11.000Z</time>
      </trkpt>
      <trkpt lat="45.35329" lon="5.8301">
        <ele>1155.5999755859</ele>
        <time>2012-05-19T07:47:15.000Z</time>
      </trkpt>
      <trkpt lat="45.3534" lon="5.83017">
        <ele>1158.4000244141</ele>
        <time>2012-05-19T07:47:22.000Z</time>
      </trkpt>
      <trkpt lat="45.35347" lon="5.83022">
        <ele>1158.4000244141</ele>
        <time>2012-05-19T07:47:26.000Z</time>
      </trkpt>
      <trkpt lat="45.35355" lon="5.83029">
        <ele>1159</ele>
        <time>2012-05-19T07:47:31.000Z</time>
      </trkpt>
      <trkpt lat="45.35359" lon="5.83033">
        <ele>1160.4000244141</ele>
        <time>2012-05-19T07:47:34.000Z</time>
      </trkpt>
      <trkpt lat="45.35363" lon="5.83044">
        <ele>1159.4000244141</ele>
        <time>2012-05-19T07:47:40.000Z</time>
      </trkpt>
      <trkpt lat="45.35365" lon="5.83048">
        <ele>1161.8000488281</ele>
        <time>2012-05-19T07:47:43.000Z</time>
      </trkpt>
      <trkpt lat="45.35367" lon="5.83048">
        <ele>1163.8000488281</ele>
        <time>2012-05-19T07:47:45.000Z</time>
      </trkpt>
      <trkpt lat="45.35375" lon="5.83049">
        <ele>1169.4000244141</ele>
        <time>2012-05-19T07:47:52.000Z</time>
      </trkpt>
      <trkpt lat="45.35378" lon="5.83045">
        <ele>1171</ele>
        <time>2012-05-19T07:47:54.000Z</time>
      </trkpt>
      <trkpt lat="45.354" lon="5.8303">
        <ele>1175.1999511719</ele>
        <time>2012-05-19T07:48:01.000Z</time>
      </trkpt>
      <trkpt lat="45.3541" lon="5.83016">
        <ele>1174.8000488281</ele>
        <time>2012-05-19T07:48:05.000Z</time>
      </trkpt>
      <trkpt lat="45.35427" lon="5.82997">
        <ele>1173.8000488281</ele>
        <time>2012-05-19T07:48:10.000Z</time>
      </trkpt>
      <trkpt lat="45.35439" lon="5.82987">
        <ele>1170</ele>
        <time>2012-05-19T07:48:14.000Z</time>
      </trkpt>
      <trkpt lat="45.35449" lon="5.82977">
        <ele>1165.5999755859</ele>
        <time>2012-05-19T07:48:17.000Z</time>
      </trkpt>
      <trkpt lat="45.35458" lon="5.82974">
        <ele>1158.4000244141</ele>
        <time>2012-05-19T07:48:20.000Z</time>
      </trkpt>
      <trkpt lat="45.3547" lon="5.82975">
        <ele>1158</ele>
        <time>2012-05-19T07:48:26.000Z</time>
      </trkpt>
      <trkpt lat="45.35481" lon="5.82972">
        <ele>1159</ele>
        <time>2012-05-19T07:48:32.000Z</time>
      </trkpt>
      <trkpt lat="45.3549" lon="5.82977">
        <ele>1161.4000244141</ele>
        <time>2012-05-19T07:48:37.000Z</time>
      </trkpt>
      <trkpt lat="45.35496" lon="5.82988">
        <ele>1159.4000244141</ele>
        <time>2012-05-19T07:48:41.000Z</time>
      </trkpt>
      <trkpt lat="45.35498" lon="5.82998">
        <ele>1158.4000244141</ele>
        <time>2012-05-19T07:48:43.000Z</time>
      </trkpt>
      <trkpt lat="45.35507" lon="5.83015">
        <ele>1156.5999755859</ele>
        <time>2012-05-19T07:48:48.000Z</time>
      </trkpt>
      <trkpt lat="45.3551" lon="5.83019">
        <ele>1156</ele>
        <time>2012-05-19T07:48:49.000Z</time>
      </trkpt>
      <trkpt lat="45.35525" lon="5.8303">
        <ele>1153.1999511719</ele>
        <time>2012-05-19T07:48:54.000Z</time>
      </trkpt>
      <trkpt lat="45.35528" lon="5.83033">
        <ele>1152.1999511719</ele>
        <time>2012-05-19T07:48:55.000Z</time>
      </trkpt>
      <trkpt lat="45.35543" lon="5.83037">
        <ele>1150.8000488281</ele>
        <time>2012-05-19T07:48:59.000Z</time>
      </trkpt>
      <trkpt lat="45.35554" lon="5.83052">
        <ele>1149.8000488281</ele>
        <time>2012-05-19T07:49:03.000Z</time>
      </trkpt>
      <trkpt lat="45.35564" lon="5.83075">
        <ele>1146.8000488281</ele>
        <time>2012-05-19T07:49:08.000Z</time>
      </trkpt>
      <trkpt lat="45.35569" lon="5.8308">
        <ele>1146</ele>
        <time>2012-05-19T07:49:10.000Z</time>
      </trkpt>
      <trkpt lat="45.3559" lon="5.83073">
        <ele>1141.5999755859</ele>
        <time>2012-05-19T07:49:16.000Z</time>
      </trkpt>
      <trkpt lat="45.35615" lon="5.83061">
        <ele>1136.4000244141</ele>
        <time>2012-05-19T07:49:22.000Z</time>
      </trkpt>
      <trkpt lat="45.35623" lon="5.8306">
        <ele>1134</ele>
        <time>2012-05-19T07:49:24.000Z</time>
      </trkpt>
      <trkpt lat="45.3564" lon="5.83068">
        <ele>1135.4000244141</ele>
        <time>2012-05-19T07:49:29.000Z</time>
      </trkpt>
      <trkpt lat="45.35649" lon="5.83081">
        <ele>1134.8000488281</ele>
        <time>2012-05-19T07:49:32.000Z</time>
      </trkpt>
      <trkpt lat="45.35658" lon="5.83106">
        <ele>1136.4000244141</ele>
        <time>2012-05-19T07:49:37.000Z</time>
      </trkpt>
      <trkpt lat="45.35659" lon="5.83111">
        <ele>1135.8000488281</ele>
        <time>2012-05-19T07:49:38.000Z</time>
      </trkpt>
      <trkpt lat="45.35669" lon="5.83132">
        <ele>1137.1999511719</ele>
        <time>2012-05-19T07:49:43.000Z</time>
      </trkpt>
      <trkpt lat="45.35682" lon="5.83139">
        <ele>1137.8000488281</ele>
        <time>2012-05-19T07:49:47.000Z</time>
      </trkpt>
      <trkpt lat="45.35691" lon="5.8314">
        <ele>1137.8000488281</ele>
        <time>2012-05-19T07:49:49.000Z</time>
      </trkpt>
      <trkpt lat="45.35711" lon="5.83142">
        <ele>1134.8000488281</ele>
        <time>2012-05-19T07:49:54.000Z</time>
      </trkpt>
      <trkpt lat="45.35724" lon="5.8314">
        <ele>1136.4000244141</ele>
        <time>2012-05-19T07:49:58.000Z</time>
      </trkpt>
      <trkpt lat="45.35736" lon="5.83139">
        <ele>1132.4000244141</ele>
        <time>2012-05-19T07:50:02.000Z</time>
      </trkpt>
      <trkpt lat="45.35758" lon="5.83136">
        <ele>1125.8000488281</ele>
        <time>2012-05-19T07:50:08.000Z</time>
      </trkpt>
      <trkpt lat="45.35774" lon="5.83136">
        <ele>1123.8000488281</ele>
        <time>2012-05-19T07:50:12.000Z</time>
      </trkpt>
      <trkpt lat="45.35787" lon="5.83143">
        <ele>1121.4000244141</ele>
        <time>2012-05-19T07:50:16.000Z</time>
      </trkpt>
      <trkpt lat="45.35802" lon="5.83163">
        <ele>1114.5999755859</ele>
        <time>2012-05-19T07:50:21.000Z</time>
      </trkpt>
      <trkpt lat="45.35807" lon="5.83182">
        <ele>1110.4000244141</ele>
        <time>2012-05-19T07:50:25.000Z</time>
      </trkpt>
      <trkpt lat="45.35811" lon="5.83197">
        <ele>1107</ele>
        <time>2012-05-19T07:50:29.000Z</time>
      </trkpt>
      <trkpt lat="45.35812" lon="5.83199">
        <ele>1106.5999755859</ele>
        <time>2012-05-19T07:50:30.000Z</time>
      </trkpt>
      <trkpt lat="45.3582" lon="5.83203">
        <ele>1103.5999755859</ele>
        <time>2012-05-19T07:50:34.000Z</time>
      </trkpt>
      <trkpt lat="45.35833" lon="5.83184">
        <ele>1104.5999755859</ele>
        <time>2012-05-19T07:50:40.000Z</time>
      </trkpt>
      <trkpt lat="45.3584" lon="5.83165">
        <ele>1105.5999755859</ele>
        <time>2012-05-19T07:50:44.000Z</time>
      </trkpt>
      <trkpt lat="45.35842" lon="5.83142">
        <ele>1102.1999511719</ele>
        <time>2012-05-19T07:50:48.000Z</time>
      </trkpt>
      <trkpt lat="45.35846" lon="5.8312">
        <ele>1101.8000488281</ele>
        <time>2012-05-19T07:50:53.000Z</time>
      </trkpt>
      <trkpt lat="45.35846" lon="5.83099">
        <ele>1098.4000244141</ele>
        <time>2012-05-19T07:50:57.000Z</time>
      </trkpt>
      <trkpt lat="45.35849" lon="5.83079">
        <ele>1093</ele>
        <time>2012-05-19T07:51:01.000Z</time>
      </trkpt>
      <trkpt lat="45.35854" lon="5.83064">
        <ele>1086.8000488281</ele>
        <time>2012-05-19T07:51:05.000Z</time>
      </trkpt>
      <trkpt lat="45.35855" lon="5.83058">
        <ele>1093</ele>
        <time>2012-05-19T07:51:06.000Z</time>
      </trkpt>
      <trkpt lat="45.35859" lon="5.83033">
        <ele>1083.4000244141</ele>
        <time>2012-05-19T07:51:12.000Z</time>
      </trkpt>
      <trkpt lat="45.35862" lon="5.83015">
        <ele>1075.1999511719</ele>
        <time>2012-05-19T07:51:16.000Z</time>
      </trkpt>
      <trkpt lat="45.35864" lon="5.82999">
        <ele>1069.5999755859</ele>
        <time>2012-05-19T07:51:19.000Z</time>
      </trkpt>
      <trkpt lat="45.35859" lon="5.82974">
        <ele>1066.1999511719</ele>
        <time>2012-05-19T07:51:24.000Z</time>
      </trkpt>
      <trkpt lat="45.35859" lon="5.82964">
        <ele>1064.5999755859</ele>
        <time>2012-05-19T07:51:26.000Z</time>
      </trkpt>
      <trkpt lat="45.35859" lon="5.8295">
        <ele>1058</ele>
        <time>2012-05-19T07:51:31.000Z</time>
      </trkpt>
      <trkpt lat="45.35869" lon="5.82927">
        <ele>1048.4000244141</ele>
        <time>2012-05-19T07:51:37.000Z</time>
      </trkpt>
      <trkpt lat="45.3588" lon="5.82912">
        <ele>1042.1999511719</ele>
        <time>2012-05-19T07:51:42.000Z</time>
      </trkpt>
      <trkpt lat="45.35886" lon="5.82898">
        <ele>1040.5999755859</ele>
        <time>2012-05-19T07:51:47.000Z</time>
      </trkpt>
      <trkpt lat="45.35887" lon="5.82892">
        <ele>1038.1999511719</ele>
        <time>2012-05-19T07:51:49.000Z</time>
      </trkpt>
      <trkpt lat="45.35887" lon="5.82887">
        <ele>1033</ele>
        <time>2012-05-19T07:51:52.000Z</time>
      </trkpt>
      <trkpt lat="45.35881" lon="5.82874">
        <ele>1024.8000488281</ele>
        <time>2012-05-19T07:51:57.000Z</time>
      </trkpt>
      <trkpt lat="45.35881" lon="5.82867">
        <ele>1022</ele>
        <time>2012-05-19T07:51:59.000Z</time>
      </trkpt>
      <trkpt lat="45.35876" lon="5.82846">
        <ele>1019</ele>
        <time>2012-05-19T07:52:04.000Z</time>
      </trkpt>
      <trkpt lat="45.35866" lon="5.8283">
        <ele>1019</ele>
        <time>2012-05-19T07:52:09.000Z</time>
      </trkpt>
      <trkpt lat="45.35867" lon="5.82808">
        <ele>1020.4000244141</ele>
        <time>2012-05-19T07:52:13.000Z</time>
      </trkpt>
      <trkpt lat="45.35868" lon="5.82787">
        <ele>1017.200012207</ele>
        <time>2012-05-19T07:52:17.000Z</time>
      </trkpt>
      <trkpt lat="45.35869" lon="5.82783">
        <ele>1017.5999755859</ele>
        <time>2012-05-19T07:52:18.000Z</time>
      </trkpt>
      <trkpt lat="45.35862" lon="5.82761">
        <ele>1020</ele>
        <time>2012-05-19T07:52:24.000Z</time>
      </trkpt>
      <trkpt lat="45.3586" lon="5.82751">
        <ele>1022.4000244141</ele>
        <time>2012-05-19T07:52:26.000Z</time>
      </trkpt>
      <trkpt lat="45.35852" lon="5.82723">
        <ele>1036.4000244141</ele>
        <time>2012-05-19T07:52:31.000Z</time>
      </trkpt>
      <trkpt lat="45.35841" lon="5.827">
        <ele>1034</ele>
        <time>2012-05-19T07:52:36.000Z</time>
      </trkpt>
      <trkpt lat="45.35838" lon="5.82696">
        <ele>1033.4000244141</ele>
        <time>2012-05-19T07:52:37.000Z</time>
      </trkpt>
      <trkpt lat="45.3583" lon="5.82682">
        <ele>1035.4000244141</ele>
        <time>2012-05-19T07:52:41.000Z</time>
      </trkpt>
      <trkpt lat="45.35823" lon="5.82666">
        <ele>1034.8000488281</ele>
        <time>2012-05-19T07:52:47.000Z</time>
      </trkpt>
      <trkpt lat="45.35819" lon="5.82655">
        <ele>1034.4000244141</ele>
        <time>2012-05-19T07:52:50.000Z</time>
      </trkpt>
      <trkpt lat="45.35813" lon="5.82633">
        <ele>1051.1999511719</ele>
        <time>2012-05-19T07:52:54.000Z</time>
      </trkpt>
      <trkpt lat="45.35813" lon="5.8262">
        <ele>1048.8000488281</ele>
        <time>2012-05-19T07:52:57.000Z</time>
      </trkpt>
      <trkpt lat="45.35813" lon="5.82602">
        <ele>1047.8000488281</ele>
        <time>2012-05-19T07:53:01.000Z</time>
      </trkpt>
      <trkpt lat="45.35817" lon="5.8259">
        <ele>1045.4000244141</ele>
        <time>2012-05-19T07:53:06.000Z</time>
      </trkpt>
      <trkpt lat="45.35818" lon="5.82591">
        <ele>1046</ele>
        <time>2012-05-19T07:53:07.000Z</time>
      </trkpt>
      <trkpt lat="45.35826" lon="5.82598">
        <ele>1042.5999755859</ele>
        <time>2012-05-19T07:53:14.000Z</time>
      </trkpt>
      <trkpt lat="45.35833" lon="5.82601">
        <ele>1039.1999511719</ele>
        <time>2012-05-19T07:53:20.000Z</time>
      </trkpt>
      <trkpt lat="45.35839" lon="5.82603">
        <ele>1035.8000488281</ele>
        <time>2012-05-19T07:53:25.000Z</time>
      </trkpt>
      <trkpt lat="45.35842" lon="5.82605">
        <ele>1037.8000488281</ele>
        <time>2012-05-19T07:53:29.000Z</time>
      </trkpt>
      <trkpt lat="45.35849" lon="5.82607">
        <ele>1043.5999755859</ele>
        <time>2012-05-19T07:53:34.000Z</time>
      </trkpt>
      <trkpt lat="45.35855" lon="5.82606">
        <ele>1057</ele>
        <time>2012-05-19T07:53:40.000Z</time>
      </trkpt>
      <trkpt lat="45.35858" lon="5.82603">
        <ele>1064.1999511719</ele>
        <time>2012-05-19T07:53:43.000Z</time>
      </trkpt>
      <trkpt lat="45.35866" lon="5.82601">
        <ele>1068</ele>
        <time>2012-05-19T07:53:48.000Z</time>
      </trkpt>
      <trkpt lat="45.3587" lon="5.826">
        <ele>1065.5999755859</ele>
        <time>2012-05-19T07:53:52.000Z</time>
      </trkpt>
      <trkpt lat="45.35876" lon="5.82599">
        <ele>1065.1999511719</ele>
        <time>2012-05-19T07:53:56.000Z</time>
      </trkpt>
      <trkpt lat="45.3588" lon="5.82598">
        <ele>1065.1999511719</ele>
        <time>2012-05-19T07:53:59.000Z</time>
      </trkpt>
      <trkpt lat="45.35888" lon="5.82606">
        <ele>1069</ele>
        <time>2012-05-19T07:54:05.000Z</time>
      </trkpt>
      <trkpt lat="45.3589" lon="5.82609">
        <ele>1070.4000244141</ele>
        <time>2012-05-19T07:54:07.000Z</time>
      </trkpt>
      <trkpt lat="45.35895" lon="5.82615">
        <ele>1071</ele>
        <time>2012-05-19T07:54:13.000Z</time>
      </trkpt>
      <trkpt lat="45.359" lon="5.82616">
        <ele>1072.4000244141</ele>
        <time>2012-05-19T07:54:17.000Z</time>
      </trkpt>
      <trkpt lat="45.35907" lon="5.82625">
        <ele>1074.8000488281</ele>
        <time>2012-05-19T07:54:22.000Z</time>
      </trkpt>
      <trkpt lat="45.35908" lon="5.82627">
        <ele>1075.1999511719</ele>
        <time>2012-05-19T07:54:23.000Z</time>
      </trkpt>
      <trkpt lat="45.35908" lon="5.82631">
        <ele>1077.5999755859</ele>
        <time>2012-05-19T07:54:25.000Z</time>
      </trkpt>
      <trkpt lat="45.35905" lon="5.82642">
        <ele>1081.5999755859</ele>
        <time>2012-05-19T07:54:30.000Z</time>
      </trkpt>
      <trkpt lat="45.35901" lon="5.82655">
        <ele>1084.8000488281</ele>
        <time>2012-05-19T07:54:36.000Z</time>
      </trkpt>
      <trkpt lat="45.35905" lon="5.82674">
        <ele>1073.4000244141</ele>
        <time>2012-05-19T07:54:42.000Z</time>
      </trkpt>
      <trkpt lat="45.35906" lon="5.82679">
        <ele>1072.8000488281</ele>
        <time>2012-05-19T07:54:44.000Z</time>
      </trkpt>
      <trkpt lat="45.35909" lon="5.82685">
        <ele>1077.1999511719</ele>
        <time>2012-05-19T07:54:49.000Z</time>
      </trkpt>
      <trkpt lat="45.35911" lon="5.82695">
        <ele>1081.5999755859</ele>
        <time>2012-05-19T07:54:54.000Z</time>
      </trkpt>
      <trkpt lat="45.35912" lon="5.82702">
        <ele>1086.8000488281</ele>
        <time>2012-05-19T07:55:00.000Z</time>
      </trkpt>
      <trkpt lat="45.35916" lon="5.82708">
        <ele>1085.4000244141</ele>
        <time>2012-05-19T07:55:04.000Z</time>
      </trkpt>
      <trkpt lat="45.35923" lon="5.82713">
        <ele>1085.4000244141</ele>
        <time>2012-05-19T07:55:08.000Z</time>
      </trkpt>
      <trkpt lat="45.35929" lon="5.82717">
        <ele>1084.4000244141</ele>
        <time>2012-05-19T07:55:11.000Z</time>
      </trkpt>
      <trkpt lat="45.35938" lon="5.82724">
        <ele>1079.1999511719</ele>
        <time>2012-05-19T07:55:15.000Z</time>
      </trkpt>
      <trkpt lat="45.35942" lon="5.82732">
        <ele>1079.5999755859</ele>
        <time>2012-05-19T07:55:19.000Z</time>
      </trkpt>
      <trkpt lat="45.35945" lon="5.82738">
        <ele>1082.4000244141</ele>
        <time>2012-05-19T07:55:23.000Z</time>
      </trkpt>
      <trkpt lat="45.35946" lon="5.82745">
        <ele>1084.8000488281</ele>
        <time>2012-05-19T07:55:26.000Z</time>
      </trkpt>
      <trkpt lat="45.35949" lon="5.82756">
        <ele>1086.4000244141</ele>
        <time>2012-05-19T07:55:32.000Z</time>
      </trkpt>
      <trkpt lat="45.3595" lon="5.82759">
        <ele>1087.8000488281</ele>
        <time>2012-05-19T07:55:33.000Z</time>
      </trkpt>
      <trkpt lat="45.35952" lon="5.82762">
        <ele>1088.8000488281</ele>
        <time>2012-05-19T07:55:36.000Z</time>
      </trkpt>
      <trkpt lat="45.35955" lon="5.82769">
        <ele>1086.4000244141</ele>
        <time>2012-05-19T07:55:40.000Z</time>
      </trkpt>
      <trkpt lat="45.35965" lon="5.82774">
        <ele>1086.4000244141</ele>
        <time>2012-05-19T07:55:46.000Z</time>
      </trkpt>
      <trkpt lat="45.3597" lon="5.82779">
        <ele>1088.8000488281</ele>
        <time>2012-05-19T07:55:50.000Z</time>
      </trkpt>
      <trkpt lat="45.35973" lon="5.82784">
        <ele>1090.5999755859</ele>
        <time>2012-05-19T07:55:53.000Z</time>
      </trkpt>
      <trkpt lat="45.35974" lon="5.82787">
        <ele>1092</ele>
        <time>2012-05-19T07:55:55.000Z</time>
      </trkpt>
      <trkpt lat="45.35983" lon="5.82793">
        <ele>1090.1999511719</ele>
        <time>2012-05-19T07:56:01.000Z</time>
      </trkpt>
      <trkpt lat="45.35988" lon="5.82799">
        <ele>1089.1999511719</ele>
        <time>2012-05-19T07:56:05.000Z</time>
      </trkpt>
      <trkpt lat="45.3599" lon="5.82797">
        <ele>1088.8000488281</ele>
        <time>2012-05-19T07:56:06.000Z</time>
      </trkpt>
      <trkpt lat="45.35987" lon="5.82792">
        <ele>1090.5999755859</ele>
        <time>2012-05-19T07:56:12.000Z</time>
      </trkpt>
      <trkpt lat="45.35986" lon="5.82787">
        <ele>1092</ele>
        <time>2012-05-19T07:56:15.000Z</time>
      </trkpt>
      <trkpt lat="45.35984" lon="5.82779">
        <ele>1101.1999511719</ele>
        <time>2012-05-19T07:56:20.000Z</time>
      </trkpt>
      <trkpt lat="45.35984" lon="5.82778">
        <ele>1100.1999511719</ele>
        <time>2012-05-19T07:56:21.000Z</time>
      </trkpt>
      <trkpt lat="45.35985" lon="5.82775">
        <ele>1098.4000244141</ele>
        <time>2012-05-19T07:56:23.000Z</time>
      </trkpt>
      <trkpt lat="45.35986" lon="5.82766">
        <ele>1098.8000488281</ele>
        <time>2012-05-19T07:56:30.000Z</time>
      </trkpt>
      <trkpt lat="45.35986" lon="5.82765">
        <ele>1097.8000488281</ele>
        <time>2012-05-19T07:56:31.000Z</time>
      </trkpt>
      <trkpt lat="45.35989" lon="5.82758">
        <ele>1101.1999511719</ele>
        <time>2012-05-19T07:56:35.000Z</time>
      </trkpt>
      <trkpt lat="45.35994" lon="5.82757">
        <ele>1106.5999755859</ele>
        <time>2012-05-19T07:56:40.000Z</time>
      </trkpt>
      <trkpt lat="45.35997" lon="5.82759">
        <ele>1105.5999755859</ele>
        <time>2012-05-19T07:56:42.000Z</time>
      </trkpt>
      <trkpt lat="45.35998" lon="5.8276">
        <ele>1108</ele>
        <time>2012-05-19T07:56:45.000Z</time>
      </trkpt>
      <trkpt lat="45.36003" lon="5.82763">
        <ele>1110.4000244141</ele>
        <time>2012-05-19T07:56:49.000Z</time>
      </trkpt>
      <trkpt lat="45.36008" lon="5.82773">
        <ele>1111.4000244141</ele>
        <time>2012-05-19T07:56:55.000Z</time>
      </trkpt>
      <trkpt lat="45.36012" lon="5.82778">
        <ele>1114.5999755859</ele>
        <time>2012-05-19T07:57:00.000Z</time>
      </trkpt>
      <trkpt lat="45.36015" lon="5.8278">
        <ele>1113.1999511719</ele>
        <time>2012-05-19T07:57:06.000Z</time>
      </trkpt>
      <trkpt lat="45.36016" lon="5.82776">
        <ele>1110.4000244141</ele>
        <time>2012-05-19T07:57:12.000Z</time>
      </trkpt>
      <trkpt lat="45.36018" lon="5.8277">
        <ele>1111.8000488281</ele>
        <time>2012-05-19T07:57:16.000Z</time>
      </trkpt>
      <trkpt lat="45.36019" lon="5.82764">
        <ele>1112.8000488281</ele>
        <time>2012-05-19T07:57:19.000Z</time>
      </trkpt>
      <trkpt lat="45.36024" lon="5.82756">
        <ele>1116.1999511719</ele>
        <time>2012-05-19T07:57:26.000Z</time>
      </trkpt>
      <trkpt lat="45.36027" lon="5.82753">
        <ele>1120.4000244141</ele>
        <time>2012-05-19T07:57:32.000Z</time>
      </trkpt>
      <trkpt lat="45.3603" lon="5.82749">
        <ele>1121</ele>
        <time>2012-05-19T07:57:37.000Z</time>
      </trkpt>
      <trkpt lat="45.36037" lon="5.82744">
        <ele>1123.8000488281</ele>
        <time>2012-05-19T07:57:42.000Z</time>
      </trkpt>
      <trkpt lat="45.36044" lon="5.82739">
        <ele>1123.8000488281</ele>
        <time>2012-05-19T07:57:45.000Z</time>
      </trkpt>
      <trkpt lat="45.36057" lon="5.82739">
        <ele>1123.8000488281</ele>
        <time>2012-05-19T07:57:49.000Z</time>
      </trkpt>
      <trkpt lat="45.36064" lon="5.82739">
        <ele>1127.1999511719</ele>
        <time>2012-05-19T07:57:53.000Z</time>
      </trkpt>
      <trkpt lat="45.36071" lon="5.82736">
        <ele>1126.8000488281</ele>
        <time>2012-05-19T07:57:59.000Z</time>
      </trkpt>
      <trkpt lat="45.36076" lon="5.82732">
        <ele>1133.4000244141</ele>
        <time>2012-05-19T07:58:04.000Z</time>
      </trkpt>
      <trkpt lat="45.36084" lon="5.82732">
        <ele>1139.5999755859</ele>
        <time>2012-05-19T07:58:11.000Z</time>
      </trkpt>
      <trkpt lat="45.36086" lon="5.8273">
        <ele>1142.5999755859</ele>
        <time>2012-05-19T07:58:14.000Z</time>
      </trkpt>
      <trkpt lat="45.36091" lon="5.82724">
        <ele>1145.4000244141</ele>
        <time>2012-05-19T07:58:19.000Z</time>
      </trkpt>
      <trkpt lat="45.36093" lon="5.8272">
        <ele>1144.4000244141</ele>
        <time>2012-05-19T07:58:24.000Z</time>
      </trkpt>
      <trkpt lat="45.36099" lon="5.82714">
        <ele>1148.8000488281</ele>
        <time>2012-05-19T07:58:31.000Z</time>
      </trkpt>
      <trkpt lat="45.361" lon="5.82714">
        <ele>1145</ele>
        <time>2012-05-19T07:58:34.000Z</time>
      </trkpt>
      <trkpt lat="45.36107" lon="5.82713">
        <ele>1144.4000244141</ele>
        <time>2012-05-19T07:58:38.000Z</time>
      </trkpt>
      <trkpt lat="45.36113" lon="5.82708">
        <ele>1147.4000244141</ele>
        <time>2012-05-19T07:58:41.000Z</time>
      </trkpt>
      <trkpt lat="45.36118" lon="5.82705">
        <ele>1150.1999511719</ele>
        <time>2012-05-19T07:58:47.000Z</time>
      </trkpt>
      <trkpt lat="45.3612" lon="5.82706">
        <ele>1151.5999755859</ele>
        <time>2012-05-19T07:58:49.000Z</time>
      </trkpt>
      <trkpt lat="45.36128" lon="5.82702">
        <ele>1157.4000244141</ele>
        <time>2012-05-19T07:58:55.000Z</time>
      </trkpt>
      <trkpt lat="45.36131" lon="5.827">
        <ele>1155</ele>
        <time>2012-05-19T07:58:56.000Z</time>
      </trkpt>
      <trkpt lat="45.36138" lon="5.82696">
        <ele>1156</ele>
        <time>2012-05-19T07:59:02.000Z</time>
      </trkpt>
      <trkpt lat="45.36143" lon="5.82689">
        <ele>1156</ele>
        <time>2012-05-19T07:59:07.000Z</time>
      </trkpt>
      <trkpt lat="45.36148" lon="5.82687">
        <ele>1154.1999511719</ele>
        <time>2012-05-19T07:59:11.000Z</time>
      </trkpt>
      <trkpt lat="45.36152" lon="5.8268">
        <ele>1157.4000244141</ele>
        <time>2012-05-19T07:59:17.000Z</time>
      </trkpt>
      <trkpt lat="45.36154" lon="5.82677">
        <ele>1158.4000244141</ele>
        <time>2012-05-19T07:59:20.000Z</time>
      </trkpt>
      <trkpt lat="45.36158" lon="5.82673">
        <ele>1160.8000488281</ele>
        <time>2012-05-19T07:59:24.000Z</time>
      </trkpt>
      <trkpt lat="45.3616" lon="5.82671">
        <ele>1160.8000488281</ele>
        <time>2012-05-19T07:59:26.000Z</time>
      </trkpt>
      <trkpt lat="45.36165" lon="5.82668">
        <ele>1160.8000488281</ele>
        <time>2012-05-19T07:59:32.000Z</time>
      </trkpt>
      <trkpt lat="45.36171" lon="5.82663">
        <ele>1160.8000488281</ele>
        <time>2012-05-19T07:59:37.000Z</time>
      </trkpt>
      <trkpt lat="45.36185" lon="5.82656">
        <ele>1162.1999511719</ele>
        <time>2012-05-19T07:59:43.000Z</time>
      </trkpt>
      <trkpt lat="45.36191" lon="5.8265">
        <ele>1164.1999511719</ele>
        <time>2012-05-19T07:59:48.000Z</time>
      </trkpt>
      <trkpt lat="45.36198" lon="5.82646">
        <ele>1165.5999755859</ele>
        <time>2012-05-19T07:59:53.000Z</time>
      </trkpt>
      <trkpt lat="45.36202" lon="5.82641">
        <ele>1169</ele>
        <time>2012-05-19T07:59:57.000Z</time>
      </trkpt>
      <trkpt lat="45.3621" lon="5.82634">
        <ele>1168</ele>
        <time>2012-05-19T08:00:01.000Z</time>
      </trkpt>
      <trkpt lat="45.36224" lon="5.82628">
        <ele>1172.4000244141</ele>
        <time>2012-05-19T08:00:08.000Z</time>
      </trkpt>
      <trkpt lat="45.36226" lon="5.82628">
        <ele>1172.8000488281</ele>
        <time>2012-05-19T08:00:09.000Z</time>
      </trkpt>
      <trkpt lat="45.36242" lon="5.82626">
        <ele>1175.8000488281</ele>
        <time>2012-05-19T08:00:16.000Z</time>
      </trkpt>
      <trkpt lat="45.36249" lon="5.82624">
        <ele>1176.1999511719</ele>
        <time>2012-05-19T08:00:19.000Z</time>
      </trkpt>
      <trkpt lat="45.36258" lon="5.82628">
        <ele>1175.1999511719</ele>
        <time>2012-05-19T08:00:24.000Z</time>
      </trkpt>
      <trkpt lat="45.36263" lon="5.82627">
        <ele>1174.1999511719</ele>
        <time>2012-05-19T08:00:26.000Z</time>
      </trkpt>
      <trkpt lat="45.36273" lon="5.82617">
        <ele>1174.8000488281</ele>
        <time>2012-05-19T08:00:32.000Z</time>
      </trkpt>
      <trkpt lat="45.36274" lon="5.82609">
        <ele>1172.8000488281</ele>
        <time>2012-05-19T08:00:38.000Z</time>
      </trkpt>
      <trkpt lat="45.36279" lon="5.82602">
        <ele>1174.8000488281</ele>
        <time>2012-05-19T08:00:44.000Z</time>
      </trkpt>
      <trkpt lat="45.36285" lon="5.82595">
        <ele>1176.5999755859</ele>
        <time>2012-05-19T08:00:51.000Z</time>
      </trkpt>
      <trkpt lat="45.3629" lon="5.8259">
        <ele>1180.5999755859</ele>
        <time>2012-05-19T08:00:56.000Z</time>
      </trkpt>
      <trkpt lat="45.36296" lon="5.82588">
        <ele>1186.4000244141</ele>
        <time>2012-05-19T08:01:01.000Z</time>
      </trkpt>
      <trkpt lat="45.36296" lon="5.82585">
        <ele>1196.4000244141</ele>
        <time>2012-05-19T08:01:05.000Z</time>
      </trkpt>
      <trkpt lat="45.363" lon="5.82582">
        <ele>1200.1999511719</ele>
        <time>2012-05-19T08:01:09.000Z</time>
      </trkpt>
      <trkpt lat="45.36311" lon="5.82577">
        <ele>1204.5999755859</ele>
        <time>2012-05-19T08:01:15.000Z</time>
      </trkpt>
      <trkpt lat="45.36316" lon="5.82574">
        <ele>1207</ele>
        <time>2012-05-19T08:01:20.000Z</time>
      </trkpt>
      <trkpt lat="45.36322" lon="5.82569">
        <ele>1200.1999511719</ele>
        <time>2012-05-19T08:01:25.000Z</time>
      </trkpt>
      <trkpt lat="45.36329" lon="5.82562">
        <ele>1191.5999755859</ele>
        <time>2012-05-19T08:01:30.000Z</time>
      </trkpt>
      <trkpt lat="45.36337" lon="5.8256">
        <ele>1192</ele>
        <time>2012-05-19T08:01:35.000Z</time>
      </trkpt>
      <trkpt lat="45.36342" lon="5.82558">
        <ele>1189.5999755859</ele>
        <time>2012-05-19T08:01:37.000Z</time>
      </trkpt>
      <trkpt lat="45.36347" lon="5.82554">
        <ele>1190.1999511719</ele>
        <time>2012-05-19T08:01:42.000Z</time>
      </trkpt>
      <trkpt lat="45.36352" lon="5.82549">
        <ele>1187.1999511719</ele>
        <time>2012-05-19T08:01:48.000Z</time>
      </trkpt>
      <trkpt lat="45.36354" lon="5.82551">
        <ele>1191.1999511719</ele>
        <time>2012-05-19T08:01:53.000Z</time>
      </trkpt>
      <trkpt lat="45.36356" lon="5.82545">
        <ele>1201.5999755859</ele>
        <time>2012-05-19T08:02:01.000Z</time>
      </trkpt>
      <trkpt lat="45.3635" lon="5.82536">
        <ele>1203.5999755859</ele>
        <time>2012-05-19T08:02:05.000Z</time>
      </trkpt>
      <trkpt lat="45.36349" lon="5.82531">
        <ele>1206.4000244141</ele>
        <time>2012-05-19T08:02:11.000Z</time>
      </trkpt>
      <trkpt lat="45.36349" lon="5.82532">
        <ele>1206.4000244141</ele>
        <time>2012-05-19T08:02:12.000Z</time>
      </trkpt>
      <trkpt lat="45.36355" lon="5.82535">
        <ele>1208.8000488281</ele>
        <time>2012-05-19T08:02:16.000Z</time>
      </trkpt>
      <trkpt lat="45.36357" lon="5.82534">
        <ele>1208.4000244141</ele>
        <time>2012-05-19T08:02:17.000Z</time>
      </trkpt>
      <trkpt lat="45.36361" lon="5.82535">
        <ele>1208.8000488281</ele>
        <time>2012-05-19T08:02:20.000Z</time>
      </trkpt>
      <trkpt lat="45.36363" lon="5.82532">
        <ele>1209.8000488281</ele>
        <time>2012-05-19T08:02:23.000Z</time>
      </trkpt>
      <trkpt lat="45.36356" lon="5.82525">
        <ele>1209.4000244141</ele>
        <time>2012-05-19T08:02:28.000Z</time>
      </trkpt>
      <trkpt lat="45.36351" lon="5.82517">
        <ele>1211.1999511719</ele>
        <time>2012-05-19T08:02:32.000Z</time>
      </trkpt>
      <trkpt lat="45.36343" lon="5.82508">
        <ele>1211.8000488281</ele>
        <time>2012-05-19T08:02:37.000Z</time>
      </trkpt>
      <trkpt lat="45.36334" lon="5.82499">
        <ele>1214.1999511719</ele>
        <time>2012-05-19T08:02:43.000Z</time>
      </trkpt>
      <trkpt lat="45.36333" lon="5.82497">
        <ele>1214.5999755859</ele>
        <time>2012-05-19T08:02:44.000Z</time>
      </trkpt>
      <trkpt lat="45.36335" lon="5.82496">
        <ele>1214.1999511719</ele>
        <time>2012-05-19T08:02:46.000Z</time>
      </trkpt>
      <trkpt lat="45.36341" lon="5.82495">
        <ele>1215.5999755859</ele>
        <time>2012-05-19T08:02:49.000Z</time>
      </trkpt>
      <trkpt lat="45.36351" lon="5.82501">
        <ele>1218.5999755859</ele>
        <time>2012-05-19T08:02:55.000Z</time>
      </trkpt>
      <trkpt lat="45.36358" lon="5.82506">
        <ele>1219.4000244141</ele>
        <time>2012-05-19T08:02:59.000Z</time>
      </trkpt>
      <trkpt lat="45.36367" lon="5.82506">
        <ele>1218</ele>
        <time>2012-05-19T08:03:03.000Z</time>
      </trkpt>
      <trkpt lat="45.36372" lon="5.82506">
        <ele>1217.5999755859</ele>
        <time>2012-05-19T08:03:06.000Z</time>
      </trkpt>
      <trkpt lat="45.36381" lon="5.82506">
        <ele>1221</ele>
        <time>2012-05-19T08:03:11.000Z</time>
      </trkpt>
      <trkpt lat="45.36385" lon="5.82502">
        <ele>1226.1999511719</ele>
        <time>2012-05-19T08:03:16.000Z</time>
      </trkpt>
      <trkpt lat="45.36387" lon="5.825">
        <ele>1225.1999511719</ele>
        <time>2012-05-19T08:03:17.000Z</time>
      </trkpt>
      <trkpt lat="45.36382" lon="5.82496">
        <ele>1227.5999755859</ele>
        <time>2012-05-19T08:03:22.000Z</time>
      </trkpt>
      <trkpt lat="45.36376" lon="5.82492">
        <ele>1228.5999755859</ele>
        <time>2012-05-19T08:03:26.000Z</time>
      </trkpt>
      <trkpt lat="45.36367" lon="5.82483">
        <ele>1230</ele>
        <time>2012-05-19T08:03:32.000Z</time>
      </trkpt>
      <trkpt lat="45.36366" lon="5.82479">
        <ele>1231</ele>
        <time>2012-05-19T08:03:34.000Z</time>
      </trkpt>
      <trkpt lat="45.36361" lon="5.82472">
        <ele>1233.8000488281</ele>
        <time>2012-05-19T08:03:38.000Z</time>
      </trkpt>
      <trkpt lat="45.36358" lon="5.82467">
        <ele>1232.4000244141</ele>
        <time>2012-05-19T08:03:40.000Z</time>
      </trkpt>
      <trkpt lat="45.36352" lon="5.82463">
        <ele>1230</ele>
        <time>2012-05-19T08:03:44.000Z</time>
      </trkpt>
      <trkpt lat="45.36348" lon="5.8246">
        <ele>1229.5999755859</ele>
        <time>2012-05-19T08:03:46.000Z</time>
      </trkpt>
      <trkpt lat="45.36346" lon="5.82455">
        <ele>1230</ele>
        <time>2012-05-19T08:03:50.000Z</time>
      </trkpt>
      <trkpt lat="45.36354" lon="5.82457">
        <ele>1233.4000244141</ele>
        <time>2012-05-19T08:03:55.000Z</time>
      </trkpt>
      <trkpt lat="45.36361" lon="5.82459">
        <ele>1235.4000244141</ele>
        <time>2012-05-19T08:03:59.000Z</time>
      </trkpt>
      <trkpt lat="45.36364" lon="5.8246">
        <ele>1236.1999511719</ele>
        <time>2012-05-19T08:04:01.000Z</time>
      </trkpt>
      <trkpt lat="45.3636" lon="5.82458">
        <ele>1236.1999511719</ele>
        <time>2012-05-19T08:04:04.000Z</time>
      </trkpt>
      <trkpt lat="45.36351" lon="5.82449">
        <ele>1237.8000488281</ele>
        <time>2012-05-19T08:04:10.000Z</time>
      </trkpt>
      <trkpt lat="45.3635" lon="5.82448">
        <ele>1238.1999511719</ele>
        <time>2012-05-19T08:04:11.000Z</time>
      </trkpt>
      <trkpt lat="45.3635" lon="5.82444">
        <ele>1240.1999511719</ele>
        <time>2012-05-19T08:04:16.000Z</time>
      </trkpt>
      <trkpt lat="45.36351" lon="5.82444">
        <ele>1240.5999755859</ele>
        <time>2012-05-19T08:04:17.000Z</time>
      </trkpt>
      <trkpt lat="45.36362" lon="5.82447">
        <ele>1243</ele>
        <time>2012-05-19T08:04:22.000Z</time>
      </trkpt>
      <trkpt lat="45.36363" lon="5.82449">
        <ele>1244</ele>
        <time>2012-05-19T08:04:23.000Z</time>
      </trkpt>
      <trkpt lat="45.36371" lon="5.82447">
        <ele>1247.4000244141</ele>
        <time>2012-05-19T08:04:28.000Z</time>
      </trkpt>
      <trkpt lat="45.36379" lon="5.82452">
        <ele>1247.4000244141</ele>
        <time>2012-05-19T08:04:33.000Z</time>
      </trkpt>
      <trkpt lat="45.36383" lon="5.82453">
        <ele>1247.8000488281</ele>
        <time>2012-05-19T08:04:35.000Z</time>
      </trkpt>
      <trkpt lat="45.36389" lon="5.82452">
        <ele>1249.1999511719</ele>
        <time>2012-05-19T08:04:39.000Z</time>
      </trkpt>
      <trkpt lat="45.36392" lon="5.8245">
        <ele>1251.5999755859</ele>
        <time>2012-05-19T08:04:41.000Z</time>
      </trkpt>
      <trkpt lat="45.36398" lon="5.82442">
        <ele>1254</ele>
        <time>2012-05-19T08:04:45.000Z</time>
      </trkpt>
      <trkpt lat="45.36401" lon="5.82441">
        <ele>1253.1999511719</ele>
        <time>2012-05-19T08:04:46.000Z</time>
      </trkpt>
      <trkpt lat="45.3641" lon="5.82443">
        <ele>1253.1999511719</ele>
        <time>2012-05-19T08:04:51.000Z</time>
      </trkpt>
      <trkpt lat="45.36413" lon="5.82444">
        <ele>1253.5999755859</ele>
        <time>2012-05-19T08:04:52.000Z</time>
      </trkpt>
      <trkpt lat="45.36422" lon="5.8245">
        <ele>1255.5999755859</ele>
        <time>2012-05-19T08:04:58.000Z</time>
      </trkpt>
      <trkpt lat="45.36423" lon="5.8245">
        <ele>1256.4000244141</ele>
        <time>2012-05-19T08:04:59.000Z</time>
      </trkpt>
      <trkpt lat="45.36435" lon="5.82446">
        <ele>1258.8000488281</ele>
        <time>2012-05-19T08:05:06.000Z</time>
      </trkpt>
      <trkpt lat="45.36437" lon="5.82444">
        <ele>1261.8000488281</ele>
        <time>2012-05-19T08:05:10.000Z</time>
      </trkpt>
      <trkpt lat="45.36437" lon="5.82442">
        <ele>1261.8000488281</ele>
        <time>2012-05-19T08:05:11.000Z</time>
      </trkpt>
      <trkpt lat="45.36431" lon="5.82435">
        <ele>1258.8000488281</ele>
        <time>2012-05-19T08:05:17.000Z</time>
      </trkpt>
      <trkpt lat="45.36424" lon="5.82427">
        <ele>1259.8000488281</ele>
        <time>2012-05-19T08:05:23.000Z</time>
      </trkpt>
      <trkpt lat="45.36421" lon="5.82421">
        <ele>1258.8000488281</ele>
        <time>2012-05-19T08:05:26.000Z</time>
      </trkpt>
      <trkpt lat="45.36413" lon="5.82414">
        <ele>1258.8000488281</ele>
        <time>2012-05-19T08:05:32.000Z</time>
      </trkpt>
      <trkpt lat="45.36408" lon="5.82412">
        <ele>1258.4000244141</ele>
        <time>2012-05-19T08:05:34.000Z</time>
      </trkpt>
      <trkpt lat="45.364" lon="5.82409">
        <ele>1259.4000244141</ele>
        <time>2012-05-19T08:05:40.000Z</time>
      </trkpt>
      <trkpt lat="45.36399" lon="5.82408">
        <ele>1260.4000244141</ele>
        <time>2012-05-19T08:05:41.000Z</time>
      </trkpt>
      <trkpt lat="45.36387" lon="5.82404">
        <ele>1260.8000488281</ele>
        <time>2012-05-19T08:05:48.000Z</time>
      </trkpt>
      <trkpt lat="45.36379" lon="5.82403">
        <ele>1260.4000244141</ele>
        <time>2012-05-19T08:05:52.000Z</time>
      </trkpt>
      <trkpt lat="45.36369" lon="5.82395">
        <ele>1264.1999511719</ele>
        <time>2012-05-19T08:05:58.000Z</time>
      </trkpt>
      <trkpt lat="45.36365" lon="5.82384">
        <ele>1270</ele>
        <time>2012-05-19T08:06:05.000Z</time>
      </trkpt>
      <trkpt lat="45.3637" lon="5.82391">
        <ele>1272.4000244141</ele>
        <time>2012-05-19T08:06:09.000Z</time>
      </trkpt>
      <trkpt lat="45.3638" lon="5.82392">
        <ele>1273.4000244141</ele>
        <time>2012-05-19T08:06:15.000Z</time>
      </trkpt>
      <trkpt lat="45.36387" lon="5.82392">
        <ele>1275.1999511719</ele>
        <time>2012-05-19T08:06:19.000Z</time>
      </trkpt>
      <trkpt lat="45.36395" lon="5.8239">
        <ele>1274.8000488281</ele>
        <time>2012-05-19T08:06:24.000Z</time>
      </trkpt>
      <trkpt lat="45.36396" lon="5.8239">
        <ele>1275.1999511719</ele>
        <time>2012-05-19T08:06:25.000Z</time>
      </trkpt>
      <trkpt lat="45.36405" lon="5.82386">
        <ele>1278.1999511719</ele>
        <time>2012-05-19T08:06:30.000Z</time>
      </trkpt>
      <trkpt lat="45.36416" lon="5.82381">
        <ele>1277.5999755859</ele>
        <time>2012-05-19T08:06:35.000Z</time>
      </trkpt>
      <trkpt lat="45.36423" lon="5.82383">
        <ele>1279</ele>
        <time>2012-05-19T08:06:39.000Z</time>
      </trkpt>
      <trkpt lat="45.36431" lon="5.82386">
        <ele>1277.5999755859</ele>
        <time>2012-05-19T08:06:45.000Z</time>
      </trkpt>
      <trkpt lat="45.36433" lon="5.82384">
        <ele>1276.5999755859</ele>
        <time>2012-05-19T08:06:47.000Z</time>
      </trkpt>
      <trkpt lat="45.3643" lon="5.82375">
        <ele>1275.8000488281</ele>
        <time>2012-05-19T08:06:52.000Z</time>
      </trkpt>
      <trkpt lat="45.36424" lon="5.82369">
        <ele>1276.5999755859</ele>
        <time>2012-05-19T08:06:56.000Z</time>
      </trkpt>
      <trkpt lat="45.36416" lon="5.82367">
        <ele>1281</ele>
        <time>2012-05-19T08:07:02.000Z</time>
      </trkpt>
      <trkpt lat="45.36408" lon="5.82368">
        <ele>1282</ele>
        <time>2012-05-19T08:07:06.000Z</time>
      </trkpt>
      <trkpt lat="45.36402" lon="5.82367">
        <ele>1282</ele>
        <time>2012-05-19T08:07:09.000Z</time>
      </trkpt>
      <trkpt lat="45.36396" lon="5.82365">
        <ele>1281.4000244141</ele>
        <time>2012-05-19T08:07:13.000Z</time>
      </trkpt>
      <trkpt lat="45.36391" lon="5.82359">
        <ele>1282.4000244141</ele>
        <time>2012-05-19T08:07:17.000Z</time>
      </trkpt>
      <trkpt lat="45.36384" lon="5.82347">
        <ele>1284.4000244141</ele>
        <time>2012-05-19T08:07:23.000Z</time>
      </trkpt>
      <trkpt lat="45.36386" lon="5.82347">
        <ele>1287.8000488281</ele>
        <time>2012-05-19T08:07:27.000Z</time>
      </trkpt>
      <trkpt lat="45.36391" lon="5.82353">
        <ele>1287.8000488281</ele>
        <time>2012-05-19T08:07:32.000Z</time>
      </trkpt>
      <trkpt lat="45.36397" lon="5.82353">
        <ele>1287.8000488281</ele>
        <time>2012-05-19T08:07:36.000Z</time>
      </trkpt>
      <trkpt lat="45.36405" lon="5.82347">
        <ele>1289.1999511719</ele>
        <time>2012-05-19T08:07:41.000Z</time>
      </trkpt>
      <trkpt lat="45.36411" lon="5.82345">
        <ele>1290.5999755859</ele>
        <time>2012-05-19T08:07:45.000Z</time>
      </trkpt>
      <trkpt lat="45.36412" lon="5.82344">
        <ele>1290.5999755859</ele>
        <time>2012-05-19T08:07:46.000Z</time>
      </trkpt>
      <trkpt lat="45.36419" lon="5.82338">
        <ele>1292</ele>
        <time>2012-05-19T08:07:50.000Z</time>
      </trkpt>
      <trkpt lat="45.36426" lon="5.82334">
        <ele>1293.4000244141</ele>
        <time>2012-05-19T08:07:54.000Z</time>
      </trkpt>
      <trkpt lat="45.36437" lon="5.82339">
        <ele>1300.1999511719</ele>
        <time>2012-05-19T08:08:00.000Z</time>
      </trkpt>
      <trkpt lat="45.36438" lon="5.82344">
        <ele>1302.5999755859</ele>
        <time>2012-05-19T08:08:02.000Z</time>
      </trkpt>
      <trkpt lat="45.36449" lon="5.82345">
        <ele>1301.1999511719</ele>
        <time>2012-05-19T08:08:07.000Z</time>
      </trkpt>
      <trkpt lat="45.36452" lon="5.82344">
        <ele>1299.8000488281</ele>
        <time>2012-05-19T08:08:09.000Z</time>
      </trkpt>
      <trkpt lat="45.3646" lon="5.82338">
        <ele>1299.8000488281</ele>
        <time>2012-05-19T08:08:14.000Z</time>
      </trkpt>
      <trkpt lat="45.36467" lon="5.82331">
        <ele>1300.1999511719</ele>
        <time>2012-05-19T08:08:19.000Z</time>
      </trkpt>
      <trkpt lat="45.36472" lon="5.82323">
        <ele>1300.1999511719</ele>
        <time>2012-05-19T08:08:24.000Z</time>
      </trkpt>
      <trkpt lat="45.36479" lon="5.82311">
        <ele>1301.5999755859</ele>
        <time>2012-05-19T08:08:29.000Z</time>
      </trkpt>
      <trkpt lat="45.36487" lon="5.82298">
        <ele>1305.5999755859</ele>
        <time>2012-05-19T08:08:36.000Z</time>
      </trkpt>
      <trkpt lat="45.36494" lon="5.82294">
        <ele>1306.4000244141</ele>
        <time>2012-05-19T08:08:41.000Z</time>
      </trkpt>
      <trkpt lat="45.36499" lon="5.8229">
        <ele>1308.8000488281</ele>
        <time>2012-05-19T08:08:44.000Z</time>
      </trkpt>
      <trkpt lat="45.36507" lon="5.82286">
        <ele>1312.1999511719</ele>
        <time>2012-05-19T08:08:50.000Z</time>
      </trkpt>
      <trkpt lat="45.36513" lon="5.82287">
        <ele>1312.8000488281</ele>
        <time>2012-05-19T08:08:54.000Z</time>
      </trkpt>
      <trkpt lat="45.36518" lon="5.82285">
        <ele>1314.1999511719</ele>
        <time>2012-05-19T08:08:58.000Z</time>
      </trkpt>
      <trkpt lat="45.36526" lon="5.82284">
        <ele>1315.5999755859</ele>
        <time>2012-05-19T08:09:02.000Z</time>
      </trkpt>
      <trkpt lat="45.3653" lon="5.82291">
        <ele>1324.1999511719</ele>
        <time>2012-05-19T08:09:08.000Z</time>
      </trkpt>
      <trkpt lat="45.36538" lon="5.82288">
        <ele>1325.5999755859</ele>
        <time>2012-05-19T08:09:12.000Z</time>
      </trkpt>
      <trkpt lat="45.36548" lon="5.82283">
        <ele>1325.1999511719</ele>
        <time>2012-05-19T08:09:16.000Z</time>
      </trkpt>
      <trkpt lat="45.36555" lon="5.82278">
        <ele>1325.1999511719</ele>
        <time>2012-05-19T08:09:20.000Z</time>
      </trkpt>
      <trkpt lat="45.3656" lon="5.82272">
        <ele>1324.8000488281</ele>
        <time>2012-05-19T08:09:24.000Z</time>
      </trkpt>
      <trkpt lat="45.36564" lon="5.82262">
        <ele>1321.4000244141</ele>
        <time>2012-05-19T08:09:28.000Z</time>
      </trkpt>
      <trkpt lat="45.36571" lon="5.82256">
        <ele>1321.8000488281</ele>
        <time>2012-05-19T08:09:33.000Z</time>
      </trkpt>
      <trkpt lat="45.36582" lon="5.82251">
        <ele>1323.1999511719</ele>
        <time>2012-05-19T08:09:38.000Z</time>
      </trkpt>
      <trkpt lat="45.36591" lon="5.82249">
        <ele>1325.5999755859</ele>
        <time>2012-05-19T08:09:43.000Z</time>
      </trkpt>
      <trkpt lat="45.36594" lon="5.82247">
        <ele>1325.5999755859</ele>
        <time>2012-05-19T08:09:44.000Z</time>
      </trkpt>
      <trkpt lat="45.36596" lon="5.82248">
        <ele>1325.5999755859</ele>
        <time>2012-05-19T08:09:46.000Z</time>
      </trkpt>
      <trkpt lat="45.36604" lon="5.82255">
        <ele>1324.1999511719</ele>
        <time>2012-05-19T08:09:50.000Z</time>
      </trkpt>
      <trkpt lat="45.36607" lon="5.82258">
        <ele>1324.1999511719</ele>
        <time>2012-05-19T08:09:54.000Z</time>
      </trkpt>
      <trkpt lat="45.36609" lon="5.82268">
        <ele>1323.1999511719</ele>
        <time>2012-05-19T08:10:00.000Z</time>
      </trkpt>
      <trkpt lat="45.3661" lon="5.82275">
        <ele>1326.5999755859</ele>
        <time>2012-05-19T08:10:04.000Z</time>
      </trkpt>
      <trkpt lat="45.36614" lon="5.82282">
        <ele>1330</ele>
        <time>2012-05-19T08:10:08.000Z</time>
      </trkpt>
      <trkpt lat="45.36616" lon="5.82294">
        <ele>1335.4000244141</ele>
        <time>2012-05-19T08:10:13.000Z</time>
      </trkpt>
      <trkpt lat="45.36619" lon="5.82305">
        <ele>1338.5999755859</ele>
        <time>2012-05-19T08:10:17.000Z</time>
      </trkpt>
      <trkpt lat="45.36621" lon="5.82311">
        <ele>1340.5999755859</ele>
        <time>2012-05-19T08:10:20.000Z</time>
      </trkpt>
      <trkpt lat="45.3662" lon="5.82326">
        <ele>1339.1999511719</ele>
        <time>2012-05-19T08:10:26.000Z</time>
      </trkpt>
      <trkpt lat="45.36619" lon="5.82328">
        <ele>1338.5999755859</ele>
        <time>2012-05-19T08:10:27.000Z</time>
      </trkpt>
      <trkpt lat="45.36621" lon="5.82338">
        <ele>1339.1999511719</ele>
        <time>2012-05-19T08:10:32.000Z</time>
      </trkpt>
      <trkpt lat="45.36624" lon="5.82343">
        <ele>1339.5999755859</ele>
        <time>2012-05-19T08:10:34.000Z</time>
      </trkpt>
      <trkpt lat="45.36627" lon="5.82359">
        <ele>1344</ele>
        <time>2012-05-19T08:10:40.000Z</time>
      </trkpt>
      <trkpt lat="45.3663" lon="5.82371">
        <ele>1343</ele>
        <time>2012-05-19T08:10:44.000Z</time>
      </trkpt>
      <trkpt lat="45.36633" lon="5.82384">
        <ele>1350.5999755859</ele>
        <time>2012-05-19T08:10:49.000Z</time>
      </trkpt>
      <trkpt lat="45.36634" lon="5.82387">
        <ele>1352.1999511719</ele>
        <time>2012-05-19T08:10:50.000Z</time>
      </trkpt>
      <trkpt lat="45.36634" lon="5.82393">
        <ele>1354.5999755859</ele>
        <time>2012-05-19T08:10:53.000Z</time>
      </trkpt>
      <trkpt lat="45.3664" lon="5.82398">
        <ele>1349.1999511719</ele>
        <time>2012-05-19T08:10:58.000Z</time>
      </trkpt>
      <trkpt lat="45.36639" lon="5.82395">
        <ele>1348.1999511719</ele>
        <time>2012-05-19T08:11:00.000Z</time>
      </trkpt>
      <trkpt lat="45.36639" lon="5.82391">
        <ele>1347.4000244141</ele>
        <time>2012-05-19T08:11:02.000Z</time>
      </trkpt>
      <trkpt lat="45.36638" lon="5.82375">
        <ele>1346.8000488281</ele>
        <time>2012-05-19T08:11:08.000Z</time>
      </trkpt>
      <trkpt lat="45.36641" lon="5.82366">
        <ele>1342.5999755859</ele>
        <time>2012-05-19T08:11:12.000Z</time>
      </trkpt>
      <trkpt lat="45.36641" lon="5.82354">
        <ele>1342.5999755859</ele>
        <time>2012-05-19T08:11:17.000Z</time>
      </trkpt>
      <trkpt lat="45.36643" lon="5.82343">
        <ele>1341.5999755859</ele>
        <time>2012-05-19T08:11:22.000Z</time>
      </trkpt>
      <trkpt lat="45.36643" lon="5.82337">
        <ele>1339.5999755859</ele>
        <time>2012-05-19T08:11:24.000Z</time>
      </trkpt>
      <trkpt lat="45.36647" lon="5.82323">
        <ele>1342.5999755859</ele>
        <time>2012-05-19T08:11:30.000Z</time>
      </trkpt>
      <trkpt lat="45.3665" lon="5.82306">
        <ele>1345.8000488281</ele>
        <time>2012-05-19T08:11:37.000Z</time>
      </trkpt>
      <trkpt lat="45.36653" lon="5.82297">
        <ele>1348.8000488281</ele>
        <time>2012-05-19T08:11:42.000Z</time>
      </trkpt>
      <trkpt lat="45.36652" lon="5.8229">
        <ele>1348.8000488281</ele>
        <time>2012-05-19T08:11:46.000Z</time>
      </trkpt>
      <trkpt lat="45.36651" lon="5.82281">
        <ele>1350.5999755859</ele>
        <time>2012-05-19T08:11:51.000Z</time>
      </trkpt>
      <trkpt lat="45.3665" lon="5.82278">
        <ele>1353.5999755859</ele>
        <time>2012-05-19T08:11:54.000Z</time>
      </trkpt>
      <trkpt lat="45.36655" lon="5.8227">
        <ele>1354.5999755859</ele>
        <time>2012-05-19T08:11:58.000Z</time>
      </trkpt>
      <trkpt lat="45.3666" lon="5.82257">
        <ele>1358.8000488281</ele>
        <time>2012-05-19T08:12:03.000Z</time>
      </trkpt>
      <trkpt lat="45.36664" lon="5.8225">
        <ele>1360.4000244141</ele>
        <time>2012-05-19T08:12:08.000Z</time>
      </trkpt>
      <trkpt lat="45.36665" lon="5.82243">
        <ele>1359.8000488281</ele>
        <time>2012-05-19T08:12:12.000Z</time>
      </trkpt>
      <trkpt lat="45.36662" lon="5.82236">
        <ele>1360.8000488281</ele>
        <time>2012-05-19T08:12:15.000Z</time>
      </trkpt>
      <trkpt lat="45.36661" lon="5.82229">
        <ele>1361.8000488281</ele>
        <time>2012-05-19T08:12:20.000Z</time>
      </trkpt>
      <trkpt lat="45.36661" lon="5.82212">
        <ele>1362.8000488281</ele>
        <time>2012-05-19T08:12:26.000Z</time>
      </trkpt>
      <trkpt lat="45.36662" lon="5.82209">
        <ele>1360.4000244141</ele>
        <time>2012-05-19T08:12:28.000Z</time>
      </trkpt>
      <trkpt lat="45.36664" lon="5.82217">
        <ele>1359.4000244141</ele>
        <time>2012-05-19T08:12:34.000Z</time>
      </trkpt>
      <trkpt lat="45.36667" lon="5.82227">
        <ele>1369.4000244141</ele>
        <time>2012-05-19T08:12:42.000Z</time>
      </trkpt>
      <trkpt lat="45.36674" lon="5.82231">
        <ele>1382.4000244141</ele>
        <time>2012-05-19T08:12:48.000Z</time>
      </trkpt>
      <trkpt lat="45.36675" lon="5.8223">
        <ele>1390.1999511719</ele>
        <time>2012-05-19T08:12:53.000Z</time>
      </trkpt>
      <trkpt lat="45.36675" lon="5.82229">
        <ele>1389.5999755859</ele>
        <time>2012-05-19T08:12:54.000Z</time>
      </trkpt>
      <trkpt lat="45.36674" lon="5.82214">
        <ele>1383.8000488281</ele>
        <time>2012-05-19T08:13:00.000Z</time>
      </trkpt>
      <trkpt lat="45.36673" lon="5.82208">
        <ele>1385.8000488281</ele>
        <time>2012-05-19T08:13:03.000Z</time>
      </trkpt>
      <trkpt lat="45.36675" lon="5.82198">
        <ele>1378</ele>
        <time>2012-05-19T08:13:09.000Z</time>
      </trkpt>
      <trkpt lat="45.36676" lon="5.82196">
        <ele>1377.1999511719</ele>
        <time>2012-05-19T08:13:10.000Z</time>
      </trkpt>
      <trkpt lat="45.3668" lon="5.82186">
        <ele>1377.1999511719</ele>
        <time>2012-05-19T08:13:16.000Z</time>
      </trkpt>
      <trkpt lat="45.3668" lon="5.82184">
        <ele>1377.5999755859</ele>
        <time>2012-05-19T08:13:17.000Z</time>
      </trkpt>
      <trkpt lat="45.3668" lon="5.82177">
        <ele>1383.4000244141</ele>
        <time>2012-05-19T08:13:23.000Z</time>
      </trkpt>
      <trkpt lat="45.36683" lon="5.82173">
        <ele>1385.1999511719</ele>
        <time>2012-05-19T08:13:26.000Z</time>
      </trkpt>
      <trkpt lat="45.36683" lon="5.82177">
        <ele>1385.8000488281</ele>
        <time>2012-05-19T08:13:28.000Z</time>
      </trkpt>
      <trkpt lat="45.36686" lon="5.82189">
        <ele>1387.8000488281</ele>
        <time>2012-05-19T08:13:33.000Z</time>
      </trkpt>
      <trkpt lat="45.3669" lon="5.82196">
        <ele>1391</ele>
        <time>2012-05-19T08:13:37.000Z</time>
      </trkpt>
      <trkpt lat="45.36694" lon="5.82198">
        <ele>1391</ele>
        <time>2012-05-19T08:13:39.000Z</time>
      </trkpt>
      <trkpt lat="45.36695" lon="5.82203">
        <ele>1392</ele>
        <time>2012-05-19T08:13:42.000Z</time>
      </trkpt>
      <trkpt lat="45.367" lon="5.8221">
        <ele>1393</ele>
        <time>2012-05-19T08:13:47.000Z</time>
      </trkpt>
      <trkpt lat="45.3671" lon="5.82222">
        <ele>1397.8000488281</ele>
        <time>2012-05-19T08:13:54.000Z</time>
      </trkpt>
      <trkpt lat="45.3671" lon="5.82233">
        <ele>1402.1999511719</ele>
        <time>2012-05-19T08:13:59.000Z</time>
      </trkpt>
      <trkpt lat="45.36709" lon="5.82241">
        <ele>1404</ele>
        <time>2012-05-19T08:14:04.000Z</time>
      </trkpt>
      <trkpt lat="45.36704" lon="5.82248">
        <ele>1407.8000488281</ele>
        <time>2012-05-19T08:14:09.000Z</time>
      </trkpt>
      <trkpt lat="45.36704" lon="5.82255">
        <ele>1407</ele>
        <time>2012-05-19T08:14:13.000Z</time>
      </trkpt>
      <trkpt lat="45.36708" lon="5.82267">
        <ele>1409.8000488281</ele>
        <time>2012-05-19T08:14:18.000Z</time>
      </trkpt>
      <trkpt lat="45.36707" lon="5.82279">
        <ele>1413.5999755859</ele>
        <time>2012-05-19T08:14:23.000Z</time>
      </trkpt>
      <trkpt lat="45.36707" lon="5.82282">
        <ele>1414.1999511719</ele>
        <time>2012-05-19T08:14:24.000Z</time>
      </trkpt>
      <trkpt lat="45.36712" lon="5.82303">
        <ele>1420</ele>
        <time>2012-05-19T08:14:32.000Z</time>
      </trkpt>
      <trkpt lat="45.36712" lon="5.82311">
        <ele>1421.8000488281</ele>
        <time>2012-05-19T08:14:36.000Z</time>
      </trkpt>
      <trkpt lat="45.36715" lon="5.82314">
        <ele>1420.8000488281</ele>
        <time>2012-05-19T08:14:39.000Z</time>
      </trkpt>
      <trkpt lat="45.36713" lon="5.82303">
        <ele>1416.5999755859</ele>
        <time>2012-05-19T08:14:44.000Z</time>
      </trkpt>
      <trkpt lat="45.36714" lon="5.82289">
        <ele>1412.1999511719</ele>
        <time>2012-05-19T08:14:50.000Z</time>
      </trkpt>
      <trkpt lat="45.36716" lon="5.82275">
        <ele>1412.1999511719</ele>
        <time>2012-05-19T08:14:56.000Z</time>
      </trkpt>
      <trkpt lat="45.36717" lon="5.82268">
        <ele>1416</ele>
        <time>2012-05-19T08:14:59.000Z</time>
      </trkpt>
      <trkpt lat="45.36721" lon="5.82256">
        <ele>1417.5999755859</ele>
        <time>2012-05-19T08:15:06.000Z</time>
      </trkpt>
      <trkpt lat="45.36723" lon="5.82249">
        <ele>1425.5999755859</ele>
        <time>2012-05-19T08:15:10.000Z</time>
      </trkpt>
      <trkpt lat="45.3673" lon="5.82237">
        <ele>1435.8000488281</ele>
        <time>2012-05-19T08:15:16.000Z</time>
      </trkpt>
      <trkpt lat="45.36736" lon="5.82231">
        <ele>1437.5999755859</ele>
        <time>2012-05-19T08:15:20.000Z</time>
      </trkpt>
      <trkpt lat="45.36744" lon="5.82225">
        <ele>1438.5999755859</ele>
        <time>2012-05-19T08:15:26.000Z</time>
      </trkpt>
      <trkpt lat="45.36744" lon="5.82222">
        <ele>1436.8000488281</ele>
        <time>2012-05-19T08:15:35.000Z</time>
      </trkpt>
      <trkpt lat="45.36742" lon="5.82218">
        <ele>1436.1999511719</ele>
        <time>2012-05-19T08:15:37.000Z</time>
      </trkpt>
      <trkpt lat="45.36736" lon="5.82199">
        <ele>1443.4000244141</ele>
        <time>2012-05-19T08:15:44.000Z</time>
      </trkpt>
      <trkpt lat="45.36738" lon="5.82188">
        <ele>1438.1999511719</ele>
        <time>2012-05-19T08:15:49.000Z</time>
      </trkpt>
      <trkpt lat="45.36739" lon="5.82185">
        <ele>1436.1999511719</ele>
        <time>2012-05-19T08:15:53.000Z</time>
      </trkpt>
      <trkpt lat="45.36738" lon="5.82171">
        <ele>1431</ele>
        <time>2012-05-19T08:15:58.000Z</time>
      </trkpt>
      <trkpt lat="45.36736" lon="5.82157">
        <ele>1431</ele>
        <time>2012-05-19T08:16:03.000Z</time>
      </trkpt>
      <trkpt lat="45.36738" lon="5.82146">
        <ele>1428</ele>
        <time>2012-05-19T08:16:07.000Z</time>
      </trkpt>
      <trkpt lat="45.3674" lon="5.8214">
        <ele>1428</ele>
        <time>2012-05-19T08:16:10.000Z</time>
      </trkpt>
      <trkpt lat="45.36743" lon="5.82131">
        <ele>1427.1999511719</ele>
        <time>2012-05-19T08:16:14.000Z</time>
      </trkpt>
      <trkpt lat="45.36744" lon="5.82128">
        <ele>1425.5999755859</ele>
        <time>2012-05-19T08:16:16.000Z</time>
      </trkpt>
      <trkpt lat="45.36747" lon="5.82127">
        <ele>1428.5999755859</ele>
        <time>2012-05-19T08:16:22.000Z</time>
      </trkpt>
      <trkpt lat="45.36749" lon="5.8213">
        <ele>1431.4000244141</ele>
        <time>2012-05-19T08:16:24.000Z</time>
      </trkpt>
      <trkpt lat="45.3675" lon="5.82145">
        <ele>1433.8000488281</ele>
        <time>2012-05-19T08:16:30.000Z</time>
      </trkpt>
      <trkpt lat="45.3675" lon="5.82151">
        <ele>1435.1999511719</ele>
        <time>2012-05-19T08:16:32.000Z</time>
      </trkpt>
      <trkpt lat="45.36752" lon="5.82154">
        <ele>1436.1999511719</ele>
        <time>2012-05-19T08:16:34.000Z</time>
      </trkpt>
      <trkpt lat="45.36753" lon="5.8216">
        <ele>1434.8000488281</ele>
        <time>2012-05-19T08:16:39.000Z</time>
      </trkpt>
      <trkpt lat="45.36756" lon="5.82165">
        <ele>1436.8000488281</ele>
        <time>2012-05-19T08:16:42.000Z</time>
      </trkpt>
      <trkpt lat="45.36759" lon="5.82173">
        <ele>1440</ele>
        <time>2012-05-19T08:16:46.000Z</time>
      </trkpt>
      <trkpt lat="45.36762" lon="5.82175">
        <ele>1441.5999755859</ele>
        <time>2012-05-19T08:16:48.000Z</time>
      </trkpt>
      <trkpt lat="45.36767" lon="5.82184">
        <ele>1445.8000488281</ele>
        <time>2012-05-19T08:16:54.000Z</time>
      </trkpt>
      <trkpt lat="45.36768" lon="5.8219">
        <ele>1450.1999511719</ele>
        <time>2012-05-19T08:16:58.000Z</time>
      </trkpt>
      <trkpt lat="45.3678" lon="5.82196">
        <ele>1453</ele>
        <time>2012-05-19T08:17:04.000Z</time>
      </trkpt>
      <trkpt lat="45.3679" lon="5.82204">
        <ele>1460.8000488281</ele>
        <time>2012-05-19T08:17:09.000Z</time>
      </trkpt>
      <trkpt lat="45.36792" lon="5.82206">
        <ele>1460.8000488281</ele>
        <time>2012-05-19T08:17:10.000Z</time>
      </trkpt>
      <trkpt lat="45.36796" lon="5.82223">
        <ele>1464.5999755859</ele>
        <time>2012-05-19T08:17:16.000Z</time>
      </trkpt>
      <trkpt lat="45.36794" lon="5.82234">
        <ele>1464.1999511719</ele>
        <time>2012-05-19T08:17:20.000Z</time>
      </trkpt>
      <trkpt lat="45.36796" lon="5.8224">
        <ele>1461.1999511719</ele>
        <time>2012-05-19T08:17:26.000Z</time>
      </trkpt>
      <trkpt lat="45.36793" lon="5.82241">
        <ele>1462.1999511719</ele>
        <time>2012-05-19T08:17:29.000Z</time>
      </trkpt>
      <trkpt lat="45.36788" lon="5.8225">
        <ele>1460.8000488281</ele>
        <time>2012-05-19T08:17:33.000Z</time>
      </trkpt>
      <trkpt lat="45.36787" lon="5.82258">
        <ele>1459.8000488281</ele>
        <time>2012-05-19T08:17:37.000Z</time>
      </trkpt>
      <trkpt lat="45.36783" lon="5.82265">
        <ele>1464.5999755859</ele>
        <time>2012-05-19T08:17:43.000Z</time>
      </trkpt>
      <trkpt lat="45.36782" lon="5.82269">
        <ele>1469.4000244141</ele>
        <time>2012-05-19T08:17:47.000Z</time>
      </trkpt>
      <trkpt lat="45.36779" lon="5.82279">
        <ele>1471.4000244141</ele>
        <time>2012-05-19T08:17:52.000Z</time>
      </trkpt>
      <trkpt lat="45.36779" lon="5.82282">
        <ele>1469.4000244141</ele>
        <time>2012-05-19T08:17:56.000Z</time>
      </trkpt>
      <trkpt lat="45.36779" lon="5.82291">
        <ele>1463.5999755859</ele>
        <time>2012-05-19T08:18:01.000Z</time>
      </trkpt>
      <trkpt lat="45.36781" lon="5.82294">
        <ele>1466.5999755859</ele>
        <time>2012-05-19T08:18:07.000Z</time>
      </trkpt>
      <trkpt lat="45.36787" lon="5.82287">
        <ele>1465</ele>
        <time>2012-05-19T08:18:13.000Z</time>
      </trkpt>
      <trkpt lat="45.3679" lon="5.82284">
        <ele>1467</ele>
        <time>2012-05-19T08:18:15.000Z</time>
      </trkpt>
      <trkpt lat="45.368" lon="5.82276">
        <ele>1471.8000488281</ele>
        <time>2012-05-19T08:18:22.000Z</time>
      </trkpt>
      <trkpt lat="45.3681" lon="5.82267">
        <ele>1474.1999511719</ele>
        <time>2012-05-19T08:18:28.000Z</time>
      </trkpt>
      <trkpt lat="45.36815" lon="5.8226">
        <ele>1482.4000244141</ele>
        <time>2012-05-19T08:18:33.000Z</time>
      </trkpt>
      <trkpt lat="45.36819" lon="5.82274">
        <ele>1482.8000488281</ele>
        <time>2012-05-19T08:18:45.000Z</time>
      </trkpt>
      <trkpt lat="45.36817" lon="5.82279">
        <ele>1483.4000244141</ele>
        <time>2012-05-19T08:18:50.000Z</time>
      </trkpt>
      <trkpt lat="45.36807" lon="5.82292">
        <ele>1486.8000488281</ele>
        <time>2012-05-19T08:18:57.000Z</time>
      </trkpt>
      <trkpt lat="45.36805" lon="5.82296">
        <ele>1487.5999755859</ele>
        <time>2012-05-19T08:19:01.000Z</time>
      </trkpt>
      <trkpt lat="45.36804" lon="5.82298">
        <ele>1488.1999511719</ele>
        <time>2012-05-19T08:19:02.000Z</time>
      </trkpt>
      <trkpt lat="45.36805" lon="5.82305">
        <ele>1486.8000488281</ele>
        <time>2012-05-19T08:19:07.000Z</time>
      </trkpt>
      <trkpt lat="45.36806" lon="5.82304">
        <ele>1486.1999511719</ele>
        <time>2012-05-19T08:19:08.000Z</time>
      </trkpt>
      <trkpt lat="45.36815" lon="5.82297">
        <ele>1485.1999511719</ele>
        <time>2012-05-19T08:19:13.000Z</time>
      </trkpt>
      <trkpt lat="45.36816" lon="5.82295">
        <ele>1485.1999511719</ele>
        <time>2012-05-19T08:19:14.000Z</time>
      </trkpt>
      <trkpt lat="45.36825" lon="5.82291">
        <ele>1483.8000488281</ele>
        <time>2012-05-19T08:19:21.000Z</time>
      </trkpt>
      <trkpt lat="45.36825" lon="5.8229">
        <ele>1483.8000488281</ele>
        <time>2012-05-19T08:19:22.000Z</time>
      </trkpt>
      <trkpt lat="45.36833" lon="5.82282">
        <ele>1485.8000488281</ele>
        <time>2012-05-19T08:19:28.000Z</time>
      </trkpt>
      <trkpt lat="45.36835" lon="5.82279">
        <ele>1491.5999755859</ele>
        <time>2012-05-19T08:19:34.000Z</time>
      </trkpt>
      <trkpt lat="45.36834" lon="5.82282">
        <ele>1494.8000488281</ele>
        <time>2012-05-19T08:19:37.000Z</time>
      </trkpt>
      <trkpt lat="45.36834" lon="5.82291">
        <ele>1496.4000244141</ele>
        <time>2012-05-19T08:19:42.000Z</time>
      </trkpt>
      <trkpt lat="45.36833" lon="5.82293">
        <ele>1498.1999511719</ele>
        <time>2012-05-19T08:19:43.000Z</time>
      </trkpt>
      <trkpt lat="45.36831" lon="5.82304">
        <ele>1503</ele>
        <time>2012-05-19T08:19:47.000Z</time>
      </trkpt>
      <trkpt lat="45.36829" lon="5.8231">
        <ele>1504</ele>
        <time>2012-05-19T08:19:52.000Z</time>
      </trkpt>
      <trkpt lat="45.36824" lon="5.82323">
        <ele>1505.4000244141</ele>
        <time>2012-05-19T08:19:57.000Z</time>
      </trkpt>
      <trkpt lat="45.36824" lon="5.82324">
        <ele>1505.4000244141</ele>
        <time>2012-05-19T08:19:58.000Z</time>
      </trkpt>
      <trkpt lat="45.36824" lon="5.82334">
        <ele>1502</ele>
        <time>2012-05-19T08:20:03.000Z</time>
      </trkpt>
      <trkpt lat="45.36824" lon="5.82335">
        <ele>1501.1999511719</ele>
        <time>2012-05-19T08:20:04.000Z</time>
      </trkpt>
      <trkpt lat="45.36827" lon="5.82339">
        <ele>1499.5999755859</ele>
        <time>2012-05-19T08:20:07.000Z</time>
      </trkpt>
      <trkpt lat="45.36828" lon="5.8235">
        <ele>1499.1999511719</ele>
        <time>2012-05-19T08:20:12.000Z</time>
      </trkpt>
      <trkpt lat="45.36828" lon="5.82353">
        <ele>1498.8000488281</ele>
        <time>2012-05-19T08:20:13.000Z</time>
      </trkpt>
      <trkpt lat="45.36829" lon="5.82355">
        <ele>1498.8000488281</ele>
        <time>2012-05-19T08:20:15.000Z</time>
      </trkpt>
      <trkpt lat="45.36838" lon="5.8236">
        <ele>1498.1999511719</ele>
        <time>2012-05-19T08:20:20.000Z</time>
      </trkpt>
      <trkpt lat="45.36839" lon="5.82361">
        <ele>1498.1999511719</ele>
        <time>2012-05-19T08:20:22.000Z</time>
      </trkpt>
      <trkpt lat="45.36842" lon="5.82364">
        <ele>1498.8000488281</ele>
        <time>2012-05-19T08:20:25.000Z</time>
      </trkpt>
      <trkpt lat="45.36846" lon="5.8237">
        <ele>1503</ele>
        <time>2012-05-19T08:20:32.000Z</time>
      </trkpt>
      <trkpt lat="45.36846" lon="5.82369">
        <ele>1502.5999755859</ele>
        <time>2012-05-19T08:20:33.000Z</time>
      </trkpt>
      <trkpt lat="45.36845" lon="5.82362">
        <ele>1500.5999755859</ele>
        <time>2012-05-19T08:20:37.000Z</time>
      </trkpt>
      <trkpt lat="45.36844" lon="5.82355">
        <ele>1500.1999511719</ele>
        <time>2012-05-19T08:20:41.000Z</time>
      </trkpt>
      <trkpt lat="45.36844" lon="5.82352">
        <ele>1500.1999511719</ele>
        <time>2012-05-19T08:20:43.000Z</time>
      </trkpt>
      <trkpt lat="45.36846" lon="5.82345">
        <ele>1501.5999755859</ele>
        <time>2012-05-19T08:20:48.000Z</time>
      </trkpt>
      <trkpt lat="45.36846" lon="5.82339">
        <ele>1503.5999755859</ele>
        <time>2012-05-19T08:20:51.000Z</time>
      </trkpt>
      <trkpt lat="45.36847" lon="5.82334">
        <ele>1504</ele>
        <time>2012-05-19T08:20:53.000Z</time>
      </trkpt>
      <trkpt lat="45.36854" lon="5.82325">
        <ele>1507.8000488281</ele>
        <time>2012-05-19T08:20:59.000Z</time>
      </trkpt>
      <trkpt lat="45.36859" lon="5.82321">
        <ele>1507.4000244141</ele>
        <time>2012-05-19T08:21:03.000Z</time>
      </trkpt>
      <trkpt lat="45.36866" lon="5.82315">
        <ele>1509.8000488281</ele>
        <time>2012-05-19T08:21:07.000Z</time>
      </trkpt>
      <trkpt lat="45.36869" lon="5.82315">
        <ele>1512.1999511719</ele>
        <time>2012-05-19T08:21:09.000Z</time>
      </trkpt>
      <trkpt lat="45.3687" lon="5.82312">
        <ele>1512.5999755859</ele>
        <time>2012-05-19T08:21:11.000Z</time>
      </trkpt>
      <trkpt lat="45.36876" lon="5.82305">
        <ele>1515.5999755859</ele>
        <time>2012-05-19T08:21:15.000Z</time>
      </trkpt>
      <trkpt lat="45.36881" lon="5.82298">
        <ele>1513.5999755859</ele>
        <time>2012-05-19T08:21:19.000Z</time>
      </trkpt>
      <trkpt lat="45.36884" lon="5.82292">
        <ele>1516</ele>
        <time>2012-05-19T08:21:24.000Z</time>
      </trkpt>
      <trkpt lat="45.36892" lon="5.82275">
        <ele>1520.8000488281</ele>
        <time>2012-05-19T08:21:30.000Z</time>
      </trkpt>
      <trkpt lat="45.36896" lon="5.82277">
        <ele>1520.4000244141</ele>
        <time>2012-05-19T08:21:34.000Z</time>
      </trkpt>
      <trkpt lat="45.36897" lon="5.82279">
        <ele>1523.1999511719</ele>
        <time>2012-05-19T08:21:37.000Z</time>
      </trkpt>
      <trkpt lat="45.36896" lon="5.8229">
        <ele>1525.1999511719</ele>
        <time>2012-05-19T08:21:42.000Z</time>
      </trkpt>
      <trkpt lat="45.36897" lon="5.82296">
        <ele>1529</ele>
        <time>2012-05-19T08:21:45.000Z</time>
      </trkpt>
      <trkpt lat="45.36898" lon="5.82311">
        <ele>1531.4000244141</ele>
        <time>2012-05-19T08:21:51.000Z</time>
      </trkpt>
      <trkpt lat="45.36898" lon="5.82315">
        <ele>1529</ele>
        <time>2012-05-19T08:21:53.000Z</time>
      </trkpt>
      <trkpt lat="45.36894" lon="5.82328">
        <ele>1530</ele>
        <time>2012-05-19T08:21:58.000Z</time>
      </trkpt>
      <trkpt lat="45.36887" lon="5.82348">
        <ele>1531.4000244141</ele>
        <time>2012-05-19T08:22:03.000Z</time>
      </trkpt>
      <trkpt lat="45.36886" lon="5.82353">
        <ele>1531.8000488281</ele>
        <time>2012-05-19T08:22:04.000Z</time>
      </trkpt>
      <trkpt lat="45.36886" lon="5.82367">
        <ele>1533.4000244141</ele>
        <time>2012-05-19T08:22:09.000Z</time>
      </trkpt>
      <trkpt lat="45.36893" lon="5.82376">
        <ele>1538.1999511719</ele>
        <time>2012-05-19T08:22:15.000Z</time>
      </trkpt>
      <trkpt lat="45.36895" lon="5.82377">
        <ele>1539.1999511719</ele>
        <time>2012-05-19T08:22:16.000Z</time>
      </trkpt>
      <trkpt lat="45.36901" lon="5.82391">
        <ele>1536.1999511719</ele>
        <time>2012-05-19T08:22:22.000Z</time>
      </trkpt>
      <trkpt lat="45.36905" lon="5.82398">
        <ele>1539.5999755859</ele>
        <time>2012-05-19T08:22:28.000Z</time>
      </trkpt>
      <trkpt lat="45.36904" lon="5.82401">
        <ele>1541.5999755859</ele>
        <time>2012-05-19T08:22:31.000Z</time>
      </trkpt>
      <trkpt lat="45.36907" lon="5.8241">
        <ele>1545.8000488281</ele>
        <time>2012-05-19T08:22:36.000Z</time>
      </trkpt>
      <trkpt lat="45.3691" lon="5.82421">
        <ele>1544.4000244141</ele>
        <time>2012-05-19T08:22:42.000Z</time>
      </trkpt>
      <trkpt lat="45.36912" lon="5.82419">
        <ele>1545.8000488281</ele>
        <time>2012-05-19T08:22:47.000Z</time>
      </trkpt>
      <trkpt lat="45.36912" lon="5.82409">
        <ele>1547.8000488281</ele>
        <time>2012-05-19T08:22:54.000Z</time>
      </trkpt>
      <trkpt lat="45.36914" lon="5.82401">
        <ele>1549.1999511719</ele>
        <time>2012-05-19T08:22:58.000Z</time>
      </trkpt>
      <trkpt lat="45.36918" lon="5.8239">
        <ele>1548.8000488281</ele>
        <time>2012-05-19T08:23:04.000Z</time>
      </trkpt>
      <trkpt lat="45.36921" lon="5.82384">
        <ele>1548.1999511719</ele>
        <time>2012-05-19T08:23:08.000Z</time>
      </trkpt>
      <trkpt lat="45.36924" lon="5.82378">
        <ele>1547.8000488281</ele>
        <time>2012-05-19T08:23:13.000Z</time>
      </trkpt>
      <trkpt lat="45.36924" lon="5.8237">
        <ele>1552</ele>
        <time>2012-05-19T08:23:19.000Z</time>
      </trkpt>
      <trkpt lat="45.36927" lon="5.8237">
        <ele>1546.4000244141</ele>
        <time>2012-05-19T08:23:24.000Z</time>
      </trkpt>
      <trkpt lat="45.3693" lon="5.82375">
        <ele>1547.1999511719</ele>
        <time>2012-05-19T08:23:29.000Z</time>
      </trkpt>
      <trkpt lat="45.36937" lon="5.82383">
        <ele>1553.5999755859</ele>
        <time>2012-05-19T08:23:35.000Z</time>
      </trkpt>
      <trkpt lat="45.36937" lon="5.82392">
        <ele>1556.8000488281</ele>
        <time>2012-05-19T08:23:40.000Z</time>
      </trkpt>
      <trkpt lat="45.36941" lon="5.82402">
        <ele>1557.8000488281</ele>
        <time>2012-05-19T08:23:44.000Z</time>
      </trkpt>
      <trkpt lat="45.36942" lon="5.82403">
        <ele>1558.8000488281</ele>
        <time>2012-05-19T08:23:47.000Z</time>
      </trkpt>
      <trkpt lat="45.36936" lon="5.82397">
        <ele>1558.8000488281</ele>
        <time>2012-05-19T08:23:53.000Z</time>
      </trkpt>
      <trkpt lat="45.36937" lon="5.82387">
        <ele>1558.8000488281</ele>
        <time>2012-05-19T08:23:59.000Z</time>
      </trkpt>
      <trkpt lat="45.36938" lon="5.82378">
        <ele>1557.4000244141</ele>
        <time>2012-05-19T08:24:04.000Z</time>
      </trkpt>
      <trkpt lat="45.36941" lon="5.82367">
        <ele>1558.4000244141</ele>
        <time>2012-05-19T08:24:10.000Z</time>
      </trkpt>
      <trkpt lat="45.3694" lon="5.82363">
        <ele>1559.1999511719</ele>
        <time>2012-05-19T08:24:14.000Z</time>
      </trkpt>
      <trkpt lat="45.36941" lon="5.82351">
        <ele>1560.8000488281</ele>
        <time>2012-05-19T08:24:19.000Z</time>
      </trkpt>
      <trkpt lat="45.36946" lon="5.8235">
        <ele>1562.1999511719</ele>
        <time>2012-05-19T08:24:23.000Z</time>
      </trkpt>
      <trkpt lat="45.36948" lon="5.82353">
        <ele>1562.5999755859</ele>
        <time>2012-05-19T08:24:25.000Z</time>
      </trkpt>
      <trkpt lat="45.36949" lon="5.82358">
        <ele>1565.5999755859</ele>
        <time>2012-05-19T08:24:28.000Z</time>
      </trkpt>
      <trkpt lat="45.36951" lon="5.82368">
        <ele>1568.4000244141</ele>
        <time>2012-05-19T08:24:32.000Z</time>
      </trkpt>
      <trkpt lat="45.36956" lon="5.82375">
        <ele>1569.4000244141</ele>
        <time>2012-05-19T08:24:38.000Z</time>
      </trkpt>
      <trkpt lat="45.36957" lon="5.82376">
        <ele>1569.8000488281</ele>
        <time>2012-05-19T08:24:39.000Z</time>
      </trkpt>
      <trkpt lat="45.36962" lon="5.82375">
        <ele>1572.8000488281</ele>
        <time>2012-05-19T08:24:43.000Z</time>
      </trkpt>
      <trkpt lat="45.36969" lon="5.82374">
        <ele>1574.1999511719</ele>
        <time>2012-05-19T08:24:47.000Z</time>
      </trkpt>
      <trkpt lat="45.36971" lon="5.82374">
        <ele>1574.5999755859</ele>
        <time>2012-05-19T08:24:49.000Z</time>
      </trkpt>
      <trkpt lat="45.36973" lon="5.82368">
        <ele>1577.5999755859</ele>
        <time>2012-05-19T08:24:56.000Z</time>
      </trkpt>
      <trkpt lat="45.36974" lon="5.82362">
        <ele>1577.5999755859</ele>
        <time>2012-05-19T08:25:00.000Z</time>
      </trkpt>
      <trkpt lat="45.36972" lon="5.82356">
        <ele>1578.5999755859</ele>
        <time>2012-05-19T08:25:05.000Z</time>
      </trkpt>
      <trkpt lat="45.36975" lon="5.82357">
        <ele>1578</ele>
        <time>2012-05-19T08:25:08.000Z</time>
      </trkpt>
      <trkpt lat="45.36978" lon="5.8236">
        <ele>1579.4000244141</ele>
        <time>2012-05-19T08:25:12.000Z</time>
      </trkpt>
      <trkpt lat="45.36982" lon="5.82359">
        <ele>1581.8000488281</ele>
        <time>2012-05-19T08:25:15.000Z</time>
      </trkpt>
      <trkpt lat="45.36985" lon="5.82357">
        <ele>1582.4000244141</ele>
        <time>2012-05-19T08:25:18.000Z</time>
      </trkpt>
      <trkpt lat="45.36996" lon="5.82351">
        <ele>1585.8000488281</ele>
        <time>2012-05-19T08:25:24.000Z</time>
      </trkpt>
      <trkpt lat="45.37" lon="5.82346">
        <ele>1589</ele>
        <time>2012-05-19T08:25:31.000Z</time>
      </trkpt>
      <trkpt lat="45.36997" lon="5.8234">
        <ele>1587.5999755859</ele>
        <time>2012-05-19T08:25:37.000Z</time>
      </trkpt>
      <trkpt lat="45.36999" lon="5.82332">
        <ele>1583.8000488281</ele>
        <time>2012-05-19T08:25:43.000Z</time>
      </trkpt>
      <trkpt lat="45.37005" lon="5.82327">
        <ele>1587.5999755859</ele>
        <time>2012-05-19T08:25:50.000Z</time>
      </trkpt>
      <trkpt lat="45.37004" lon="5.82329">
        <ele>1588.1999511719</ele>
        <time>2012-05-19T08:25:51.000Z</time>
      </trkpt>
      <trkpt lat="45.37009" lon="5.8233">
        <ele>1588.1999511719</ele>
        <time>2012-05-19T08:25:55.000Z</time>
      </trkpt>
      <trkpt lat="45.37015" lon="5.82325">
        <ele>1591.4000244141</ele>
        <time>2012-05-19T08:26:01.000Z</time>
      </trkpt>
      <trkpt lat="45.37021" lon="5.82318">
        <ele>1594.4000244141</ele>
        <time>2012-05-19T08:26:07.000Z</time>
      </trkpt>
      <trkpt lat="45.37021" lon="5.82317">
        <ele>1594.4000244141</ele>
        <time>2012-05-19T08:26:08.000Z</time>
      </trkpt>
      <trkpt lat="45.3702" lon="5.82309">
        <ele>1595.8000488281</ele>
        <time>2012-05-19T08:26:13.000Z</time>
      </trkpt>
      <trkpt lat="45.3702" lon="5.82305">
        <ele>1597.1999511719</ele>
        <time>2012-05-19T08:26:16.000Z</time>
      </trkpt>
      <trkpt lat="45.37022" lon="5.82302">
        <ele>1599.5999755859</ele>
        <time>2012-05-19T08:26:23.000Z</time>
      </trkpt>
      <trkpt lat="45.37023" lon="5.82303">
        <ele>1600.1999511719</ele>
        <time>2012-05-19T08:26:24.000Z</time>
      </trkpt>
      <trkpt lat="45.37031" lon="5.82311">
        <ele>1603</ele>
        <time>2012-05-19T08:26:29.000Z</time>
      </trkpt>
      <trkpt lat="45.37035" lon="5.82314">
        <ele>1604.4000244141</ele>
        <time>2012-05-19T08:26:32.000Z</time>
      </trkpt>
      <trkpt lat="45.3704" lon="5.82314">
        <ele>1607.4000244141</ele>
        <time>2012-05-19T08:26:38.000Z</time>
      </trkpt>
      <trkpt lat="45.37042" lon="5.82314">
        <ele>1608.4000244141</ele>
        <time>2012-05-19T08:26:39.000Z</time>
      </trkpt>
      <trkpt lat="45.37043" lon="5.82313">
        <ele>1607.8000488281</ele>
        <time>2012-05-19T08:26:43.000Z</time>
      </trkpt>
      <trkpt lat="45.37038" lon="5.82304">
        <ele>1608.8000488281</ele>
        <time>2012-05-19T08:26:49.000Z</time>
      </trkpt>
      <trkpt lat="45.37038" lon="5.82303">
        <ele>1608.4000244141</ele>
        <time>2012-05-19T08:26:50.000Z</time>
      </trkpt>
      <trkpt lat="45.37036" lon="5.82294">
        <ele>1610.8000488281</ele>
        <time>2012-05-19T08:26:56.000Z</time>
      </trkpt>
      <trkpt lat="45.37039" lon="5.82294">
        <ele>1612.1999511719</ele>
        <time>2012-05-19T08:27:01.000Z</time>
      </trkpt>
      <trkpt lat="45.37041" lon="5.82295">
        <ele>1612.1999511719</ele>
        <time>2012-05-19T08:27:03.000Z</time>
      </trkpt>
      <trkpt lat="45.37053" lon="5.823">
        <ele>1615</ele>
        <time>2012-05-19T08:27:10.000Z</time>
      </trkpt>
      <trkpt lat="45.3706" lon="5.82302">
        <ele>1615</ele>
        <time>2012-05-19T08:27:15.000Z</time>
      </trkpt>
      <trkpt lat="45.37058" lon="5.82294">
        <ele>1613.5999755859</ele>
        <time>2012-05-19T08:27:22.000Z</time>
      </trkpt>
      <trkpt lat="45.37056" lon="5.82289">
        <ele>1613.1999511719</ele>
        <time>2012-05-19T08:27:25.000Z</time>
      </trkpt>
      <trkpt lat="45.37055" lon="5.82287">
        <ele>1613.5999755859</ele>
        <time>2012-05-19T08:27:27.000Z</time>
      </trkpt>
      <trkpt lat="45.37053" lon="5.82282">
        <ele>1616</ele>
        <time>2012-05-19T08:27:31.000Z</time>
      </trkpt>
      <trkpt lat="45.37057" lon="5.82281">
        <ele>1620.4000244141</ele>
        <time>2012-05-19T08:27:37.000Z</time>
      </trkpt>
      <trkpt lat="45.3706" lon="5.82282">
        <ele>1622.1999511719</ele>
        <time>2012-05-19T08:27:40.000Z</time>
      </trkpt>
      <trkpt lat="45.37066" lon="5.82282">
        <ele>1623.8000488281</ele>
        <time>2012-05-19T08:27:44.000Z</time>
      </trkpt>
      <trkpt lat="45.37068" lon="5.82281">
        <ele>1625.1999511719</ele>
        <time>2012-05-19T08:27:46.000Z</time>
      </trkpt>
      <trkpt lat="45.37074" lon="5.82284">
        <ele>1628</ele>
        <time>2012-05-19T08:27:52.000Z</time>
      </trkpt>
      <trkpt lat="45.37084" lon="5.82288">
        <ele>1629.4000244141</ele>
        <time>2012-05-19T08:27:57.000Z</time>
      </trkpt>
      <trkpt lat="45.37084" lon="5.82287">
        <ele>1629</ele>
        <time>2012-05-19T08:27:58.000Z</time>
      </trkpt>
      <trkpt lat="45.37081" lon="5.82278">
        <ele>1631.8000488281</ele>
        <time>2012-05-19T08:28:05.000Z</time>
      </trkpt>
      <trkpt lat="45.37078" lon="5.82271">
        <ele>1635.8000488281</ele>
        <time>2012-05-19T08:28:10.000Z</time>
      </trkpt>
      <trkpt lat="45.37081" lon="5.82263">
        <ele>1633.4000244141</ele>
        <time>2012-05-19T08:28:13.000Z</time>
      </trkpt>
      <trkpt lat="45.37082" lon="5.82261">
        <ele>1633.8000488281</ele>
        <time>2012-05-19T08:28:15.000Z</time>
      </trkpt>
      <trkpt lat="45.37086" lon="5.82253">
        <ele>1633.4000244141</ele>
        <time>2012-05-19T08:28:20.000Z</time>
      </trkpt>
      <trkpt lat="45.37091" lon="5.82247">
        <ele>1631.4000244141</ele>
        <time>2012-05-19T08:28:26.000Z</time>
      </trkpt>
      <trkpt lat="45.37093" lon="5.82236">
        <ele>1630</ele>
        <time>2012-05-19T08:28:30.000Z</time>
      </trkpt>
      <trkpt lat="45.37095" lon="5.82217">
        <ele>1632.4000244141</ele>
        <time>2012-05-19T08:28:35.000Z</time>
      </trkpt>
      <trkpt lat="45.37096" lon="5.82198">
        <ele>1634.1999511719</ele>
        <time>2012-05-19T08:28:39.000Z</time>
      </trkpt>
      <trkpt lat="45.37097" lon="5.82195">
        <ele>1633.8000488281</ele>
        <time>2012-05-19T08:28:40.000Z</time>
      </trkpt>
      <trkpt lat="45.37098" lon="5.82182">
        <ele>1634.8000488281</ele>
        <time>2012-05-19T08:28:44.000Z</time>
      </trkpt>
      <trkpt lat="45.37104" lon="5.82168">
        <ele>1631.4000244141</ele>
        <time>2012-05-19T08:28:51.000Z</time>
      </trkpt>
      <trkpt lat="45.37112" lon="5.82152">
        <ele>1630</ele>
        <time>2012-05-19T08:28:58.000Z</time>
      </trkpt>
      <trkpt lat="45.37118" lon="5.82136">
        <ele>1631.4000244141</ele>
        <time>2012-05-19T08:29:02.000Z</time>
      </trkpt>
      <trkpt lat="45.37125" lon="5.82123">
        <ele>1630.4000244141</ele>
        <time>2012-05-19T08:29:06.000Z</time>
      </trkpt>
      <trkpt lat="45.37134" lon="5.82115">
        <ele>1630</ele>
        <time>2012-05-19T08:29:11.000Z</time>
      </trkpt>
      <trkpt lat="45.37142" lon="5.82099">
        <ele>1630</ele>
        <time>2012-05-19T08:29:16.000Z</time>
      </trkpt>
      <trkpt lat="45.37147" lon="5.82087">
        <ele>1631.4000244141</ele>
        <time>2012-05-19T08:29:20.000Z</time>
      </trkpt>
      <trkpt lat="45.37146" lon="5.82067">
        <ele>1634.8000488281</ele>
        <time>2012-05-19T08:29:26.000Z</time>
      </trkpt>
      <trkpt lat="45.37144" lon="5.8205">
        <ele>1638.1999511719</ele>
        <time>2012-05-19T08:29:31.000Z</time>
      </trkpt>
      <trkpt lat="45.37143" lon="5.82031">
        <ele>1642.4000244141</ele>
        <time>2012-05-19T08:29:37.000Z</time>
      </trkpt>
      <trkpt lat="45.37142" lon="5.82028">
        <ele>1642</ele>
        <time>2012-05-19T08:29:39.000Z</time>
      </trkpt>
      <trkpt lat="45.37139" lon="5.82019">
        <ele>1643</ele>
        <time>2012-05-19T08:29:45.000Z</time>
      </trkpt>
      <trkpt lat="45.37139" lon="5.82017">
        <ele>1643.4000244141</ele>
        <time>2012-05-19T08:29:46.000Z</time>
      </trkpt>
      <trkpt lat="45.37137" lon="5.82011">
        <ele>1645.8000488281</ele>
        <time>2012-05-19T08:29:51.000Z</time>
      </trkpt>
      <trkpt lat="45.37137" lon="5.82008">
        <ele>1646.1999511719</ele>
        <time>2012-05-19T08:29:53.000Z</time>
      </trkpt>
      <trkpt lat="45.37136" lon="5.82002">
        <ele>1648.1999511719</ele>
        <time>2012-05-19T08:29:59.000Z</time>
      </trkpt>
      <trkpt lat="45.37134" lon="5.81997">
        <ele>1651.1999511719</ele>
        <time>2012-05-19T08:30:04.000Z</time>
      </trkpt>
      <trkpt lat="45.37133" lon="5.81991">
        <ele>1654.4000244141</ele>
        <time>2012-05-19T08:30:09.000Z</time>
      </trkpt>
      <trkpt lat="45.37135" lon="5.81987">
        <ele>1656.8000488281</ele>
        <time>2012-05-19T08:30:14.000Z</time>
      </trkpt>
      <trkpt lat="45.37132" lon="5.81984">
        <ele>1657.4000244141</ele>
        <time>2012-05-19T08:30:18.000Z</time>
      </trkpt>
      <trkpt lat="45.3713" lon="5.81981">
        <ele>1657.4000244141</ele>
        <time>2012-05-19T08:30:24.000Z</time>
      </trkpt>
      <trkpt lat="45.3713" lon="5.81977">
        <ele>1658.4000244141</ele>
        <time>2012-05-19T08:30:29.000Z</time>
      </trkpt>
      <trkpt lat="45.37129" lon="5.81972">
        <ele>1662.1999511719</ele>
        <time>2012-05-19T08:30:35.000Z</time>
      </trkpt>
      <trkpt lat="45.37129" lon="5.81965">
        <ele>1666</ele>
        <time>2012-05-19T08:30:41.000Z</time>
      </trkpt>
      <trkpt lat="45.37131" lon="5.8196">
        <ele>1667.4000244141</ele>
        <time>2012-05-19T08:30:46.000Z</time>
      </trkpt>
      <trkpt lat="45.37131" lon="5.81961">
        <ele>1668.8000488281</ele>
        <time>2012-05-19T08:30:49.000Z</time>
      </trkpt>
      <trkpt lat="45.37134" lon="5.81951">
        <ele>1668.4000244141</ele>
        <time>2012-05-19T08:30:55.000Z</time>
      </trkpt>
      <trkpt lat="45.3713" lon="5.81949">
        <ele>1672.1999511719</ele>
        <time>2012-05-19T08:31:00.000Z</time>
      </trkpt>
      <trkpt lat="45.37127" lon="5.8194">
        <ele>1674.1999511719</ele>
        <time>2012-05-19T08:31:08.000Z</time>
      </trkpt>
      <trkpt lat="45.37126" lon="5.81935">
        <ele>1674.5999755859</ele>
        <time>2012-05-19T08:31:11.000Z</time>
      </trkpt>
      <trkpt lat="45.37121" lon="5.81925">
        <ele>1677.5999755859</ele>
        <time>2012-05-19T08:31:16.000Z</time>
      </trkpt>
      <trkpt lat="45.37116" lon="5.81916">
        <ele>1679.4000244141</ele>
        <time>2012-05-19T08:31:20.000Z</time>
      </trkpt>
      <trkpt lat="45.37109" lon="5.81904">
        <ele>1680</ele>
        <time>2012-05-19T08:31:25.000Z</time>
      </trkpt>
      <trkpt lat="45.37104" lon="5.81891">
        <ele>1680</ele>
        <time>2012-05-19T08:31:30.000Z</time>
      </trkpt>
      <trkpt lat="45.371" lon="5.81878">
        <ele>1680</ele>
        <time>2012-05-19T08:31:34.000Z</time>
      </trkpt>
      <trkpt lat="45.37097" lon="5.81872">
        <ele>1679.4000244141</ele>
        <time>2012-05-19T08:31:36.000Z</time>
      </trkpt>
      <trkpt lat="45.37088" lon="5.81861">
        <ele>1679</ele>
        <time>2012-05-19T08:31:42.000Z</time>
      </trkpt>
      <trkpt lat="45.3708" lon="5.81858">
        <ele>1678.4000244141</ele>
        <time>2012-05-19T08:31:46.000Z</time>
      </trkpt>
      <trkpt lat="45.37075" lon="5.81852">
        <ele>1679</ele>
        <time>2012-05-19T08:31:50.000Z</time>
      </trkpt>
      <trkpt lat="45.37068" lon="5.81848">
        <ele>1679.4000244141</ele>
        <time>2012-05-19T08:31:54.000Z</time>
      </trkpt>
      <trkpt lat="45.3706" lon="5.81845">
        <ele>1678.4000244141</ele>
        <time>2012-05-19T08:31:59.000Z</time>
      </trkpt>
      <trkpt lat="45.37054" lon="5.81839">
        <ele>1679</ele>
        <time>2012-05-19T08:32:03.000Z</time>
      </trkpt>
      <trkpt lat="45.37049" lon="5.81831">
        <ele>1680</ele>
        <time>2012-05-19T08:32:08.000Z</time>
      </trkpt>
      <trkpt lat="45.37046" lon="5.81828">
        <ele>1680.4000244141</ele>
        <time>2012-05-19T08:32:10.000Z</time>
      </trkpt>
      <trkpt lat="45.37042" lon="5.81825">
        <ele>1683.4000244141</ele>
        <time>2012-05-19T08:32:14.000Z</time>
      </trkpt>
      <trkpt lat="45.37033" lon="5.81821">
        <ele>1687.5999755859</ele>
        <time>2012-05-19T08:32:20.000Z</time>
      </trkpt>
      <trkpt lat="45.37029" lon="5.8182">
        <ele>1689</ele>
        <time>2012-05-19T08:32:25.000Z</time>
      </trkpt>
      <trkpt lat="45.37029" lon="5.81817">
        <ele>1689</ele>
        <time>2012-05-19T08:32:30.000Z</time>
      </trkpt>
      <trkpt lat="45.37024" lon="5.81814">
        <ele>1690</ele>
        <time>2012-05-19T08:32:35.000Z</time>
      </trkpt>
      <trkpt lat="45.37022" lon="5.8181">
        <ele>1691.4000244141</ele>
        <time>2012-05-19T08:32:39.000Z</time>
      </trkpt>
      <trkpt lat="45.3702" lon="5.8181">
        <ele>1693</ele>
        <time>2012-05-19T08:32:43.000Z</time>
      </trkpt>
      <trkpt lat="45.37021" lon="5.81808">
        <ele>1693</ele>
        <time>2012-05-19T08:32:46.000Z</time>
      </trkpt>
      <trkpt lat="45.37019" lon="5.81807">
        <ele>1696.8000488281</ele>
        <time>2012-05-19T08:32:52.000Z</time>
      </trkpt>
      <trkpt lat="45.37018" lon="5.81802">
        <ele>1702</ele>
        <time>2012-05-19T08:33:01.000Z</time>
      </trkpt>
      <trkpt lat="45.37017" lon="5.818">
        <ele>1703.4000244141</ele>
        <time>2012-05-19T08:33:06.000Z</time>
      </trkpt>
      <trkpt lat="45.37014" lon="5.81798">
        <ele>1706.4000244141</ele>
        <time>2012-05-19T08:33:14.000Z</time>
      </trkpt>
      <trkpt lat="45.37012" lon="5.81796">
        <ele>1710.8000488281</ele>
        <time>2012-05-19T08:33:24.000Z</time>
      </trkpt>
      <trkpt lat="45.3701" lon="5.81796">
        <ele>1711.5999755859</ele>
        <time>2012-05-19T08:33:25.000Z</time>
      </trkpt>
      <trkpt lat="45.37005" lon="5.8179">
        <ele>1712.5999755859</ele>
        <time>2012-05-19T08:33:31.000Z</time>
      </trkpt>
      <trkpt lat="45.37002" lon="5.81787">
        <ele>1713.1999511719</ele>
        <time>2012-05-19T08:33:36.000Z</time>
      </trkpt>
      <trkpt lat="45.36997" lon="5.81784">
        <ele>1713.5999755859</ele>
        <time>2012-05-19T08:33:44.000Z</time>
      </trkpt>
      <trkpt lat="45.36996" lon="5.81781">
        <ele>1713.5999755859</ele>
        <time>2012-05-19T08:33:48.000Z</time>
      </trkpt>
      <trkpt lat="45.36994" lon="5.8178">
        <ele>1715.5999755859</ele>
        <time>2012-05-19T08:33:54.000Z</time>
      </trkpt>
      <trkpt lat="45.36989" lon="5.81778">
        <ele>1725.5999755859</ele>
        <time>2012-05-19T08:34:10.000Z</time>
      </trkpt>
      <trkpt lat="45.36988" lon="5.81777">
        <ele>1731.4000244141</ele>
        <time>2012-05-19T08:34:17.000Z</time>
      </trkpt>
      <trkpt lat="45.36986" lon="5.8177">
        <ele>1734.8000488281</ele>
        <time>2012-05-19T08:34:34.000Z</time>
      </trkpt>
      <trkpt lat="45.36988" lon="5.81766">
        <ele>1735.1999511719</ele>
        <time>2012-05-19T08:34:38.000Z</time>
      </trkpt>
      <trkpt lat="45.36988" lon="5.81763">
        <ele>1735.5999755859</ele>
        <time>2012-05-19T08:34:43.000Z</time>
      </trkpt>
      <trkpt lat="45.36993" lon="5.81759">
        <ele>1736.1999511719</ele>
        <time>2012-05-19T08:34:49.000Z</time>
      </trkpt>
      <trkpt lat="45.36995" lon="5.81758">
        <ele>1735.5999755859</ele>
        <time>2012-05-19T08:34:54.000Z</time>
      </trkpt>
      <trkpt lat="45.36996" lon="5.81757">
        <ele>1737.1999511719</ele>
        <time>2012-05-19T08:34:59.000Z</time>
      </trkpt>
      <trkpt lat="45.36996" lon="5.81754">
        <ele>1739.5999755859</ele>
        <time>2012-05-19T08:35:03.000Z</time>
      </trkpt>
      <trkpt lat="45.36994" lon="5.81751">
        <ele>1741.4000244141</ele>
        <time>2012-05-19T08:35:07.000Z</time>
      </trkpt>
      <trkpt lat="45.36994" lon="5.81749">
        <ele>1743</ele>
        <time>2012-05-19T08:35:11.000Z</time>
      </trkpt>
      <trkpt lat="45.3699" lon="5.81752">
        <ele>1749.5999755859</ele>
        <time>2012-05-19T08:35:20.000Z</time>
      </trkpt>
      <trkpt lat="45.36988" lon="5.8175">
        <ele>1749.5999755859</ele>
        <time>2012-05-19T08:35:25.000Z</time>
      </trkpt>
      <trkpt lat="45.36988" lon="5.81748">
        <ele>1750.1999511719</ele>
        <time>2012-05-19T08:35:28.000Z</time>
      </trkpt>
      <trkpt lat="45.36981" lon="5.81736">
        <ele>1750.1999511719</ele>
        <time>2012-05-19T08:35:34.000Z</time>
      </trkpt>
      <trkpt lat="45.36978" lon="5.81733">
        <ele>1749.5999755859</ele>
        <time>2012-05-19T08:35:36.000Z</time>
      </trkpt>
      <trkpt lat="45.36974" lon="5.81725">
        <ele>1750.1999511719</ele>
        <time>2012-05-19T08:35:40.000Z</time>
      </trkpt>
      <trkpt lat="45.36973" lon="5.81725">
        <ele>1750.1999511719</ele>
        <time>2012-05-19T08:35:41.000Z</time>
      </trkpt>
      <trkpt lat="45.36971" lon="5.81725">
        <ele>1750.1999511719</ele>
        <time>2012-05-19T08:35:43.000Z</time>
      </trkpt>
      <trkpt lat="45.36971" lon="5.81721">
        <ele>1750.5999755859</ele>
        <time>2012-05-19T08:35:48.000Z</time>
      </trkpt>
      <trkpt lat="45.3697" lon="5.81718">
        <ele>1752</ele>
        <time>2012-05-19T08:35:53.000Z</time>
      </trkpt>
      <trkpt lat="45.36969" lon="5.81715">
        <ele>1753.4000244141</ele>
        <time>2012-05-19T08:35:59.000Z</time>
      </trkpt>
      <trkpt lat="45.36967" lon="5.81712">
        <ele>1754.4000244141</ele>
        <time>2012-05-19T08:36:05.000Z</time>
      </trkpt>
      <trkpt lat="45.36967" lon="5.81708">
        <ele>1756.8000488281</ele>
        <time>2012-05-19T08:36:09.000Z</time>
      </trkpt>
      <trkpt lat="45.36966" lon="5.81705">
        <ele>1759.1999511719</ele>
        <time>2012-05-19T08:36:13.000Z</time>
      </trkpt>
      <trkpt lat="45.36965" lon="5.81703">
        <ele>1761.1999511719</ele>
        <time>2012-05-19T08:36:18.000Z</time>
      </trkpt>
      <trkpt lat="45.36962" lon="5.81699">
        <ele>1762.1999511719</ele>
        <time>2012-05-19T08:36:24.000Z</time>
      </trkpt>
      <trkpt lat="45.36962" lon="5.81696">
        <ele>1762.5999755859</ele>
        <time>2012-05-19T08:36:29.000Z</time>
      </trkpt>
      <trkpt lat="45.36964" lon="5.81692">
        <ele>1763.5999755859</ele>
        <time>2012-05-19T08:36:34.000Z</time>
      </trkpt>
      <trkpt lat="45.36965" lon="5.81691">
        <ele>1765</ele>
        <time>2012-05-19T08:36:39.000Z</time>
      </trkpt>
      <trkpt lat="45.36966" lon="5.81691">
        <ele>1767.4000244141</ele>
        <time>2012-05-19T08:36:44.000Z</time>
      </trkpt>
      <trkpt lat="45.36966" lon="5.81694">
        <ele>1769.8000488281</ele>
        <time>2012-05-19T08:36:49.000Z</time>
      </trkpt>
      <trkpt lat="45.36971" lon="5.81694">
        <ele>1770.4000244141</ele>
        <time>2012-05-19T08:36:56.000Z</time>
      </trkpt>
      <trkpt lat="45.36975" lon="5.81696">
        <ele>1771.1999511719</ele>
        <time>2012-05-19T08:37:00.000Z</time>
      </trkpt>
      <trkpt lat="45.36977" lon="5.81696">
        <ele>1772.8000488281</ele>
        <time>2012-05-19T08:37:05.000Z</time>
      </trkpt>
      <trkpt lat="45.36974" lon="5.81691">
        <ele>1774.1999511719</ele>
        <time>2012-05-19T08:37:10.000Z</time>
      </trkpt>
      <trkpt lat="45.36969" lon="5.81687">
        <ele>1774.1999511719</ele>
        <time>2012-05-19T08:37:16.000Z</time>
      </trkpt>
      <trkpt lat="45.36967" lon="5.81681">
        <ele>1774.1999511719</ele>
        <time>2012-05-19T08:37:20.000Z</time>
      </trkpt>
      <trkpt lat="45.36966" lon="5.81679">
        <ele>1775.1999511719</ele>
        <time>2012-05-19T08:37:24.000Z</time>
      </trkpt>
      <trkpt lat="45.36965" lon="5.81677">
        <ele>1775.5999755859</ele>
        <time>2012-05-19T08:37:28.000Z</time>
      </trkpt>
      <trkpt lat="45.36964" lon="5.81674">
        <ele>1776.5999755859</ele>
        <time>2012-05-19T08:37:33.000Z</time>
      </trkpt>
      <trkpt lat="45.36963" lon="5.81671">
        <ele>1778</ele>
        <time>2012-05-19T08:37:37.000Z</time>
      </trkpt>
      <trkpt lat="45.36962" lon="5.81666">
        <ele>1779</ele>
        <time>2012-05-19T08:37:41.000Z</time>
      </trkpt>
      <trkpt lat="45.36962" lon="5.81662">
        <ele>1780.8000488281</ele>
        <time>2012-05-19T08:37:46.000Z</time>
      </trkpt>
      <trkpt lat="45.3696" lon="5.81661">
        <ele>1782.8000488281</ele>
        <time>2012-05-19T08:37:51.000Z</time>
      </trkpt>
      <trkpt lat="45.36958" lon="5.81659">
        <ele>1784.1999511719</ele>
        <time>2012-05-19T08:37:56.000Z</time>
      </trkpt>
      <trkpt lat="45.36957" lon="5.81657">
        <ele>1785.1999511719</ele>
        <time>2012-05-19T08:38:00.000Z</time>
      </trkpt>
      <trkpt lat="45.36952" lon="5.81653">
        <ele>1784.8000488281</ele>
        <time>2012-05-19T08:38:04.000Z</time>
      </trkpt>
      <trkpt lat="45.3695" lon="5.81649">
        <ele>1784.8000488281</ele>
        <time>2012-05-19T08:38:08.000Z</time>
      </trkpt>
      <trkpt lat="45.36949" lon="5.81646">
        <ele>1784.8000488281</ele>
        <time>2012-05-19T08:38:12.000Z</time>
      </trkpt>
      <trkpt lat="45.36953" lon="5.81638">
        <ele>1786.1999511719</ele>
        <time>2012-05-19T08:38:19.000Z</time>
      </trkpt>
      <trkpt lat="45.36955" lon="5.81635">
        <ele>1787.1999511719</ele>
        <time>2012-05-19T08:38:24.000Z</time>
      </trkpt>
      <trkpt lat="45.36957" lon="5.81634">
        <ele>1789</ele>
        <time>2012-05-19T08:38:28.000Z</time>
      </trkpt>
      <trkpt lat="45.36958" lon="5.81632">
        <ele>1792.4000244141</ele>
        <time>2012-05-19T08:38:33.000Z</time>
      </trkpt>
      <trkpt lat="45.36958" lon="5.81629">
        <ele>1796.8000488281</ele>
        <time>2012-05-19T08:38:38.000Z</time>
      </trkpt>
      <trkpt lat="45.36959" lon="5.81629">
        <ele>1800.1999511719</ele>
        <time>2012-05-19T08:38:44.000Z</time>
      </trkpt>
      <trkpt lat="45.36962" lon="5.81627">
        <ele>1801</ele>
        <time>2012-05-19T08:38:48.000Z</time>
      </trkpt>
      <trkpt lat="45.36964" lon="5.81626">
        <ele>1802</ele>
        <time>2012-05-19T08:38:53.000Z</time>
      </trkpt>
      <trkpt lat="45.36966" lon="5.81624">
        <ele>1802.5999755859</ele>
        <time>2012-05-19T08:38:58.000Z</time>
      </trkpt>
      <trkpt lat="45.36968" lon="5.81619">
        <ele>1805.8000488281</ele>
        <time>2012-05-19T08:39:04.000Z</time>
      </trkpt>
      <trkpt lat="45.3697" lon="5.81614">
        <ele>1806.4000244141</ele>
        <time>2012-05-19T08:39:11.000Z</time>
      </trkpt>
      <trkpt lat="45.36973" lon="5.8161">
        <ele>1805.4000244141</ele>
        <time>2012-05-19T08:39:18.000Z</time>
      </trkpt>
      <trkpt lat="45.36975" lon="5.8161">
        <ele>1806.8000488281</ele>
        <time>2012-05-19T08:39:23.000Z</time>
      </trkpt>
      <trkpt lat="45.36977" lon="5.81602">
        <ele>1813.5999755859</ele>
        <time>2012-05-19T08:39:33.000Z</time>
      </trkpt>
      <trkpt lat="45.36978" lon="5.81602">
        <ele>1817</ele>
        <time>2012-05-19T08:39:38.000Z</time>
      </trkpt>
      <trkpt lat="45.36981" lon="5.81604">
        <ele>1818.8000488281</ele>
        <time>2012-05-19T08:39:43.000Z</time>
      </trkpt>
      <trkpt lat="45.36983" lon="5.81604">
        <ele>1818.8000488281</ele>
        <time>2012-05-19T08:39:48.000Z</time>
      </trkpt>
      <trkpt lat="45.36984" lon="5.81606">
        <ele>1821.1999511719</ele>
        <time>2012-05-19T08:39:54.000Z</time>
      </trkpt>
      <trkpt lat="45.36986" lon="5.81608">
        <ele>1824.5999755859</ele>
        <time>2012-05-19T08:40:01.000Z</time>
      </trkpt>
      <trkpt lat="45.36987" lon="5.81608">
        <ele>1828.4000244141</ele>
        <time>2012-05-19T08:40:06.000Z</time>
      </trkpt>
      <trkpt lat="45.36991" lon="5.81607">
        <ele>1831.8000488281</ele>
        <time>2012-05-19T08:40:14.000Z</time>
      </trkpt>
      <trkpt lat="45.3699" lon="5.8161">
        <ele>1832.8000488281</ele>
        <time>2012-05-19T08:40:16.000Z</time>
      </trkpt>
      <trkpt lat="45.36995" lon="5.81611">
        <ele>1832.4000244141</ele>
        <time>2012-05-19T08:40:23.000Z</time>
      </trkpt>
      <trkpt lat="45.36996" lon="5.81611">
        <ele>1836.1999511719</ele>
        <time>2012-05-19T08:40:29.000Z</time>
      </trkpt>
      <trkpt lat="45.36999" lon="5.8161">
        <ele>1839.5999755859</ele>
        <time>2012-05-19T08:40:34.000Z</time>
      </trkpt>
      <trkpt lat="45.36999" lon="5.8161">
        <ele>1843.8000488281</ele>
        <time>2012-05-19T08:40:39.000Z</time>
      </trkpt>
      <trkpt lat="45.37001" lon="5.81605">
        <ele>1844.8000488281</ele>
        <time>2012-05-19T08:40:46.000Z</time>
      </trkpt>
      <trkpt lat="45.37003" lon="5.81611">
        <ele>1842</ele>
        <time>2012-05-19T08:40:53.000Z</time>
      </trkpt>
      <trkpt lat="45.37003" lon="5.81611">
        <ele>1842.4000244141</ele>
        <time>2012-05-19T08:40:54.000Z</time>
      </trkpt>
      <trkpt lat="45.37006" lon="5.81612">
        <ele>1843.8000488281</ele>
        <time>2012-05-19T08:41:00.000Z</time>
      </trkpt>
      <trkpt lat="45.37008" lon="5.81615">
        <ele>1846.1999511719</ele>
        <time>2012-05-19T08:41:06.000Z</time>
      </trkpt>
      <trkpt lat="45.3701" lon="5.81614">
        <ele>1849.5999755859</ele>
        <time>2012-05-19T08:41:10.000Z</time>
      </trkpt>
      <trkpt lat="45.37014" lon="5.81615">
        <ele>1848.1999511719</ele>
        <time>2012-05-19T08:41:16.000Z</time>
      </trkpt>
      <trkpt lat="45.37017" lon="5.81619">
        <ele>1842.4000244141</ele>
        <time>2012-05-19T08:41:22.000Z</time>
      </trkpt>
      <trkpt lat="45.37015" lon="5.81613">
        <ele>1852</ele>
        <time>2012-05-19T08:41:27.000Z</time>
      </trkpt>
      <trkpt lat="45.37017" lon="5.81616">
        <ele>1849.5999755859</ele>
        <time>2012-05-19T08:41:30.000Z</time>
      </trkpt>
      <trkpt lat="45.37021" lon="5.81618">
        <ele>1847.1999511719</ele>
        <time>2012-05-19T08:41:36.000Z</time>
      </trkpt>
      <trkpt lat="45.37025" lon="5.81617">
        <ele>1847.1999511719</ele>
        <time>2012-05-19T08:41:41.000Z</time>
      </trkpt>
      <trkpt lat="45.37027" lon="5.81616">
        <ele>1848.5999755859</ele>
        <time>2012-05-19T08:41:45.000Z</time>
      </trkpt>
      <trkpt lat="45.37026" lon="5.81615">
        <ele>1850.5999755859</ele>
        <time>2012-05-19T08:41:47.000Z</time>
      </trkpt>
      <trkpt lat="45.37026" lon="5.8161">
        <ele>1858.1999511719</ele>
        <time>2012-05-19T08:41:50.000Z</time>
      </trkpt>
      <trkpt lat="45.37031" lon="5.81607">
        <ele>1860.1999511719</ele>
        <time>2012-05-19T08:41:57.000Z</time>
      </trkpt>
      <trkpt lat="45.37033" lon="5.81609">
        <ele>1859.1999511719</ele>
        <time>2012-05-19T08:42:01.000Z</time>
      </trkpt>
      <trkpt lat="45.37035" lon="5.81615">
        <ele>1860.5999755859</ele>
        <time>2012-05-19T08:42:07.000Z</time>
      </trkpt>
      <trkpt lat="45.37038" lon="5.81616">
        <ele>1861.5999755859</ele>
        <time>2012-05-19T08:42:12.000Z</time>
      </trkpt>
      <trkpt lat="45.3704" lon="5.81617">
        <ele>1862.5999755859</ele>
        <time>2012-05-19T08:42:17.000Z</time>
      </trkpt>
      <trkpt lat="45.37042" lon="5.81619">
        <ele>1862.5999755859</ele>
        <time>2012-05-19T08:42:22.000Z</time>
      </trkpt>
      <trkpt lat="45.37043" lon="5.8162">
        <ele>1864.5999755859</ele>
        <time>2012-05-19T08:42:26.000Z</time>
      </trkpt>
      <trkpt lat="45.37046" lon="5.81617">
        <ele>1867.8000488281</ele>
        <time>2012-05-19T08:42:31.000Z</time>
      </trkpt>
      <trkpt lat="45.37048" lon="5.81616">
        <ele>1870.1999511719</ele>
        <time>2012-05-19T08:42:37.000Z</time>
      </trkpt>
      <trkpt lat="45.37051" lon="5.81617">
        <ele>1872.5999755859</ele>
        <time>2012-05-19T08:42:42.000Z</time>
      </trkpt>
      <trkpt lat="45.37053" lon="5.81618">
        <ele>1873.1999511719</ele>
        <time>2012-05-19T08:42:46.000Z</time>
      </trkpt>
      <trkpt lat="45.37059" lon="5.81619">
        <ele>1875.5999755859</ele>
        <time>2012-05-19T08:42:53.000Z</time>
      </trkpt>
      <trkpt lat="45.37064" lon="5.8162">
        <ele>1877</ele>
        <time>2012-05-19T08:43:00.000Z</time>
      </trkpt>
      <trkpt lat="45.37067" lon="5.81618">
        <ele>1878.4000244141</ele>
        <time>2012-05-19T08:43:05.000Z</time>
      </trkpt>
      <trkpt lat="45.3707" lon="5.81615">
        <ele>1879.8000488281</ele>
        <time>2012-05-19T08:43:09.000Z</time>
      </trkpt>
      <trkpt lat="45.37075" lon="5.81611">
        <ele>1881.8000488281</ele>
        <time>2012-05-19T08:43:15.000Z</time>
      </trkpt>
      <trkpt lat="45.3708" lon="5.81607">
        <ele>1883.8000488281</ele>
        <time>2012-05-19T08:43:21.000Z</time>
      </trkpt>
      <trkpt lat="45.37083" lon="5.81602">
        <ele>1884.8000488281</ele>
        <time>2012-05-19T08:43:25.000Z</time>
      </trkpt>
      <trkpt lat="45.37088" lon="5.81596">
        <ele>1885.1999511719</ele>
        <time>2012-05-19T08:43:31.000Z</time>
      </trkpt>
      <trkpt lat="45.37091" lon="5.81593">
        <ele>1885.1999511719</ele>
        <time>2012-05-19T08:43:35.000Z</time>
      </trkpt>
      <trkpt lat="45.37097" lon="5.81586">
        <ele>1886.5999755859</ele>
        <time>2012-05-19T08:43:42.000Z</time>
      </trkpt>
      <trkpt lat="45.371" lon="5.8158">
        <ele>1887.5999755859</ele>
        <time>2012-05-19T08:43:49.000Z</time>
      </trkpt>
      <trkpt lat="45.37102" lon="5.81575">
        <ele>1890.4000244141</ele>
        <time>2012-05-19T08:43:56.000Z</time>
      </trkpt>
      <trkpt lat="45.37106" lon="5.81567">
        <ele>1892</ele>
        <time>2012-05-19T08:44:05.000Z</time>
      </trkpt>
      <trkpt lat="45.37108" lon="5.81562">
        <ele>1893.8000488281</ele>
        <time>2012-05-19T08:44:11.000Z</time>
      </trkpt>
      <trkpt lat="45.3711" lon="5.81557">
        <ele>1895.1999511719</ele>
        <time>2012-05-19T08:44:18.000Z</time>
      </trkpt>
      <trkpt lat="45.37111" lon="5.81552">
        <ele>1897.5999755859</ele>
        <time>2012-05-19T08:44:24.000Z</time>
      </trkpt>
      <trkpt lat="45.37113" lon="5.81548">
        <ele>1900.5999755859</ele>
        <time>2012-05-19T08:44:30.000Z</time>
      </trkpt>
      <trkpt lat="45.37112" lon="5.81543">
        <ele>1902.4000244141</ele>
        <time>2012-05-19T08:44:35.000Z</time>
      </trkpt>
      <trkpt lat="45.37109" lon="5.81538">
        <ele>1904</ele>
        <time>2012-05-19T08:44:40.000Z</time>
      </trkpt>
      <trkpt lat="45.37105" lon="5.81534">
        <ele>1906.4000244141</ele>
        <time>2012-05-19T08:44:46.000Z</time>
      </trkpt>
      <trkpt lat="45.37102" lon="5.8153">
        <ele>1908.1999511719</ele>
        <time>2012-05-19T08:44:51.000Z</time>
      </trkpt>
      <trkpt lat="45.37099" lon="5.81525">
        <ele>1910.5999755859</ele>
        <time>2012-05-19T08:44:57.000Z</time>
      </trkpt>
      <trkpt lat="45.37101" lon="5.81522">
        <ele>1912</ele>
        <time>2012-05-19T08:45:01.000Z</time>
      </trkpt>
      <trkpt lat="45.37104" lon="5.81516">
        <ele>1914.5999755859</ele>
        <time>2012-05-19T08:45:08.000Z</time>
      </trkpt>
      <trkpt lat="45.37104" lon="5.81512">
        <ele>1916</ele>
        <time>2012-05-19T08:45:14.000Z</time>
      </trkpt>
      <trkpt lat="45.37107" lon="5.81508">
        <ele>1916.4000244141</ele>
        <time>2012-05-19T08:45:20.000Z</time>
      </trkpt>
      <trkpt lat="45.37109" lon="5.81504">
        <ele>1918.4000244141</ele>
        <time>2012-05-19T08:45:25.000Z</time>
      </trkpt>
      <trkpt lat="45.3711" lon="5.81501">
        <ele>1919.8000488281</ele>
        <time>2012-05-19T08:45:30.000Z</time>
      </trkpt>
      <trkpt lat="45.37113" lon="5.81497">
        <ele>1920.8000488281</ele>
        <time>2012-05-19T08:45:36.000Z</time>
      </trkpt>
      <trkpt lat="45.37113" lon="5.8149">
        <ele>1922.1999511719</ele>
        <time>2012-05-19T08:45:43.000Z</time>
      </trkpt>
      <trkpt lat="45.37112" lon="5.81483">
        <ele>1922.5999755859</ele>
        <time>2012-05-19T08:45:50.000Z</time>
      </trkpt>
      <trkpt lat="45.37113" lon="5.81478">
        <ele>1926.5999755859</ele>
        <time>2012-05-19T08:45:56.000Z</time>
      </trkpt>
      <trkpt lat="45.37111" lon="5.81472">
        <ele>1929</ele>
        <time>2012-05-19T08:46:02.000Z</time>
      </trkpt>
      <trkpt lat="45.37114" lon="5.81464">
        <ele>1929.8000488281</ele>
        <time>2012-05-19T08:46:09.000Z</time>
      </trkpt>
      <trkpt lat="45.37112" lon="5.81459">
        <ele>1931.8000488281</ele>
        <time>2012-05-19T08:46:15.000Z</time>
      </trkpt>
      <trkpt lat="45.37111" lon="5.81451">
        <ele>1935.5999755859</ele>
        <time>2012-05-19T08:46:23.000Z</time>
      </trkpt>
      <trkpt lat="45.37109" lon="5.81445">
        <ele>1937.5999755859</ele>
        <time>2012-05-19T08:46:29.000Z</time>
      </trkpt>
      <trkpt lat="45.37107" lon="5.81438">
        <ele>1939</ele>
        <time>2012-05-19T08:46:36.000Z</time>
      </trkpt>
      <trkpt lat="45.37107" lon="5.81432">
        <ele>1940</ele>
        <time>2012-05-19T08:46:43.000Z</time>
      </trkpt>
      <trkpt lat="45.37106" lon="5.81431">
        <ele>1940</ele>
        <time>2012-05-19T08:46:44.000Z</time>
      </trkpt>
      <trkpt lat="45.37105" lon="5.81425">
        <ele>1941.4000244141</ele>
        <time>2012-05-19T08:46:50.000Z</time>
      </trkpt>
      <trkpt lat="45.37103" lon="5.81418">
        <ele>1944.4000244141</ele>
        <time>2012-05-19T08:46:57.000Z</time>
      </trkpt>
      <trkpt lat="45.37103" lon="5.81413">
        <ele>1945.8000488281</ele>
        <time>2012-05-19T08:47:03.000Z</time>
      </trkpt>
      <trkpt lat="45.37101" lon="5.81406">
        <ele>1947.1999511719</ele>
        <time>2012-05-19T08:47:11.000Z</time>
      </trkpt>
      <trkpt lat="45.371" lon="5.814">
        <ele>1948.5999755859</ele>
        <time>2012-05-19T08:47:17.000Z</time>
      </trkpt>
      <trkpt lat="45.37099" lon="5.81397">
        <ele>1949.5999755859</ele>
        <time>2012-05-19T08:47:22.000Z</time>
      </trkpt>
      <trkpt lat="45.37099" lon="5.81392">
        <ele>1952</ele>
        <time>2012-05-19T08:47:27.000Z</time>
      </trkpt>
      <trkpt lat="45.37098" lon="5.81387">
        <ele>1954.8000488281</ele>
        <time>2012-05-19T08:47:33.000Z</time>
      </trkpt>
      <trkpt lat="45.37098" lon="5.81384">
        <ele>1955.8000488281</ele>
        <time>2012-05-19T08:47:37.000Z</time>
      </trkpt>
      <trkpt lat="45.37097" lon="5.8138">
        <ele>1958.1999511719</ele>
        <time>2012-05-19T08:47:42.000Z</time>
      </trkpt>
      <trkpt lat="45.37096" lon="5.81376">
        <ele>1960.1999511719</ele>
        <time>2012-05-19T08:47:47.000Z</time>
      </trkpt>
      <trkpt lat="45.37095" lon="5.81373">
        <ele>1960.5999755859</ele>
        <time>2012-05-19T08:47:51.000Z</time>
      </trkpt>
      <trkpt lat="45.37094" lon="5.81368">
        <ele>1961.5999755859</ele>
        <time>2012-05-19T08:47:57.000Z</time>
      </trkpt>
      <trkpt lat="45.37096" lon="5.81365">
        <ele>1962</ele>
        <time>2012-05-19T08:48:02.000Z</time>
      </trkpt>
      <trkpt lat="45.37096" lon="5.8136">
        <ele>1965</ele>
        <time>2012-05-19T08:48:08.000Z</time>
      </trkpt>
      <trkpt lat="45.37096" lon="5.81358">
        <ele>1967.4000244141</ele>
        <time>2012-05-19T08:48:13.000Z</time>
      </trkpt>
      <trkpt lat="45.37095" lon="5.81353">
        <ele>1969.8000488281</ele>
        <time>2012-05-19T08:48:19.000Z</time>
      </trkpt>
      <trkpt lat="45.37093" lon="5.81349">
        <ele>1971.1999511719</ele>
        <time>2012-05-19T08:48:24.000Z</time>
      </trkpt>
      <trkpt lat="45.37091" lon="5.81343">
        <ele>1972.5999755859</ele>
        <time>2012-05-19T08:48:32.000Z</time>
      </trkpt>
      <trkpt lat="45.3709" lon="5.8134">
        <ele>1972.5999755859</ele>
        <time>2012-05-19T08:48:37.000Z</time>
      </trkpt>
      <trkpt lat="45.3709" lon="5.81338">
        <ele>1973.1999511719</ele>
        <time>2012-05-19T08:48:41.000Z</time>
      </trkpt>
      <trkpt lat="45.37087" lon="5.81338">
        <ele>1974.5999755859</ele>
        <time>2012-05-19T08:48:45.000Z</time>
      </trkpt>
      <trkpt lat="45.3708" lon="5.8133">
        <ele>1976</ele>
        <time>2012-05-19T08:48:50.000Z</time>
      </trkpt>
      <trkpt lat="45.37075" lon="5.81325">
        <ele>1977.4000244141</ele>
        <time>2012-05-19T08:48:54.000Z</time>
      </trkpt>
      <trkpt lat="45.37075" lon="5.81321">
        <ele>1979.4000244141</ele>
        <time>2012-05-19T08:49:00.000Z</time>
      </trkpt>
      <trkpt lat="45.37074" lon="5.81316">
        <ele>1981.8000488281</ele>
        <time>2012-05-19T08:49:08.000Z</time>
      </trkpt>
      <trkpt lat="45.37075" lon="5.81312">
        <ele>1984.5999755859</ele>
        <time>2012-05-19T08:49:14.000Z</time>
      </trkpt>
      <trkpt lat="45.37077" lon="5.81309">
        <ele>1987</ele>
        <time>2012-05-19T08:49:18.000Z</time>
      </trkpt>
      <trkpt lat="45.37076" lon="5.81308">
        <ele>1988</ele>
        <time>2012-05-19T08:49:21.000Z</time>
      </trkpt>
      <trkpt lat="45.37077" lon="5.81306">
        <ele>1989</ele>
        <time>2012-05-19T08:49:24.000Z</time>
      </trkpt>
      <trkpt lat="45.37077" lon="5.81302">
        <ele>1987.5999755859</ele>
        <time>2012-05-19T08:49:29.000Z</time>
      </trkpt>
      <trkpt lat="45.37076" lon="5.81298">
        <ele>1988.5999755859</ele>
        <time>2012-05-19T08:49:35.000Z</time>
      </trkpt>
      <trkpt lat="45.37075" lon="5.81294">
        <ele>1990.4000244141</ele>
        <time>2012-05-19T08:49:41.000Z</time>
      </trkpt>
      <trkpt lat="45.37075" lon="5.81291">
        <ele>1991.8000488281</ele>
        <time>2012-05-19T08:49:46.000Z</time>
      </trkpt>
      <trkpt lat="45.37076" lon="5.81288">
        <ele>1993.4000244141</ele>
        <time>2012-05-19T08:49:51.000Z</time>
      </trkpt>
      <trkpt lat="45.37077" lon="5.81285">
        <ele>1994.1999511719</ele>
        <time>2012-05-19T08:49:56.000Z</time>
      </trkpt>
      <trkpt lat="45.37076" lon="5.81282">
        <ele>1995.1999511719</ele>
        <time>2012-05-19T08:50:01.000Z</time>
      </trkpt>
      <trkpt lat="45.37076" lon="5.8128">
        <ele>1997.1999511719</ele>
        <time>2012-05-19T08:50:06.000Z</time>
      </trkpt>
      <trkpt lat="45.37073" lon="5.81273">
        <ele>1999.5999755859</ele>
        <time>2012-05-19T08:50:11.000Z</time>
      </trkpt>
      <trkpt lat="45.37073" lon="5.8127">
        <ele>2001</ele>
        <time>2012-05-19T08:50:15.000Z</time>
      </trkpt>
      <trkpt lat="45.37073" lon="5.81268">
        <ele>2001.5999755859</ele>
        <time>2012-05-19T08:50:18.000Z</time>
      </trkpt>
      <trkpt lat="45.37071" lon="5.81266">
        <ele>2004</ele>
        <time>2012-05-19T08:50:22.000Z</time>
      </trkpt>
      <trkpt lat="45.37069" lon="5.81265">
        <ele>2004.8000488281</ele>
        <time>2012-05-19T08:50:26.000Z</time>
      </trkpt>
      <trkpt lat="45.37069" lon="5.8126">
        <ele>2005.4000244141</ele>
        <time>2012-05-19T08:50:31.000Z</time>
      </trkpt>
      <trkpt lat="45.37069" lon="5.81258">
        <ele>2005.8000488281</ele>
        <time>2012-05-19T08:50:35.000Z</time>
      </trkpt>
      <trkpt lat="45.37068" lon="5.81255">
        <ele>2007.8000488281</ele>
        <time>2012-05-19T08:50:41.000Z</time>
      </trkpt>
      <trkpt lat="45.37069" lon="5.81253">
        <ele>2008.1999511719</ele>
        <time>2012-05-19T08:50:44.000Z</time>
      </trkpt>
      <trkpt lat="45.37069" lon="5.81251">
        <ele>2009.1999511719</ele>
        <time>2012-05-19T08:50:48.000Z</time>
      </trkpt>
      <trkpt lat="45.37068" lon="5.81249">
        <ele>2011.1999511719</ele>
        <time>2012-05-19T08:50:53.000Z</time>
      </trkpt>
      <trkpt lat="45.37067" lon="5.81247">
        <ele>2012.5999755859</ele>
        <time>2012-05-19T08:50:57.000Z</time>
      </trkpt>
      <trkpt lat="45.37063" lon="5.81243">
        <ele>2013.5999755859</ele>
        <time>2012-05-19T08:51:02.000Z</time>
      </trkpt>
      <trkpt lat="45.3706" lon="5.81238">
        <ele>2014.4000244141</ele>
        <time>2012-05-19T08:51:08.000Z</time>
      </trkpt>
      <trkpt lat="45.3706" lon="5.81232">
        <ele>2015.4000244141</ele>
        <time>2012-05-19T08:51:15.000Z</time>
      </trkpt>
      <trkpt lat="45.37059" lon="5.81228">
        <ele>2016.8000488281</ele>
        <time>2012-05-19T08:51:18.000Z</time>
      </trkpt>
      <trkpt lat="45.37058" lon="5.81225">
        <ele>2018.8000488281</ele>
        <time>2012-05-19T08:51:23.000Z</time>
      </trkpt>
      <trkpt lat="45.37054" lon="5.81222">
        <ele>2021.5999755859</ele>
        <time>2012-05-19T08:51:29.000Z</time>
      </trkpt>
      <trkpt lat="45.37053" lon="5.81218">
        <ele>2023.5999755859</ele>
        <time>2012-05-19T08:51:34.000Z</time>
      </trkpt>
      <trkpt lat="45.37051" lon="5.81212">
        <ele>2025</ele>
        <time>2012-05-19T08:51:40.000Z</time>
      </trkpt>
      <trkpt lat="45.3705" lon="5.8121">
        <ele>2026.4000244141</ele>
        <time>2012-05-19T08:51:43.000Z</time>
      </trkpt>
      <trkpt lat="45.37051" lon="5.81205">
        <ele>2026.4000244141</ele>
        <time>2012-05-19T08:51:49.000Z</time>
      </trkpt>
      <trkpt lat="45.37057" lon="5.81208">
        <ele>2026.4000244141</ele>
        <time>2012-05-19T08:51:54.000Z</time>
      </trkpt>
      <trkpt lat="45.37059" lon="5.81208">
        <ele>2026</ele>
        <time>2012-05-19T08:51:55.000Z</time>
      </trkpt>
      <trkpt lat="45.37077" lon="5.81209">
        <ele>2023.1999511719</ele>
        <time>2012-05-19T08:52:01.000Z</time>
      </trkpt>
      <trkpt lat="45.37085" lon="5.81205">
        <ele>2021.1999511719</ele>
        <time>2012-05-19T08:52:04.000Z</time>
      </trkpt>
      <trkpt lat="45.37101" lon="5.81203">
        <ele>2019.8000488281</ele>
        <time>2012-05-19T08:52:09.000Z</time>
      </trkpt>
      <trkpt lat="45.37104" lon="5.81203">
        <ele>2019.1999511719</ele>
        <time>2012-05-19T08:52:10.000Z</time>
      </trkpt>
      <trkpt lat="45.37117" lon="5.81206">
        <ele>2016.8000488281</ele>
        <time>2012-05-19T08:52:15.000Z</time>
      </trkpt>
      <trkpt lat="45.37129" lon="5.81213">
        <ele>2015</ele>
        <time>2012-05-19T08:52:19.000Z</time>
      </trkpt>
      <trkpt lat="45.37133" lon="5.81225">
        <ele>2013.5999755859</ele>
        <time>2012-05-19T08:52:22.000Z</time>
      </trkpt>
      <trkpt lat="45.37139" lon="5.81237">
        <ele>2011.5999755859</ele>
        <time>2012-05-19T08:52:26.000Z</time>
      </trkpt>
      <trkpt lat="45.37153" lon="5.8124">
        <ele>2009.5999755859</ele>
        <time>2012-05-19T08:52:30.000Z</time>
      </trkpt>
      <trkpt lat="45.37167" lon="5.81246">
        <ele>2005.8000488281</ele>
        <time>2012-05-19T08:52:34.000Z</time>
      </trkpt>
      <trkpt lat="45.37179" lon="5.81253">
        <ele>2003.4000244141</ele>
        <time>2012-05-19T08:52:38.000Z</time>
      </trkpt>
      <trkpt lat="45.37187" lon="5.81264">
        <ele>2000.5999755859</ele>
        <time>2012-05-19T08:52:42.000Z</time>
      </trkpt>
      <trkpt lat="45.37191" lon="5.81265">
        <ele>2000</ele>
        <time>2012-05-19T08:52:43.000Z</time>
      </trkpt>
      <trkpt lat="45.37203" lon="5.81279">
        <ele>1995.1999511719</ele>
        <time>2012-05-19T08:52:48.000Z</time>
      </trkpt>
      <trkpt lat="45.37212" lon="5.81286">
        <ele>1993.4000244141</ele>
        <time>2012-05-19T08:52:51.000Z</time>
      </trkpt>
      <trkpt lat="45.37226" lon="5.81292">
        <ele>1989.4000244141</ele>
        <time>2012-05-19T08:52:55.000Z</time>
      </trkpt>
      <trkpt lat="45.37243" lon="5.81302">
        <ele>1985.1999511719</ele>
        <time>2012-05-19T08:53:00.000Z</time>
      </trkpt>
      <trkpt lat="45.37256" lon="5.81315">
        <ele>1979.8000488281</ele>
        <time>2012-05-19T08:53:05.000Z</time>
      </trkpt>
      <trkpt lat="45.37269" lon="5.81324">
        <ele>1974.5999755859</ele>
        <time>2012-05-19T08:53:09.000Z</time>
      </trkpt>
      <trkpt lat="45.37276" lon="5.81333">
        <ele>1968.8000488281</ele>
        <time>2012-05-19T08:53:14.000Z</time>
      </trkpt>
      <trkpt lat="45.37287" lon="5.81338">
        <ele>1964.4000244141</ele>
        <time>2012-05-19T08:53:19.000Z</time>
      </trkpt>
      <trkpt lat="45.37289" lon="5.81337">
        <ele>1963.5999755859</ele>
        <time>2012-05-19T08:53:20.000Z</time>
      </trkpt>
      <trkpt lat="45.37304" lon="5.81332">
        <ele>1960.1999511719</ele>
        <time>2012-05-19T08:53:26.000Z</time>
      </trkpt>
      <trkpt lat="45.37317" lon="5.81327">
        <ele>1957.8000488281</ele>
        <time>2012-05-19T08:53:30.000Z</time>
      </trkpt>
      <trkpt lat="45.37329" lon="5.81327">
        <ele>1957.8000488281</ele>
        <time>2012-05-19T08:53:35.000Z</time>
      </trkpt>
      <trkpt lat="45.37345" lon="5.8133">
        <ele>1957.8000488281</ele>
        <time>2012-05-19T08:53:41.000Z</time>
      </trkpt>
      <trkpt lat="45.3736" lon="5.81331">
        <ele>1959.1999511719</ele>
        <time>2012-05-19T08:53:46.000Z</time>
      </trkpt>
      <trkpt lat="45.37377" lon="5.81331">
        <ele>1958.1999511719</ele>
        <time>2012-05-19T08:53:51.000Z</time>
      </trkpt>
      <trkpt lat="45.37392" lon="5.81331">
        <ele>1955.8000488281</ele>
        <time>2012-05-19T08:53:56.000Z</time>
      </trkpt>
      <trkpt lat="45.37408" lon="5.81329">
        <ele>1954</ele>
        <time>2012-05-19T08:54:01.000Z</time>
      </trkpt>
      <trkpt lat="45.37425" lon="5.81327">
        <ele>1952</ele>
        <time>2012-05-19T08:54:06.000Z</time>
      </trkpt>
      <trkpt lat="45.37441" lon="5.81327">
        <ele>1951.5999755859</ele>
        <time>2012-05-19T08:54:11.000Z</time>
      </trkpt>
      <trkpt lat="45.37458" lon="5.81327">
        <ele>1950</ele>
        <time>2012-05-19T08:54:16.000Z</time>
      </trkpt>
      <trkpt lat="45.37471" lon="5.81328">
        <ele>1948.5999755859</ele>
        <time>2012-05-19T08:54:20.000Z</time>
      </trkpt>
      <trkpt lat="45.37482" lon="5.81327">
        <ele>1948.5999755859</ele>
        <time>2012-05-19T08:54:24.000Z</time>
      </trkpt>
      <trkpt lat="45.37493" lon="5.81326">
        <ele>1948.5999755859</ele>
        <time>2012-05-19T08:54:28.000Z</time>
      </trkpt>
      <trkpt lat="45.37505" lon="5.81325">
        <ele>1948.5999755859</ele>
        <time>2012-05-19T08:54:32.000Z</time>
      </trkpt>
      <trkpt lat="45.37517" lon="5.81327">
        <ele>1948.1999511719</ele>
        <time>2012-05-19T08:54:36.000Z</time>
      </trkpt>
      <trkpt lat="45.37532" lon="5.81331">
        <ele>1946.1999511719</ele>
        <time>2012-05-19T08:54:41.000Z</time>
      </trkpt>
      <trkpt lat="45.37546" lon="5.81337">
        <ele>1944.4000244141</ele>
        <time>2012-05-19T08:54:46.000Z</time>
      </trkpt>
      <trkpt lat="45.37553" lon="5.81341">
        <ele>1943.4000244141</ele>
        <time>2012-05-19T08:54:50.000Z</time>
      </trkpt>
      <trkpt lat="45.37569" lon="5.8135">
        <ele>1941</ele>
        <time>2012-05-19T08:54:57.000Z</time>
      </trkpt>
      <trkpt lat="45.3758" lon="5.81351">
        <ele>1940</ele>
        <time>2012-05-19T08:55:04.000Z</time>
      </trkpt>
      <trkpt lat="45.37581" lon="5.81351">
        <ele>1939.4000244141</ele>
        <time>2012-05-19T08:55:05.000Z</time>
      </trkpt>
      <trkpt lat="45.37586" lon="5.8135">
        <ele>1939.4000244141</ele>
        <time>2012-05-19T08:55:09.000Z</time>
      </trkpt>
      <trkpt lat="45.37593" lon="5.81348">
        <ele>1938</ele>
        <time>2012-05-19T08:55:14.000Z</time>
      </trkpt>
      <trkpt lat="45.37597" lon="5.81346">
        <ele>1938</ele>
        <time>2012-05-19T08:55:17.000Z</time>
      </trkpt>
      <trkpt lat="45.37605" lon="5.81347">
        <ele>1937.5999755859</ele>
        <time>2012-05-19T08:55:22.000Z</time>
      </trkpt>
      <trkpt lat="45.37613" lon="5.8135">
        <ele>1935.5999755859</ele>
        <time>2012-05-19T08:55:28.000Z</time>
      </trkpt>
      <trkpt lat="45.37618" lon="5.81355">
        <ele>1935.1999511719</ele>
        <time>2012-05-19T08:55:33.000Z</time>
      </trkpt>
      <trkpt lat="45.37624" lon="5.81357">
        <ele>1935.5999755859</ele>
        <time>2012-05-19T08:55:38.000Z</time>
      </trkpt>
      <trkpt lat="45.3763" lon="5.81358">
        <ele>1935.1999511719</ele>
        <time>2012-05-19T08:55:42.000Z</time>
      </trkpt>
      <trkpt lat="45.37633" lon="5.81359">
        <ele>1934.5999755859</ele>
        <time>2012-05-19T08:55:45.000Z</time>
      </trkpt>
      <trkpt lat="45.37634" lon="5.81366">
        <ele>1933.1999511719</ele>
        <time>2012-05-19T08:55:51.000Z</time>
      </trkpt>
      <trkpt lat="45.37635" lon="5.8137">
        <ele>1932.1999511719</ele>
        <time>2012-05-19T08:55:55.000Z</time>
      </trkpt>
      <trkpt lat="45.37636" lon="5.8137">
        <ele>1931.8000488281</ele>
        <time>2012-05-19T08:55:56.000Z</time>
      </trkpt>
      <trkpt lat="45.37644" lon="5.81374">
        <ele>1929</ele>
        <time>2012-05-19T08:56:02.000Z</time>
      </trkpt>
      <trkpt lat="45.37646" lon="5.81377">
        <ele>1928</ele>
        <time>2012-05-19T08:56:04.000Z</time>
      </trkpt>
      <trkpt lat="45.37648" lon="5.81384">
        <ele>1924.1999511719</ele>
        <time>2012-05-19T08:56:09.000Z</time>
      </trkpt>
      <trkpt lat="45.37651" lon="5.8139">
        <ele>1921.1999511719</ele>
        <time>2012-05-19T08:56:14.000Z</time>
      </trkpt>
      <trkpt lat="45.37654" lon="5.81393">
        <ele>1919.4000244141</ele>
        <time>2012-05-19T08:56:17.000Z</time>
      </trkpt>
      <trkpt lat="45.37656" lon="5.81397">
        <ele>1916.4000244141</ele>
        <time>2012-05-19T08:56:21.000Z</time>
      </trkpt>
      <trkpt lat="45.37657" lon="5.81401">
        <ele>1914</ele>
        <time>2012-05-19T08:56:24.000Z</time>
      </trkpt>
      <trkpt lat="45.3766" lon="5.8141">
        <ele>1911.1999511719</ele>
        <time>2012-05-19T08:56:28.000Z</time>
      </trkpt>
      <trkpt lat="45.37664" lon="5.81413">
        <ele>1908.1999511719</ele>
        <time>2012-05-19T08:56:32.000Z</time>
      </trkpt>
      <trkpt lat="45.37671" lon="5.81416">
        <ele>1907.8000488281</ele>
        <time>2012-05-19T08:56:34.000Z</time>
      </trkpt>
      <trkpt lat="45.37682" lon="5.81418">
        <ele>1905.8000488281</ele>
        <time>2012-05-19T08:56:39.000Z</time>
      </trkpt>
      <trkpt lat="45.37684" lon="5.8142">
        <ele>1905.4000244141</ele>
        <time>2012-05-19T08:56:41.000Z</time>
      </trkpt>
      <trkpt lat="45.37683" lon="5.81425">
        <ele>1903.4000244141</ele>
        <time>2012-05-19T08:56:46.000Z</time>
      </trkpt>
      <trkpt lat="45.37685" lon="5.81434">
        <ele>1902.4000244141</ele>
        <time>2012-05-19T08:56:50.000Z</time>
      </trkpt>
      <trkpt lat="45.37687" lon="5.81435">
        <ele>1903</ele>
        <time>2012-05-19T08:56:51.000Z</time>
      </trkpt>
      <trkpt lat="45.37685" lon="5.81446">
        <ele>1902.4000244141</ele>
        <time>2012-05-19T08:56:54.000Z</time>
      </trkpt>
      <trkpt lat="45.37686" lon="5.8145">
        <ele>1902</ele>
        <time>2012-05-19T08:56:55.000Z</time>
      </trkpt>
      <trkpt lat="45.37693" lon="5.81452">
        <ele>1899.5999755859</ele>
        <time>2012-05-19T08:56:59.000Z</time>
      </trkpt>
      <trkpt lat="45.37697" lon="5.81451">
        <ele>1899.1999511719</ele>
        <time>2012-05-19T08:57:01.000Z</time>
      </trkpt>
      <trkpt lat="45.37699" lon="5.81456">
        <ele>1897.5999755859</ele>
        <time>2012-05-19T08:57:04.000Z</time>
      </trkpt>
      <trkpt lat="45.37704" lon="5.8146">
        <ele>1897.1999511719</ele>
        <time>2012-05-19T08:57:07.000Z</time>
      </trkpt>
      <trkpt lat="45.37707" lon="5.8146">
        <ele>1896.8000488281</ele>
        <time>2012-05-19T08:57:09.000Z</time>
      </trkpt>
      <trkpt lat="45.37709" lon="5.81468">
        <ele>1894.4000244141</ele>
        <time>2012-05-19T08:57:14.000Z</time>
      </trkpt>
      <trkpt lat="45.37712" lon="5.81469">
        <ele>1893.8000488281</ele>
        <time>2012-05-19T08:57:17.000Z</time>
      </trkpt>
      <trkpt lat="45.37714" lon="5.81468">
        <ele>1893.8000488281</ele>
        <time>2012-05-19T08:57:19.000Z</time>
      </trkpt>
      <trkpt lat="45.37717" lon="5.81467">
        <ele>1894.4000244141</ele>
        <time>2012-05-19T08:57:21.000Z</time>
      </trkpt>
      <trkpt lat="45.37725" lon="5.81469">
        <ele>1894.4000244141</ele>
        <time>2012-05-19T08:57:27.000Z</time>
      </trkpt>
      <trkpt lat="45.37728" lon="5.81474">
        <ele>1894.8000488281</ele>
        <time>2012-05-19T08:57:31.000Z</time>
      </trkpt>
      <trkpt lat="45.37727" lon="5.81479">
        <ele>1893.4000244141</ele>
        <time>2012-05-19T08:57:35.000Z</time>
      </trkpt>
      <trkpt lat="45.37726" lon="5.81484">
        <ele>1892</ele>
        <time>2012-05-19T08:57:38.000Z</time>
      </trkpt>
      <trkpt lat="45.37732" lon="5.81483">
        <ele>1890</ele>
        <time>2012-05-19T08:57:41.000Z</time>
      </trkpt>
      <trkpt lat="45.3774" lon="5.81481">
        <ele>1887.5999755859</ele>
        <time>2012-05-19T08:57:45.000Z</time>
      </trkpt>
      <trkpt lat="45.37753" lon="5.81481">
        <ele>1885.5999755859</ele>
        <time>2012-05-19T08:57:50.000Z</time>
      </trkpt>
      <trkpt lat="45.3776" lon="5.81479">
        <ele>1883.1999511719</ele>
        <time>2012-05-19T08:57:55.000Z</time>
      </trkpt>
      <trkpt lat="45.37761" lon="5.81479">
        <ele>1882.1999511719</ele>
        <time>2012-05-19T08:57:56.000Z</time>
      </trkpt>
      <trkpt lat="45.37764" lon="5.8148">
        <ele>1880.8000488281</ele>
        <time>2012-05-19T08:57:59.000Z</time>
      </trkpt>
      <trkpt lat="45.37771" lon="5.81476">
        <ele>1879.8000488281</ele>
        <time>2012-05-19T08:58:04.000Z</time>
      </trkpt>
      <trkpt lat="45.37776" lon="5.81474">
        <ele>1878</ele>
        <time>2012-05-19T08:58:07.000Z</time>
      </trkpt>
      <trkpt lat="45.3778" lon="5.81473">
        <ele>1877</ele>
        <time>2012-05-19T08:58:12.000Z</time>
      </trkpt>
      <trkpt lat="45.37785" lon="5.81476">
        <ele>1877</ele>
        <time>2012-05-19T08:58:17.000Z</time>
      </trkpt>
      <trkpt lat="45.37788" lon="5.81474">
        <ele>1876</ele>
        <time>2012-05-19T08:58:19.000Z</time>
      </trkpt>
      <trkpt lat="45.37797" lon="5.81476">
        <ele>1873.5999755859</ele>
        <time>2012-05-19T08:58:25.000Z</time>
      </trkpt>
      <trkpt lat="45.37804" lon="5.8148">
        <ele>1872.1999511719</ele>
        <time>2012-05-19T08:58:30.000Z</time>
      </trkpt>
      <trkpt lat="45.37805" lon="5.8148">
        <ele>1871.8000488281</ele>
        <time>2012-05-19T08:58:31.000Z</time>
      </trkpt>
      <trkpt lat="45.3781" lon="5.8148">
        <ele>1870.8000488281</ele>
        <time>2012-05-19T08:58:35.000Z</time>
      </trkpt>
      <trkpt lat="45.37817" lon="5.81479">
        <ele>1871.1999511719</ele>
        <time>2012-05-19T08:58:41.000Z</time>
      </trkpt>
      <trkpt lat="45.37821" lon="5.81478">
        <ele>1867.8000488281</ele>
        <time>2012-05-19T08:58:45.000Z</time>
      </trkpt>
      <trkpt lat="45.37822" lon="5.81478">
        <ele>1867.4000244141</ele>
        <time>2012-05-19T08:58:46.000Z</time>
      </trkpt>
      <trkpt lat="45.37827" lon="5.81477">
        <ele>1867</ele>
        <time>2012-05-19T08:58:50.000Z</time>
      </trkpt>
      <trkpt lat="45.37836" lon="5.81477">
        <ele>1866.4000244141</ele>
        <time>2012-05-19T08:58:55.000Z</time>
      </trkpt>
      <trkpt lat="45.37846" lon="5.81479">
        <ele>1865.4000244141</ele>
        <time>2012-05-19T08:58:59.000Z</time>
      </trkpt>
      <trkpt lat="45.37857" lon="5.81481">
        <ele>1864.5999755859</ele>
        <time>2012-05-19T08:59:03.000Z</time>
      </trkpt>
      <trkpt lat="45.37866" lon="5.81482">
        <ele>1863</ele>
        <time>2012-05-19T08:59:07.000Z</time>
      </trkpt>
      <trkpt lat="45.3787" lon="5.81484">
        <ele>1861.1999511719</ele>
        <time>2012-05-19T08:59:11.000Z</time>
      </trkpt>
      <trkpt lat="45.37876" lon="5.81488">
        <ele>1859.8000488281</ele>
        <time>2012-05-19T08:59:15.000Z</time>
      </trkpt>
      <trkpt lat="45.37881" lon="5.8149">
        <ele>1858.8000488281</ele>
        <time>2012-05-19T08:59:19.000Z</time>
      </trkpt>
      <trkpt lat="45.37885" lon="5.81489">
        <ele>1858.1999511719</ele>
        <time>2012-05-19T08:59:22.000Z</time>
      </trkpt>
      <trkpt lat="45.37892" lon="5.81492">
        <ele>1857.8000488281</ele>
        <time>2012-05-19T08:59:27.000Z</time>
      </trkpt>
      <trkpt lat="45.37893" lon="5.81492">
        <ele>1857.4000244141</ele>
        <time>2012-05-19T08:59:28.000Z</time>
      </trkpt>
      <trkpt lat="45.37899" lon="5.81493">
        <ele>1855.8000488281</ele>
        <time>2012-05-19T08:59:33.000Z</time>
      </trkpt>
      <trkpt lat="45.37906" lon="5.8149">
        <ele>1856.4000244141</ele>
        <time>2012-05-19T08:59:40.000Z</time>
      </trkpt>
      <trkpt lat="45.37908" lon="5.81491">
        <ele>1856.8000488281</ele>
        <time>2012-05-19T08:59:43.000Z</time>
      </trkpt>
      <trkpt lat="45.3791" lon="5.81492">
        <ele>1857.4000244141</ele>
        <time>2012-05-19T08:59:45.000Z</time>
      </trkpt>
      <trkpt lat="45.37915" lon="5.81498">
        <ele>1857.8000488281</ele>
        <time>2012-05-19T08:59:50.000Z</time>
      </trkpt>
      <trkpt lat="45.37917" lon="5.81499">
        <ele>1857.8000488281</ele>
        <time>2012-05-19T08:59:52.000Z</time>
      </trkpt>
      <trkpt lat="45.3792" lon="5.81501">
        <ele>1859.1999511719</ele>
        <time>2012-05-19T08:59:57.000Z</time>
      </trkpt>
      <trkpt lat="45.37924" lon="5.81503">
        <ele>1861.1999511719</ele>
        <time>2012-05-19T09:00:02.000Z</time>
      </trkpt>
      <trkpt lat="45.37929" lon="5.81505">
        <ele>1862.1999511719</ele>
        <time>2012-05-19T09:00:06.000Z</time>
      </trkpt>
      <trkpt lat="45.37936" lon="5.81506">
        <ele>1863</ele>
        <time>2012-05-19T09:00:12.000Z</time>
      </trkpt>
      <trkpt lat="45.37939" lon="5.81509">
        <ele>1862.5999755859</ele>
        <time>2012-05-19T09:00:15.000Z</time>
      </trkpt>
      <trkpt lat="45.37945" lon="5.81511">
        <ele>1861.5999755859</ele>
        <time>2012-05-19T09:00:19.000Z</time>
      </trkpt>
      <trkpt lat="45.37952" lon="5.81513">
        <ele>1862.1999511719</ele>
        <time>2012-05-19T09:00:23.000Z</time>
      </trkpt>
      <trkpt lat="45.37954" lon="5.81512">
        <ele>1862.1999511719</ele>
        <time>2012-05-19T09:00:24.000Z</time>
      </trkpt>
      <trkpt lat="45.37957" lon="5.81513">
        <ele>1861.5999755859</ele>
        <time>2012-05-19T09:00:27.000Z</time>
      </trkpt>
      <trkpt lat="45.37966" lon="5.81514">
        <ele>1860.5999755859</ele>
        <time>2012-05-19T09:00:32.000Z</time>
      </trkpt>
      <trkpt lat="45.37969" lon="5.81516">
        <ele>1860.5999755859</ele>
        <time>2012-05-19T09:00:35.000Z</time>
      </trkpt>
      <trkpt lat="45.37974" lon="5.81514">
        <ele>1860.1999511719</ele>
        <time>2012-05-19T09:00:40.000Z</time>
      </trkpt>
      <trkpt lat="45.37975" lon="5.81513">
        <ele>1859.8000488281</ele>
        <time>2012-05-19T09:00:43.000Z</time>
      </trkpt>
      <trkpt lat="45.37977" lon="5.81501">
        <ele>1857.8000488281</ele>
        <time>2012-05-19T09:00:47.000Z</time>
      </trkpt>
      <trkpt lat="45.37987" lon="5.81498">
        <ele>1856.4000244141</ele>
        <time>2012-05-19T09:00:51.000Z</time>
      </trkpt>
      <trkpt lat="45.38003" lon="5.81505">
        <ele>1853.4000244141</ele>
        <time>2012-05-19T09:00:56.000Z</time>
      </trkpt>
      <trkpt lat="45.38009" lon="5.81506">
        <ele>1851</ele>
        <time>2012-05-19T09:00:59.000Z</time>
      </trkpt>
      <trkpt lat="45.38016" lon="5.81505">
        <ele>1848.5999755859</ele>
        <time>2012-05-19T09:01:03.000Z</time>
      </trkpt>
      <trkpt lat="45.38026" lon="5.81508">
        <ele>1846.1999511719</ele>
        <time>2012-05-19T09:01:08.000Z</time>
      </trkpt>
      <trkpt lat="45.38035" lon="5.81511">
        <ele>1842.8000488281</ele>
        <time>2012-05-19T09:01:12.000Z</time>
      </trkpt>
      <trkpt lat="45.38041" lon="5.81517">
        <ele>1839</ele>
        <time>2012-05-19T09:01:17.000Z</time>
      </trkpt>
      <trkpt lat="45.38044" lon="5.81517">
        <ele>1837.5999755859</ele>
        <time>2012-05-19T09:01:20.000Z</time>
      </trkpt>
      <trkpt lat="45.38051" lon="5.81518">
        <ele>1835.5999755859</ele>
        <time>2012-05-19T09:01:24.000Z</time>
      </trkpt>
      <trkpt lat="45.38063" lon="5.81513">
        <ele>1831.8000488281</ele>
        <time>2012-05-19T09:01:31.000Z</time>
      </trkpt>
      <trkpt lat="45.38066" lon="5.81511">
        <ele>1830.4000244141</ele>
        <time>2012-05-19T09:01:33.000Z</time>
      </trkpt>
      <trkpt lat="45.38069" lon="5.81511">
        <ele>1829.4000244141</ele>
        <time>2012-05-19T09:01:37.000Z</time>
      </trkpt>
      <trkpt lat="45.38071" lon="5.815">
        <ele>1827.5999755859</ele>
        <time>2012-05-19T09:01:43.000Z</time>
      </trkpt>
      <trkpt lat="45.38069" lon="5.81496">
        <ele>1824.5999755859</ele>
        <time>2012-05-19T09:01:47.000Z</time>
      </trkpt>
      <trkpt lat="45.38068" lon="5.81494">
        <ele>1823.5999755859</ele>
        <time>2012-05-19T09:01:48.000Z</time>
      </trkpt>
      <trkpt lat="45.38065" lon="5.81489">
        <ele>1821.8000488281</ele>
        <time>2012-05-19T09:01:54.000Z</time>
      </trkpt>
      <trkpt lat="45.38065" lon="5.81485">
        <ele>1821.1999511719</ele>
        <time>2012-05-19T09:01:56.000Z</time>
      </trkpt>
      <trkpt lat="45.38067" lon="5.81478">
        <ele>1819.4000244141</ele>
        <time>2012-05-19T09:02:01.000Z</time>
      </trkpt>
      <trkpt lat="45.38065" lon="5.81475">
        <ele>1817</ele>
        <time>2012-05-19T09:02:05.000Z</time>
      </trkpt>
      <trkpt lat="45.38063" lon="5.81472">
        <ele>1816</ele>
        <time>2012-05-19T09:02:10.000Z</time>
      </trkpt>
      <trkpt lat="45.38062" lon="5.8147">
        <ele>1813.5999755859</ele>
        <time>2012-05-19T09:02:14.000Z</time>
      </trkpt>
      <trkpt lat="45.38061" lon="5.81469">
        <ele>1811.1999511719</ele>
        <time>2012-05-19T09:02:18.000Z</time>
      </trkpt>
      <trkpt lat="45.38062" lon="5.81467">
        <ele>1808.8000488281</ele>
        <time>2012-05-19T09:02:22.000Z</time>
      </trkpt>
      <trkpt lat="45.38062" lon="5.81465">
        <ele>1808.1999511719</ele>
        <time>2012-05-19T09:02:26.000Z</time>
      </trkpt>
      <trkpt lat="45.38061" lon="5.8146">
        <ele>1807.8000488281</ele>
        <time>2012-05-19T09:02:30.000Z</time>
      </trkpt>
      <trkpt lat="45.3806" lon="5.81457">
        <ele>1805.8000488281</ele>
        <time>2012-05-19T09:02:33.000Z</time>
      </trkpt>
      <trkpt lat="45.3806" lon="5.81453">
        <ele>1804</ele>
        <time>2012-05-19T09:02:36.000Z</time>
      </trkpt>
      <trkpt lat="45.3806" lon="5.81451">
        <ele>1803</ele>
        <time>2012-05-19T09:02:37.000Z</time>
      </trkpt>
      <trkpt lat="45.38056" lon="5.81448">
        <ele>1800.5999755859</ele>
        <time>2012-05-19T09:02:41.000Z</time>
      </trkpt>
      <trkpt lat="45.38054" lon="5.81443">
        <ele>1798.5999755859</ele>
        <time>2012-05-19T09:02:45.000Z</time>
      </trkpt>
      <trkpt lat="45.38054" lon="5.81442">
        <ele>1799.1999511719</ele>
        <time>2012-05-19T09:02:46.000Z</time>
      </trkpt>
      <trkpt lat="45.38059" lon="5.81446">
        <ele>1796.8000488281</ele>
        <time>2012-05-19T09:02:51.000Z</time>
      </trkpt>
      <trkpt lat="45.38061" lon="5.81445">
        <ele>1795.1999511719</ele>
        <time>2012-05-19T09:02:56.000Z</time>
      </trkpt>
      <trkpt lat="45.38063" lon="5.81446">
        <ele>1794.8000488281</ele>
        <time>2012-05-19T09:03:00.000Z</time>
      </trkpt>
      <trkpt lat="45.38069" lon="5.81446">
        <ele>1792.4000244141</ele>
        <time>2012-05-19T09:03:06.000Z</time>
      </trkpt>
      <trkpt lat="45.38073" lon="5.81445">
        <ele>1790.4000244141</ele>
        <time>2012-05-19T09:03:11.000Z</time>
      </trkpt>
      <trkpt lat="45.38076" lon="5.81445">
        <ele>1789</ele>
        <time>2012-05-19T09:03:15.000Z</time>
      </trkpt>
      <trkpt lat="45.3808" lon="5.81444">
        <ele>1786.5999755859</ele>
        <time>2012-05-19T09:03:19.000Z</time>
      </trkpt>
      <trkpt lat="45.38084" lon="5.81442">
        <ele>1786.1999511719</ele>
        <time>2012-05-19T09:03:23.000Z</time>
      </trkpt>
      <trkpt lat="45.3809" lon="5.8144">
        <ele>1783.1999511719</ele>
        <time>2012-05-19T09:03:28.000Z</time>
      </trkpt>
      <trkpt lat="45.38097" lon="5.81442">
        <ele>1781.8000488281</ele>
        <time>2012-05-19T09:03:33.000Z</time>
      </trkpt>
      <trkpt lat="45.38101" lon="5.8144">
        <ele>1780.4000244141</ele>
        <time>2012-05-19T09:03:36.000Z</time>
      </trkpt>
      <trkpt lat="45.38106" lon="5.81443">
        <ele>1777</ele>
        <time>2012-05-19T09:03:42.000Z</time>
      </trkpt>
      <trkpt lat="45.38108" lon="5.81443">
        <ele>1775.5999755859</ele>
        <time>2012-05-19T09:03:45.000Z</time>
      </trkpt>
      <trkpt lat="45.38116" lon="5.81445">
        <ele>1771.8000488281</ele>
        <time>2012-05-19T09:03:51.000Z</time>
      </trkpt>
      <trkpt lat="45.38119" lon="5.81443">
        <ele>1770.4000244141</ele>
        <time>2012-05-19T09:03:54.000Z</time>
      </trkpt>
      <trkpt lat="45.38123" lon="5.81443">
        <ele>1768.4000244141</ele>
        <time>2012-05-19T09:03:57.000Z</time>
      </trkpt>
      <trkpt lat="45.38129" lon="5.81441">
        <ele>1767</ele>
        <time>2012-05-19T09:04:01.000Z</time>
      </trkpt>
      <trkpt lat="45.38136" lon="5.81445">
        <ele>1765</ele>
        <time>2012-05-19T09:04:06.000Z</time>
      </trkpt>
      <trkpt lat="45.38141" lon="5.81448">
        <ele>1763.5999755859</ele>
        <time>2012-05-19T09:04:10.000Z</time>
      </trkpt>
      <trkpt lat="45.38142" lon="5.81447">
        <ele>1762.5999755859</ele>
        <time>2012-05-19T09:04:11.000Z</time>
      </trkpt>
      <trkpt lat="45.38147" lon="5.81444">
        <ele>1759.8000488281</ele>
        <time>2012-05-19T09:04:15.000Z</time>
      </trkpt>
      <trkpt lat="45.38153" lon="5.81447">
        <ele>1753.4000244141</ele>
        <time>2012-05-19T09:04:20.000Z</time>
      </trkpt>
      <trkpt lat="45.38158" lon="5.81452">
        <ele>1751.5999755859</ele>
        <time>2012-05-19T09:04:24.000Z</time>
      </trkpt>
      <trkpt lat="45.38164" lon="5.81458">
        <ele>1749.1999511719</ele>
        <time>2012-05-19T09:04:28.000Z</time>
      </trkpt>
      <trkpt lat="45.38166" lon="5.81457">
        <ele>1748.5999755859</ele>
        <time>2012-05-19T09:04:32.000Z</time>
      </trkpt>
      <trkpt lat="45.38167" lon="5.81457">
        <ele>1748.1999511719</ele>
        <time>2012-05-19T09:04:33.000Z</time>
      </trkpt>
      <trkpt lat="45.3817" lon="5.81449">
        <ele>1746.8000488281</ele>
        <time>2012-05-19T09:04:39.000Z</time>
      </trkpt>
      <trkpt lat="45.38172" lon="5.81446">
        <ele>1745.4000244141</ele>
        <time>2012-05-19T09:04:43.000Z</time>
      </trkpt>
      <trkpt lat="45.38172" lon="5.81444">
        <ele>1744.4000244141</ele>
        <time>2012-05-19T09:04:47.000Z</time>
      </trkpt>
      <trkpt lat="45.3817" lon="5.81445">
        <ele>1743.8000488281</ele>
        <time>2012-05-19T09:04:52.000Z</time>
      </trkpt>
      <trkpt lat="45.38168" lon="5.81441">
        <ele>1743.8000488281</ele>
        <time>2012-05-19T09:04:57.000Z</time>
      </trkpt>
      <trkpt lat="45.38166" lon="5.81436">
        <ele>1751</ele>
        <time>2012-05-19T09:05:12.000Z</time>
      </trkpt>
      <trkpt lat="45.38166" lon="5.81434">
        <ele>1751.5999755859</ele>
        <time>2012-05-19T09:05:16.000Z</time>
      </trkpt>
      <trkpt lat="45.38167" lon="5.81435">
        <ele>1749.5999755859</ele>
        <time>2012-05-19T09:05:23.000Z</time>
      </trkpt>
      <trkpt lat="45.38168" lon="5.81434">
        <ele>1749.1999511719</ele>
        <time>2012-05-19T09:05:29.000Z</time>
      </trkpt>
      <trkpt lat="45.38169" lon="5.81433">
        <ele>1748.1999511719</ele>
        <time>2012-05-19T09:05:35.000Z</time>
      </trkpt>
      <trkpt lat="45.38169" lon="5.81432">
        <ele>1744.4000244141</ele>
        <time>2012-05-19T09:05:38.000Z</time>
      </trkpt>
      <trkpt lat="45.38168" lon="5.8143">
        <ele>1737.5999755859</ele>
        <time>2012-05-19T09:05:49.000Z</time>
      </trkpt>
      <trkpt lat="45.38169" lon="5.81428">
        <ele>1736.1999511719</ele>
        <time>2012-05-19T09:05:55.000Z</time>
      </trkpt>
      <trkpt lat="45.38168" lon="5.81425">
        <ele>1734.1999511719</ele>
        <time>2012-05-19T09:05:59.000Z</time>
      </trkpt>
      <trkpt lat="45.3817" lon="5.8142">
        <ele>1731.4000244141</ele>
        <time>2012-05-19T09:06:03.000Z</time>
      </trkpt>
      <trkpt lat="45.38174" lon="5.81421">
        <ele>1728</ele>
        <time>2012-05-19T09:06:07.000Z</time>
      </trkpt>
      <trkpt lat="45.38179" lon="5.81424">
        <ele>1725.5999755859</ele>
        <time>2012-05-19T09:06:12.000Z</time>
      </trkpt>
      <trkpt lat="45.38186" lon="5.81422">
        <ele>1722.1999511719</ele>
        <time>2012-05-19T09:06:17.000Z</time>
      </trkpt>
      <trkpt lat="45.3819" lon="5.81421">
        <ele>1718.8000488281</ele>
        <time>2012-05-19T09:06:20.000Z</time>
      </trkpt>
      <trkpt lat="45.38196" lon="5.81421">
        <ele>1715.5999755859</ele>
        <time>2012-05-19T09:06:23.000Z</time>
      </trkpt>
      <trkpt lat="45.38206" lon="5.81415">
        <ele>1709.8000488281</ele>
        <time>2012-05-19T09:06:28.000Z</time>
      </trkpt>
      <trkpt lat="45.3822" lon="5.81408">
        <ele>1704</ele>
        <time>2012-05-19T09:06:34.000Z</time>
      </trkpt>
      <trkpt lat="45.38229" lon="5.81408">
        <ele>1701.5999755859</ele>
        <time>2012-05-19T09:06:37.000Z</time>
      </trkpt>
      <trkpt lat="45.38239" lon="5.81416">
        <ele>1697.8000488281</ele>
        <time>2012-05-19T09:06:43.000Z</time>
      </trkpt>
      <trkpt lat="45.38246" lon="5.81419">
        <ele>1694.8000488281</ele>
        <time>2012-05-19T09:06:47.000Z</time>
      </trkpt>
      <trkpt lat="45.38252" lon="5.81424">
        <ele>1691.4000244141</ele>
        <time>2012-05-19T09:06:52.000Z</time>
      </trkpt>
      <trkpt lat="45.38255" lon="5.81424">
        <ele>1690.5999755859</ele>
        <time>2012-05-19T09:06:54.000Z</time>
      </trkpt>
      <trkpt lat="45.38263" lon="5.81423">
        <ele>1687.5999755859</ele>
        <time>2012-05-19T09:06:59.000Z</time>
      </trkpt>
      <trkpt lat="45.38273" lon="5.81423">
        <ele>1683.8000488281</ele>
        <time>2012-05-19T09:07:03.000Z</time>
      </trkpt>
      <trkpt lat="45.38278" lon="5.81425">
        <ele>1680</ele>
        <time>2012-05-19T09:07:06.000Z</time>
      </trkpt>
      <trkpt lat="45.38291" lon="5.81425">
        <ele>1676</ele>
        <time>2012-05-19T09:07:11.000Z</time>
      </trkpt>
      <trkpt lat="45.38299" lon="5.81431">
        <ele>1674.1999511719</ele>
        <time>2012-05-19T09:07:14.000Z</time>
      </trkpt>
      <trkpt lat="45.38313" lon="5.81435">
        <ele>1672.8000488281</ele>
        <time>2012-05-19T09:07:19.000Z</time>
      </trkpt>
      <trkpt lat="45.38324" lon="5.81435">
        <ele>1672.1999511719</ele>
        <time>2012-05-19T09:07:23.000Z</time>
      </trkpt>
      <trkpt lat="45.38337" lon="5.81446">
        <ele>1670.4000244141</ele>
        <time>2012-05-19T09:07:28.000Z</time>
      </trkpt>
      <trkpt lat="45.38342" lon="5.81448">
        <ele>1669.4000244141</ele>
        <time>2012-05-19T09:07:30.000Z</time>
      </trkpt>
      <trkpt lat="45.38355" lon="5.8145">
        <ele>1669.8000488281</ele>
        <time>2012-05-19T09:07:35.000Z</time>
      </trkpt>
      <trkpt lat="45.38359" lon="5.81451">
        <ele>1669.8000488281</ele>
        <time>2012-05-19T09:07:37.000Z</time>
      </trkpt>
      <trkpt lat="45.3838" lon="5.81458">
        <ele>1669.8000488281</ele>
        <time>2012-05-19T09:07:44.000Z</time>
      </trkpt>
      <trkpt lat="45.38391" lon="5.81462">
        <ele>1667.4000244141</ele>
        <time>2012-05-19T09:07:48.000Z</time>
      </trkpt>
      <trkpt lat="45.38397" lon="5.81466">
        <ele>1664.5999755859</ele>
        <time>2012-05-19T09:07:51.000Z</time>
      </trkpt>
      <trkpt lat="45.38405" lon="5.81472">
        <ele>1661.5999755859</ele>
        <time>2012-05-19T09:07:56.000Z</time>
      </trkpt>
      <trkpt lat="45.38413" lon="5.81473">
        <ele>1658.4000244141</ele>
        <time>2012-05-19T09:08:00.000Z</time>
      </trkpt>
      <trkpt lat="45.38422" lon="5.81468">
        <ele>1657.4000244141</ele>
        <time>2012-05-19T09:08:04.000Z</time>
      </trkpt>
      <trkpt lat="45.38432" lon="5.81466">
        <ele>1655</ele>
        <time>2012-05-19T09:08:08.000Z</time>
      </trkpt>
      <trkpt lat="45.38435" lon="5.8146">
        <ele>1652.5999755859</ele>
        <time>2012-05-19T09:08:12.000Z</time>
      </trkpt>
      <trkpt lat="45.38436" lon="5.81452">
        <ele>1650.5999755859</ele>
        <time>2012-05-19T09:08:16.000Z</time>
      </trkpt>
      <trkpt lat="45.38437" lon="5.81442">
        <ele>1649.1999511719</ele>
        <time>2012-05-19T09:08:19.000Z</time>
      </trkpt>
      <trkpt lat="45.38441" lon="5.81431">
        <ele>1646.1999511719</ele>
        <time>2012-05-19T09:08:23.000Z</time>
      </trkpt>
      <trkpt lat="45.38448" lon="5.81421">
        <ele>1644.8000488281</ele>
        <time>2012-05-19T09:08:28.000Z</time>
      </trkpt>
      <trkpt lat="45.38443" lon="5.81416">
        <ele>1643</ele>
        <time>2012-05-19T09:08:33.000Z</time>
      </trkpt>
      <trkpt lat="45.38436" lon="5.81412">
        <ele>1641.4000244141</ele>
        <time>2012-05-19T09:08:36.000Z</time>
      </trkpt>
      <trkpt lat="45.38426" lon="5.81408">
        <ele>1641</ele>
        <time>2012-05-19T09:08:40.000Z</time>
      </trkpt>
      <trkpt lat="45.38414" lon="5.81401">
        <ele>1640</ele>
        <time>2012-05-19T09:08:45.000Z</time>
      </trkpt>
      <trkpt lat="45.38398" lon="5.8139">
        <ele>1637.5999755859</ele>
        <time>2012-05-19T09:08:51.000Z</time>
      </trkpt>
      <trkpt lat="45.38387" lon="5.81381">
        <ele>1636.1999511719</ele>
        <time>2012-05-19T09:08:55.000Z</time>
      </trkpt>
      <trkpt lat="45.38385" lon="5.81377">
        <ele>1636.1999511719</ele>
        <time>2012-05-19T09:08:56.000Z</time>
      </trkpt>
      <trkpt lat="45.3838" lon="5.81374">
        <ele>1635.8000488281</ele>
        <time>2012-05-19T09:08:58.000Z</time>
      </trkpt>
      <trkpt lat="45.38372" lon="5.81362">
        <ele>1634.8000488281</ele>
        <time>2012-05-19T09:09:02.000Z</time>
      </trkpt>
      <trkpt lat="45.38369" lon="5.8136">
        <ele>1634.1999511719</ele>
        <time>2012-05-19T09:09:03.000Z</time>
      </trkpt>
      <trkpt lat="45.38352" lon="5.8136">
        <ele>1632.8000488281</ele>
        <time>2012-05-19T09:09:08.000Z</time>
      </trkpt>
      <trkpt lat="45.38349" lon="5.81359">
        <ele>1633.4000244141</ele>
        <time>2012-05-19T09:09:09.000Z</time>
      </trkpt>
      <trkpt lat="45.3833" lon="5.81338">
        <ele>1632.4000244141</ele>
        <time>2012-05-19T09:09:16.000Z</time>
      </trkpt>
      <trkpt lat="45.38314" lon="5.81327">
        <ele>1630.4000244141</ele>
        <time>2012-05-19T09:09:21.000Z</time>
      </trkpt>
      <trkpt lat="45.38298" lon="5.8131">
        <ele>1626.5999755859</ele>
        <time>2012-05-19T09:09:27.000Z</time>
      </trkpt>
      <trkpt lat="45.38288" lon="5.81301">
        <ele>1624.5999755859</ele>
        <time>2012-05-19T09:09:31.000Z</time>
      </trkpt>
      <trkpt lat="45.38276" lon="5.81294">
        <ele>1622.1999511719</ele>
        <time>2012-05-19T09:09:35.000Z</time>
      </trkpt>
      <trkpt lat="45.38267" lon="5.81289">
        <ele>1620.8000488281</ele>
        <time>2012-05-19T09:09:38.000Z</time>
      </trkpt>
      <trkpt lat="45.38256" lon="5.81279">
        <ele>1618.8000488281</ele>
        <time>2012-05-19T09:09:42.000Z</time>
      </trkpt>
      <trkpt lat="45.38241" lon="5.81271">
        <ele>1620.8000488281</ele>
        <time>2012-05-19T09:09:48.000Z</time>
      </trkpt>
      <trkpt lat="45.38235" lon="5.81268">
        <ele>1622.1999511719</ele>
        <time>2012-05-19T09:09:51.000Z</time>
      </trkpt>
      <trkpt lat="45.38228" lon="5.81255">
        <ele>1622.8000488281</ele>
        <time>2012-05-19T09:09:55.000Z</time>
      </trkpt>
      <trkpt lat="45.38226" lon="5.81252">
        <ele>1622.8000488281</ele>
        <time>2012-05-19T09:09:56.000Z</time>
      </trkpt>
      <trkpt lat="45.38216" lon="5.81237">
        <ele>1622.8000488281</ele>
        <time>2012-05-19T09:10:01.000Z</time>
      </trkpt>
      <trkpt lat="45.3821" lon="5.81229">
        <ele>1622.1999511719</ele>
        <time>2012-05-19T09:10:03.000Z</time>
      </trkpt>
      <trkpt lat="45.38202" lon="5.81212">
        <ele>1619.4000244141</ele>
        <time>2012-05-19T09:10:07.000Z</time>
      </trkpt>
      <trkpt lat="45.3819" lon="5.81195">
        <ele>1615.5999755859</ele>
        <time>2012-05-19T09:10:12.000Z</time>
      </trkpt>
      <trkpt lat="45.38183" lon="5.81174">
        <ele>1611.5999755859</ele>
        <time>2012-05-19T09:10:17.000Z</time>
      </trkpt>
      <trkpt lat="45.38184" lon="5.8117">
        <ele>1610.8000488281</ele>
        <time>2012-05-19T09:10:18.000Z</time>
      </trkpt>
      <trkpt lat="45.38183" lon="5.81161">
        <ele>1607.4000244141</ele>
        <time>2012-05-19T09:10:22.000Z</time>
      </trkpt>
      <trkpt lat="45.38179" lon="5.8116">
        <ele>1606</ele>
        <time>2012-05-19T09:10:24.000Z</time>
      </trkpt>
      <trkpt lat="45.38172" lon="5.81159">
        <ele>1603</ele>
        <time>2012-05-19T09:10:29.000Z</time>
      </trkpt>
      <trkpt lat="45.38173" lon="5.8115">
        <ele>1600.5999755859</ele>
        <time>2012-05-19T09:10:32.000Z</time>
      </trkpt>
      <trkpt lat="45.38174" lon="5.81147">
        <ele>1599.5999755859</ele>
        <time>2012-05-19T09:10:33.000Z</time>
      </trkpt>
      <trkpt lat="45.38183" lon="5.81138">
        <ele>1596.4000244141</ele>
        <time>2012-05-19T09:10:38.000Z</time>
      </trkpt>
      <trkpt lat="45.3819" lon="5.81131">
        <ele>1592</ele>
        <time>2012-05-19T09:10:42.000Z</time>
      </trkpt>
      <trkpt lat="45.38198" lon="5.81121">
        <ele>1589.5999755859</ele>
        <time>2012-05-19T09:10:46.000Z</time>
      </trkpt>
      <trkpt lat="45.38202" lon="5.81109">
        <ele>1587.1999511719</ele>
        <time>2012-05-19T09:10:50.000Z</time>
      </trkpt>
      <trkpt lat="45.38202" lon="5.81106">
        <ele>1586.1999511719</ele>
        <time>2012-05-19T09:10:51.000Z</time>
      </trkpt>
      <trkpt lat="45.38191" lon="5.81103">
        <ele>1584.1999511719</ele>
        <time>2012-05-19T09:10:57.000Z</time>
      </trkpt>
      <trkpt lat="45.38182" lon="5.81107">
        <ele>1580.4000244141</ele>
        <time>2012-05-19T09:11:01.000Z</time>
      </trkpt>
      <trkpt lat="45.38168" lon="5.81118">
        <ele>1575.1999511719</ele>
        <time>2012-05-19T09:11:07.000Z</time>
      </trkpt>
      <trkpt lat="45.38153" lon="5.81124">
        <ele>1571.4000244141</ele>
        <time>2012-05-19T09:11:12.000Z</time>
      </trkpt>
      <trkpt lat="45.38147" lon="5.81122">
        <ele>1568.4000244141</ele>
        <time>2012-05-19T09:11:16.000Z</time>
      </trkpt>
      <trkpt lat="45.38141" lon="5.81116">
        <ele>1567</ele>
        <time>2012-05-19T09:11:19.000Z</time>
      </trkpt>
      <trkpt lat="45.38138" lon="5.81105">
        <ele>1568</ele>
        <time>2012-05-19T09:11:22.000Z</time>
      </trkpt>
      <trkpt lat="45.38134" lon="5.81087">
        <ele>1563.5999755859</ele>
        <time>2012-05-19T09:11:28.000Z</time>
      </trkpt>
      <trkpt lat="45.38131" lon="5.81063">
        <ele>1564.1999511719</ele>
        <time>2012-05-19T09:11:34.000Z</time>
      </trkpt>
      <trkpt lat="45.38127" lon="5.81056">
        <ele>1563.1999511719</ele>
        <time>2012-05-19T09:11:37.000Z</time>
      </trkpt>
      <trkpt lat="45.38127" lon="5.81054">
        <ele>1563.1999511719</ele>
        <time>2012-05-19T09:11:38.000Z</time>
      </trkpt>
      <trkpt lat="45.38126" lon="5.81046">
        <ele>1558.8000488281</ele>
        <time>2012-05-19T09:11:44.000Z</time>
      </trkpt>
      <trkpt lat="45.38126" lon="5.81042">
        <ele>1556</ele>
        <time>2012-05-19T09:11:47.000Z</time>
      </trkpt>
      <trkpt lat="45.38126" lon="5.81039">
        <ele>1555</ele>
        <time>2012-05-19T09:11:49.000Z</time>
      </trkpt>
      <trkpt lat="45.38125" lon="5.81034">
        <ele>1551.1999511719</ele>
        <time>2012-05-19T09:11:53.000Z</time>
      </trkpt>
      <trkpt lat="45.38119" lon="5.81016">
        <ele>1544</ele>
        <time>2012-05-19T09:11:59.000Z</time>
      </trkpt>
      <trkpt lat="45.38114" lon="5.81003">
        <ele>1536.8000488281</ele>
        <time>2012-05-19T09:12:03.000Z</time>
      </trkpt>
      <trkpt lat="45.38108" lon="5.80995">
        <ele>1528.5999755859</ele>
        <time>2012-05-19T09:12:07.000Z</time>
      </trkpt>
      <trkpt lat="45.38108" lon="5.80993">
        <ele>1527.5999755859</ele>
        <time>2012-05-19T09:12:08.000Z</time>
      </trkpt>
      <trkpt lat="45.38111" lon="5.80984">
        <ele>1523.1999511719</ele>
        <time>2012-05-19T09:12:14.000Z</time>
      </trkpt>
      <trkpt lat="45.38117" lon="5.80984">
        <ele>1523.1999511719</ele>
        <time>2012-05-19T09:12:17.000Z</time>
      </trkpt>
      <trkpt lat="45.38126" lon="5.80981">
        <ele>1523.1999511719</ele>
        <time>2012-05-19T09:12:22.000Z</time>
      </trkpt>
      <trkpt lat="45.38136" lon="5.80978">
        <ele>1523.1999511719</ele>
        <time>2012-05-19T09:12:26.000Z</time>
      </trkpt>
      <trkpt lat="45.38146" lon="5.80973">
        <ele>1520.8000488281</ele>
        <time>2012-05-19T09:12:32.000Z</time>
      </trkpt>
      <trkpt lat="45.38148" lon="5.80969">
        <ele>1519.4000244141</ele>
        <time>2012-05-19T09:12:34.000Z</time>
      </trkpt>
      <trkpt lat="45.38155" lon="5.80961">
        <ele>1517</ele>
        <time>2012-05-19T09:12:39.000Z</time>
      </trkpt>
      <trkpt lat="45.38167" lon="5.80953">
        <ele>1518</ele>
        <time>2012-05-19T09:12:46.000Z</time>
      </trkpt>
      <trkpt lat="45.38177" lon="5.80942">
        <ele>1516</ele>
        <time>2012-05-19T09:12:51.000Z</time>
      </trkpt>
      <trkpt lat="45.38186" lon="5.80934">
        <ele>1511.1999511719</ele>
        <time>2012-05-19T09:12:56.000Z</time>
      </trkpt>
      <trkpt lat="45.38185" lon="5.80928">
        <ele>1501.1999511719</ele>
        <time>2012-05-19T09:13:01.000Z</time>
      </trkpt>
      <trkpt lat="45.38188" lon="5.80917">
        <ele>1499.1999511719</ele>
        <time>2012-05-19T09:13:07.000Z</time>
      </trkpt>
      <trkpt lat="45.38178" lon="5.80909">
        <ele>1489.1999511719</ele>
        <time>2012-05-19T09:13:12.000Z</time>
      </trkpt>
      <trkpt lat="45.38179" lon="5.80897">
        <ele>1487.5999755859</ele>
        <time>2012-05-19T09:13:16.000Z</time>
      </trkpt>
      <trkpt lat="45.38183" lon="5.80879">
        <ele>1487.1999511719</ele>
        <time>2012-05-19T09:13:20.000Z</time>
      </trkpt>
      <trkpt lat="45.3819" lon="5.80862">
        <ele>1483.8000488281</ele>
        <time>2012-05-19T09:13:24.000Z</time>
      </trkpt>
      <trkpt lat="45.38189" lon="5.80829">
        <ele>1489.1999511719</ele>
        <time>2012-05-19T09:13:28.000Z</time>
      </trkpt>
      <trkpt lat="45.3819" lon="5.80821">
        <ele>1476.5999755859</ele>
        <time>2012-05-19T09:13:32.000Z</time>
      </trkpt>
      <trkpt lat="45.38191" lon="5.80811">
        <ele>1478</ele>
        <time>2012-05-19T09:13:34.000Z</time>
      </trkpt>
      <trkpt lat="45.3818" lon="5.80803">
        <ele>1472.1999511719</ele>
        <time>2012-05-19T09:13:39.000Z</time>
      </trkpt>
      <trkpt lat="45.3817" lon="5.80795">
        <ele>1467</ele>
        <time>2012-05-19T09:13:43.000Z</time>
      </trkpt>
      <trkpt lat="45.38162" lon="5.80777">
        <ele>1466</ele>
        <time>2012-05-19T09:13:48.000Z</time>
      </trkpt>
      <trkpt lat="45.38161" lon="5.80765">
        <ele>1462.5999755859</ele>
        <time>2012-05-19T09:13:52.000Z</time>
      </trkpt>
      <trkpt lat="45.38156" lon="5.80749">
        <ele>1461.1999511719</ele>
        <time>2012-05-19T09:13:57.000Z</time>
      </trkpt>
      <trkpt lat="45.38152" lon="5.80741">
        <ele>1462.1999511719</ele>
        <time>2012-05-19T09:13:59.000Z</time>
      </trkpt>
      <trkpt lat="45.38147" lon="5.80728">
        <ele>1457</ele>
        <time>2012-05-19T09:14:04.000Z</time>
      </trkpt>
      <trkpt lat="45.38145" lon="5.80725">
        <ele>1456</ele>
        <time>2012-05-19T09:14:05.000Z</time>
      </trkpt>
      <trkpt lat="45.38139" lon="5.80713">
        <ele>1450.1999511719</ele>
        <time>2012-05-19T09:14:10.000Z</time>
      </trkpt>
      <trkpt lat="45.38131" lon="5.80702">
        <ele>1446.8000488281</ele>
        <time>2012-05-19T09:14:14.000Z</time>
      </trkpt>
      <trkpt lat="45.38126" lon="5.8069">
        <ele>1444.4000244141</ele>
        <time>2012-05-19T09:14:17.000Z</time>
      </trkpt>
      <trkpt lat="45.3813" lon="5.80668">
        <ele>1441.5999755859</ele>
        <time>2012-05-19T09:14:23.000Z</time>
      </trkpt>
      <trkpt lat="45.38132" lon="5.80647">
        <ele>1439.1999511719</ele>
        <time>2012-05-19T09:14:28.000Z</time>
      </trkpt>
      <trkpt lat="45.38131" lon="5.80626">
        <ele>1436.1999511719</ele>
        <time>2012-05-19T09:14:33.000Z</time>
      </trkpt>
      <trkpt lat="45.3813" lon="5.80613">
        <ele>1433.8000488281</ele>
        <time>2012-05-19T09:14:37.000Z</time>
      </trkpt>
      <trkpt lat="45.3813" lon="5.80603">
        <ele>1429.5999755859</ele>
        <time>2012-05-19T09:14:41.000Z</time>
      </trkpt>
      <trkpt lat="45.38128" lon="5.80603">
        <ele>1425.5999755859</ele>
        <time>2012-05-19T09:14:44.000Z</time>
      </trkpt>
      <trkpt lat="45.38118" lon="5.80614">
        <ele>1423.8000488281</ele>
        <time>2012-05-19T09:14:49.000Z</time>
      </trkpt>
      <trkpt lat="45.38116" lon="5.80615">
        <ele>1422.8000488281</ele>
        <time>2012-05-19T09:14:50.000Z</time>
      </trkpt>
      <trkpt lat="45.38113" lon="5.80605">
        <ele>1420</ele>
        <time>2012-05-19T09:14:55.000Z</time>
      </trkpt>
      <trkpt lat="45.38112" lon="5.80595">
        <ele>1417</ele>
        <time>2012-05-19T09:14:58.000Z</time>
      </trkpt>
      <trkpt lat="45.38103" lon="5.80592">
        <ele>1413.1999511719</ele>
        <time>2012-05-19T09:15:03.000Z</time>
      </trkpt>
      <trkpt lat="45.38099" lon="5.80591">
        <ele>1412.1999511719</ele>
        <time>2012-05-19T09:15:04.000Z</time>
      </trkpt>
      <trkpt lat="45.3809" lon="5.80589">
        <ele>1410.1999511719</ele>
        <time>2012-05-19T09:15:07.000Z</time>
      </trkpt>
      <trkpt lat="45.38079" lon="5.80591">
        <ele>1407.4000244141</ele>
        <time>2012-05-19T09:15:11.000Z</time>
      </trkpt>
      <trkpt lat="45.3807" lon="5.80591">
        <ele>1404</ele>
        <time>2012-05-19T09:15:15.000Z</time>
      </trkpt>
      <trkpt lat="45.38067" lon="5.80585">
        <ele>1400.1999511719</ele>
        <time>2012-05-19T09:15:19.000Z</time>
      </trkpt>
      <trkpt lat="45.3807" lon="5.80578">
        <ele>1398.8000488281</ele>
        <time>2012-05-19T09:15:21.000Z</time>
      </trkpt>
      <trkpt lat="45.38081" lon="5.80556">
        <ele>1393</ele>
        <time>2012-05-19T09:15:27.000Z</time>
      </trkpt>
      <trkpt lat="45.38089" lon="5.80534">
        <ele>1388.5999755859</ele>
        <time>2012-05-19T09:15:32.000Z</time>
      </trkpt>
      <trkpt lat="45.38097" lon="5.80517">
        <ele>1385.1999511719</ele>
        <time>2012-05-19T09:15:36.000Z</time>
      </trkpt>
      <trkpt lat="45.38107" lon="5.80495">
        <ele>1382.4000244141</ele>
        <time>2012-05-19T09:15:41.000Z</time>
      </trkpt>
      <trkpt lat="45.38117" lon="5.80476">
        <ele>1380.4000244141</ele>
        <time>2012-05-19T09:15:46.000Z</time>
      </trkpt>
      <trkpt lat="45.38129" lon="5.80465">
        <ele>1378</ele>
        <time>2012-05-19T09:15:50.000Z</time>
      </trkpt>
      <trkpt lat="45.38137" lon="5.80458">
        <ele>1377.5999755859</ele>
        <time>2012-05-19T09:15:53.000Z</time>
      </trkpt>
      <trkpt lat="45.38135" lon="5.80454">
        <ele>1374.1999511719</ele>
        <time>2012-05-19T09:15:56.000Z</time>
      </trkpt>
      <trkpt lat="45.38123" lon="5.80461">
        <ele>1364.1999511719</ele>
        <time>2012-05-19T09:16:01.000Z</time>
      </trkpt>
      <trkpt lat="45.38114" lon="5.80458">
        <ele>1357.8000488281</ele>
        <time>2012-05-19T09:16:05.000Z</time>
      </trkpt>
      <trkpt lat="45.38106" lon="5.80454">
        <ele>1356.4000244141</ele>
        <time>2012-05-19T09:16:08.000Z</time>
      </trkpt>
      <trkpt lat="45.38098" lon="5.80453">
        <ele>1353</ele>
        <time>2012-05-19T09:16:11.000Z</time>
      </trkpt>
      <trkpt lat="45.38088" lon="5.8046">
        <ele>1350.5999755859</ele>
        <time>2012-05-19T09:16:15.000Z</time>
      </trkpt>
      <trkpt lat="45.38086" lon="5.80462">
        <ele>1350.1999511719</ele>
        <time>2012-05-19T09:16:16.000Z</time>
      </trkpt>
      <trkpt lat="45.38074" lon="5.80467">
        <ele>1349.1999511719</ele>
        <time>2012-05-19T09:16:21.000Z</time>
      </trkpt>
      <trkpt lat="45.38063" lon="5.8047">
        <ele>1345</ele>
        <time>2012-05-19T09:16:26.000Z</time>
      </trkpt>
      <trkpt lat="45.38048" lon="5.80468">
        <ele>1338.5999755859</ele>
        <time>2012-05-19T09:16:31.000Z</time>
      </trkpt>
      <trkpt lat="45.38044" lon="5.80467">
        <ele>1337.1999511719</ele>
        <time>2012-05-19T09:16:32.000Z</time>
      </trkpt>
      <trkpt lat="45.38038" lon="5.80458">
        <ele>1336.8000488281</ele>
        <time>2012-05-19T09:16:35.000Z</time>
      </trkpt>
      <trkpt lat="45.38028" lon="5.80434">
        <ele>1334.8000488281</ele>
        <time>2012-05-19T09:16:41.000Z</time>
      </trkpt>
      <trkpt lat="45.38025" lon="5.80421">
        <ele>1334.8000488281</ele>
        <time>2012-05-19T09:16:44.000Z</time>
      </trkpt>
      <trkpt lat="45.38018" lon="5.80409">
        <ele>1334.4000244141</ele>
        <time>2012-05-19T09:16:48.000Z</time>
      </trkpt>
      <trkpt lat="45.38015" lon="5.80402">
        <ele>1333.8000488281</ele>
        <time>2012-05-19T09:16:50.000Z</time>
      </trkpt>
      <trkpt lat="45.38007" lon="5.80392">
        <ele>1334.4000244141</ele>
        <time>2012-05-19T09:16:54.000Z</time>
      </trkpt>
      <trkpt lat="45.37992" lon="5.80378">
        <ele>1334.4000244141</ele>
        <time>2012-05-19T09:16:59.000Z</time>
      </trkpt>
      <trkpt lat="45.3798" lon="5.80365">
        <ele>1333</ele>
        <time>2012-05-19T09:17:04.000Z</time>
      </trkpt>
      <trkpt lat="45.37974" lon="5.80342">
        <ele>1335.4000244141</ele>
        <time>2012-05-19T09:17:10.000Z</time>
      </trkpt>
      <trkpt lat="45.37969" lon="5.80328">
        <ele>1330.5999755859</ele>
        <time>2012-05-19T09:17:14.000Z</time>
      </trkpt>
      <trkpt lat="45.37967" lon="5.80312">
        <ele>1327.5999755859</ele>
        <time>2012-05-19T09:17:18.000Z</time>
      </trkpt>
      <trkpt lat="45.37964" lon="5.80305">
        <ele>1326.5999755859</ele>
        <time>2012-05-19T09:17:20.000Z</time>
      </trkpt>
      <trkpt lat="45.37959" lon="5.80279">
        <ele>1322.4000244141</ele>
        <time>2012-05-19T09:17:26.000Z</time>
      </trkpt>
      <trkpt lat="45.37954" lon="5.80268">
        <ele>1320</ele>
        <time>2012-05-19T09:17:30.000Z</time>
      </trkpt>
      <trkpt lat="45.37954" lon="5.80265">
        <ele>1318.4000244141</ele>
        <time>2012-05-19T09:17:31.000Z</time>
      </trkpt>
      <trkpt lat="45.37954" lon="5.80249">
        <ele>1316.5999755859</ele>
        <time>2012-05-19T09:17:36.000Z</time>
      </trkpt>
      <trkpt lat="45.37954" lon="5.80244">
        <ele>1314.1999511719</ele>
        <time>2012-05-19T09:17:38.000Z</time>
      </trkpt>
      <trkpt lat="45.37951" lon="5.80236">
        <ele>1308.4000244141</ele>
        <time>2012-05-19T09:17:42.000Z</time>
      </trkpt>
      <trkpt lat="45.37944" lon="5.80216">
        <ele>1305</ele>
        <time>2012-05-19T09:17:48.000Z</time>
      </trkpt>
      <trkpt lat="45.37936" lon="5.80201">
        <ele>1300.8000488281</ele>
        <time>2012-05-19T09:17:53.000Z</time>
      </trkpt>
      <trkpt lat="45.37934" lon="5.80194">
        <ele>1299.1999511719</ele>
        <time>2012-05-19T09:17:55.000Z</time>
      </trkpt>
      <trkpt lat="45.37931" lon="5.80181">
        <ele>1296.8000488281</ele>
        <time>2012-05-19T09:17:58.000Z</time>
      </trkpt>
      <trkpt lat="45.3793" lon="5.80161">
        <ele>1294</ele>
        <time>2012-05-19T09:18:03.000Z</time>
      </trkpt>
      <trkpt lat="45.37932" lon="5.80154">
        <ele>1291.5999755859</ele>
        <time>2012-05-19T09:18:05.000Z</time>
      </trkpt>
      <trkpt lat="45.37931" lon="5.80131">
        <ele>1289.5999755859</ele>
        <time>2012-05-19T09:18:11.000Z</time>
      </trkpt>
      <trkpt lat="45.37927" lon="5.80113">
        <ele>1282.4000244141</ele>
        <time>2012-05-19T09:18:16.000Z</time>
      </trkpt>
      <trkpt lat="45.37924" lon="5.80105">
        <ele>1276.5999755859</ele>
        <time>2012-05-19T09:18:19.000Z</time>
      </trkpt>
      <trkpt lat="45.37925" lon="5.80084">
        <ele>1270.4000244141</ele>
        <time>2012-05-19T09:18:25.000Z</time>
      </trkpt>
      <trkpt lat="45.37925" lon="5.8008">
        <ele>1269</ele>
        <time>2012-05-19T09:18:26.000Z</time>
      </trkpt>
      <trkpt lat="45.37921" lon="5.80068">
        <ele>1263.1999511719</ele>
        <time>2012-05-19T09:18:30.000Z</time>
      </trkpt>
      <trkpt lat="45.37907" lon="5.80046">
        <ele>1257</ele>
        <time>2012-05-19T09:18:37.000Z</time>
      </trkpt>
      <trkpt lat="45.37902" lon="5.80029">
        <ele>1253.5999755859</ele>
        <time>2012-05-19T09:18:41.000Z</time>
      </trkpt>
      <trkpt lat="45.37893" lon="5.80017">
        <ele>1248.4000244141</ele>
        <time>2012-05-19T09:18:46.000Z</time>
      </trkpt>
      <trkpt lat="45.37886" lon="5.80004">
        <ele>1240.5999755859</ele>
        <time>2012-05-19T09:18:50.000Z</time>
      </trkpt>
      <trkpt lat="45.37875" lon="5.79988">
        <ele>1236.8000488281</ele>
        <time>2012-05-19T09:18:55.000Z</time>
      </trkpt>
      <trkpt lat="45.37861" lon="5.79973">
        <ele>1231.4000244141</ele>
        <time>2012-05-19T09:19:00.000Z</time>
      </trkpt>
      <trkpt lat="45.37852" lon="5.79968">
        <ele>1229</ele>
        <time>2012-05-19T09:19:03.000Z</time>
      </trkpt>
      <trkpt lat="45.3784" lon="5.79965">
        <ele>1224.1999511719</ele>
        <time>2012-05-19T09:19:07.000Z</time>
      </trkpt>
      <trkpt lat="45.37821" lon="5.79966">
        <ele>1219.4000244141</ele>
        <time>2012-05-19T09:19:13.000Z</time>
      </trkpt>
      <trkpt lat="45.37805" lon="5.79961">
        <ele>1214.5999755859</ele>
        <time>2012-05-19T09:19:18.000Z</time>
      </trkpt>
      <trkpt lat="45.37784" lon="5.79948">
        <ele>1212.1999511719</ele>
        <time>2012-05-19T09:19:24.000Z</time>
      </trkpt>
      <trkpt lat="45.37771" lon="5.79939">
        <ele>1211.8000488281</ele>
        <time>2012-05-19T09:19:28.000Z</time>
      </trkpt>
      <trkpt lat="45.37755" lon="5.79928">
        <ele>1211.8000488281</ele>
        <time>2012-05-19T09:19:33.000Z</time>
      </trkpt>
      <trkpt lat="45.37735" lon="5.79919">
        <ele>1211.8000488281</ele>
        <time>2012-05-19T09:19:37.000Z</time>
      </trkpt>
      <trkpt lat="45.37728" lon="5.79916">
        <ele>1212.1999511719</ele>
        <time>2012-05-19T09:19:39.000Z</time>
      </trkpt>
      <trkpt lat="45.37714" lon="5.79903">
        <ele>1209.4000244141</ele>
        <time>2012-05-19T09:19:44.000Z</time>
      </trkpt>
      <trkpt lat="45.37701" lon="5.79888">
        <ele>1205</ele>
        <time>2012-05-19T09:19:49.000Z</time>
      </trkpt>
      <trkpt lat="45.37698" lon="5.79886">
        <ele>1204</ele>
        <time>2012-05-19T09:19:50.000Z</time>
      </trkpt>
      <trkpt lat="45.37682" lon="5.79872">
        <ele>1198.8000488281</ele>
        <time>2012-05-19T09:19:55.000Z</time>
      </trkpt>
      <trkpt lat="45.37668" lon="5.79864">
        <ele>1197.4000244141</ele>
        <time>2012-05-19T09:19:59.000Z</time>
      </trkpt>
      <trkpt lat="45.37652" lon="5.79853">
        <ele>1195.4000244141</ele>
        <time>2012-05-19T09:20:04.000Z</time>
      </trkpt>
      <trkpt lat="45.3764" lon="5.7984">
        <ele>1191.5999755859</ele>
        <time>2012-05-19T09:20:08.000Z</time>
      </trkpt>
      <trkpt lat="45.37627" lon="5.79819">
        <ele>1188.1999511719</ele>
        <time>2012-05-19T09:20:13.000Z</time>
      </trkpt>
      <trkpt lat="45.37617" lon="5.79794">
        <ele>1183.4000244141</ele>
        <time>2012-05-19T09:20:18.000Z</time>
      </trkpt>
      <trkpt lat="45.37615" lon="5.79782">
        <ele>1181.4000244141</ele>
        <time>2012-05-19T09:20:20.000Z</time>
      </trkpt>
      <trkpt lat="45.37615" lon="5.79751">
        <ele>1184</ele>
        <time>2012-05-19T09:20:25.000Z</time>
      </trkpt>
      <trkpt lat="45.37622" lon="5.79732">
        <ele>1184.4000244141</ele>
        <time>2012-05-19T09:20:30.000Z</time>
      </trkpt>
      <trkpt lat="45.37632" lon="5.79727">
        <ele>1184</ele>
        <time>2012-05-19T09:20:34.000Z</time>
      </trkpt>
      <trkpt lat="45.37644" lon="5.79726">
        <ele>1176.5999755859</ele>
        <time>2012-05-19T09:20:38.000Z</time>
      </trkpt>
      <trkpt lat="45.37646" lon="5.79724">
        <ele>1176.1999511719</ele>
        <time>2012-05-19T09:20:39.000Z</time>
      </trkpt>
      <trkpt lat="45.37647" lon="5.7971">
        <ele>1167</ele>
        <time>2012-05-19T09:20:43.000Z</time>
      </trkpt>
      <trkpt lat="45.37642" lon="5.79696">
        <ele>1165.5999755859</ele>
        <time>2012-05-19T09:20:46.000Z</time>
      </trkpt>
      <trkpt lat="45.37629" lon="5.79685">
        <ele>1159.4000244141</ele>
        <time>2012-05-19T09:20:51.000Z</time>
      </trkpt>
      <trkpt lat="45.37625" lon="5.79683">
        <ele>1159</ele>
        <time>2012-05-19T09:20:52.000Z</time>
      </trkpt>
      <trkpt lat="45.37605" lon="5.79673">
        <ele>1152.1999511719</ele>
        <time>2012-05-19T09:20:58.000Z</time>
      </trkpt>
      <trkpt lat="45.37584" lon="5.79666">
        <ele>1147.4000244141</ele>
        <time>2012-05-19T09:21:04.000Z</time>
      </trkpt>
      <trkpt lat="45.37565" lon="5.79658">
        <ele>1147.8000488281</ele>
        <time>2012-05-19T09:21:09.000Z</time>
      </trkpt>
      <trkpt lat="45.37545" lon="5.79647">
        <ele>1150.8000488281</ele>
        <time>2012-05-19T09:21:15.000Z</time>
      </trkpt>
      <trkpt lat="45.37532" lon="5.79643">
        <ele>1150.1999511719</ele>
        <time>2012-05-19T09:21:19.000Z</time>
      </trkpt>
      <trkpt lat="45.37519" lon="5.79637">
        <ele>1149.8000488281</ele>
        <time>2012-05-19T09:21:23.000Z</time>
      </trkpt>
      <trkpt lat="45.37498" lon="5.79635">
        <ele>1148.4000244141</ele>
        <time>2012-05-19T09:21:28.000Z</time>
      </trkpt>
      <trkpt lat="45.37484" lon="5.79627">
        <ele>1149.1999511719</ele>
        <time>2012-05-19T09:21:32.000Z</time>
      </trkpt>
      <trkpt lat="45.37474" lon="5.79618">
        <ele>1151.5999755859</ele>
        <time>2012-05-19T09:21:35.000Z</time>
      </trkpt>
      <trkpt lat="45.37456" lon="5.79618">
        <ele>1152.1999511719</ele>
        <time>2012-05-19T09:21:40.000Z</time>
      </trkpt>
      <trkpt lat="45.37447" lon="5.79619">
        <ele>1150.8000488281</ele>
        <time>2012-05-19T09:21:43.000Z</time>
      </trkpt>
      <trkpt lat="45.37437" lon="5.79614">
        <ele>1150.8000488281</ele>
        <time>2012-05-19T09:21:46.000Z</time>
      </trkpt>
      <trkpt lat="45.37434" lon="5.79592">
        <ele>1149.8000488281</ele>
        <time>2012-05-19T09:21:50.000Z</time>
      </trkpt>
      <trkpt lat="45.37434" lon="5.79585">
        <ele>1150.8000488281</ele>
        <time>2012-05-19T09:21:51.000Z</time>
      </trkpt>
      <trkpt lat="45.37436" lon="5.79576">
        <ele>1151.1999511719</ele>
        <time>2012-05-19T09:21:53.000Z</time>
      </trkpt>
      <trkpt lat="45.37455" lon="5.79571">
        <ele>1151.5999755859</ele>
        <time>2012-05-19T09:21:58.000Z</time>
      </trkpt>
      <trkpt lat="45.37468" lon="5.79574">
        <ele>1150.8000488281</ele>
        <time>2012-05-19T09:22:02.000Z</time>
      </trkpt>
      <trkpt lat="45.37481" lon="5.79576">
        <ele>1147.8000488281</ele>
        <time>2012-05-19T09:22:06.000Z</time>
      </trkpt>
      <trkpt lat="45.37494" lon="5.79573">
        <ele>1148.8000488281</ele>
        <time>2012-05-19T09:22:10.000Z</time>
      </trkpt>
      <trkpt lat="45.37508" lon="5.79572">
        <ele>1147.8000488281</ele>
        <time>2012-05-19T09:22:14.000Z</time>
      </trkpt>
      <trkpt lat="45.37522" lon="5.79557">
        <ele>1146.8000488281</ele>
        <time>2012-05-19T09:22:19.000Z</time>
      </trkpt>
      <trkpt lat="45.37514" lon="5.79559">
        <ele>1142.5999755859</ele>
        <time>2012-05-19T09:22:22.000Z</time>
      </trkpt>
      <trkpt lat="45.37502" lon="5.79567">
        <ele>1140.5999755859</ele>
        <time>2012-05-19T09:22:25.000Z</time>
      </trkpt>
      <trkpt lat="45.37485" lon="5.79564">
        <ele>1135.4000244141</ele>
        <time>2012-05-19T09:22:29.000Z</time>
      </trkpt>
      <trkpt lat="45.37471" lon="5.79557">
        <ele>1130.5999755859</ele>
        <time>2012-05-19T09:22:32.000Z</time>
      </trkpt>
      <trkpt lat="45.37468" lon="5.79556">
        <ele>1130</ele>
        <time>2012-05-19T09:22:33.000Z</time>
      </trkpt>
      <trkpt lat="45.3746" lon="5.79552">
        <ele>1128.1999511719</ele>
        <time>2012-05-19T09:22:35.000Z</time>
      </trkpt>
      <trkpt lat="45.3745" lon="5.7954">
        <ele>1126.8000488281</ele>
        <time>2012-05-19T09:22:39.000Z</time>
      </trkpt>
      <trkpt lat="45.37437" lon="5.7952">
        <ele>1124.1999511719</ele>
        <time>2012-05-19T09:22:44.000Z</time>
      </trkpt>
      <trkpt lat="45.37423" lon="5.79511">
        <ele>1122.4000244141</ele>
        <time>2012-05-19T09:22:48.000Z</time>
      </trkpt>
      <trkpt lat="45.3741" lon="5.7951">
        <ele>1121.8000488281</ele>
        <time>2012-05-19T09:22:52.000Z</time>
      </trkpt>
      <trkpt lat="45.37392" lon="5.79511">
        <ele>1121.4000244141</ele>
        <time>2012-05-19T09:22:56.000Z</time>
      </trkpt>
      <trkpt lat="45.3738" lon="5.79503">
        <ele>1120</ele>
        <time>2012-05-19T09:22:59.000Z</time>
      </trkpt>
      <trkpt lat="45.37369" lon="5.79496">
        <ele>1118.5999755859</ele>
        <time>2012-05-19T09:23:02.000Z</time>
      </trkpt>
      <trkpt lat="45.3736" lon="5.79494">
        <ele>1117.5999755859</ele>
        <time>2012-05-19T09:23:04.000Z</time>
      </trkpt>
      <trkpt lat="45.37348" lon="5.79491">
        <ele>1116.5999755859</ele>
        <time>2012-05-19T09:23:07.000Z</time>
      </trkpt>
      <trkpt lat="45.37342" lon="5.79485">
        <ele>1115.1999511719</ele>
        <time>2012-05-19T09:23:09.000Z</time>
      </trkpt>
      <trkpt lat="45.37325" lon="5.79469">
        <ele>1112.8000488281</ele>
        <time>2012-05-19T09:23:14.000Z</time>
      </trkpt>
      <trkpt lat="45.37317" lon="5.79455">
        <ele>1112.1999511719</ele>
        <time>2012-05-19T09:23:17.000Z</time>
      </trkpt>
      <trkpt lat="45.37305" lon="5.79434">
        <ele>1107.4000244141</ele>
        <time>2012-05-19T09:23:22.000Z</time>
      </trkpt>
      <trkpt lat="45.37295" lon="5.79422">
        <ele>1106.5999755859</ele>
        <time>2012-05-19T09:23:25.000Z</time>
      </trkpt>
      <trkpt lat="45.37282" lon="5.79409">
        <ele>1103.5999755859</ele>
        <time>2012-05-19T09:23:29.000Z</time>
      </trkpt>
      <trkpt lat="45.37277" lon="5.79401">
        <ele>1102.5999755859</ele>
        <time>2012-05-19T09:23:31.000Z</time>
      </trkpt>
      <trkpt lat="45.37267" lon="5.79378">
        <ele>1096</ele>
        <time>2012-05-19T09:23:36.000Z</time>
      </trkpt>
      <trkpt lat="45.37258" lon="5.79362">
        <ele>1092</ele>
        <time>2012-05-19T09:23:40.000Z</time>
      </trkpt>
      <trkpt lat="45.37256" lon="5.79347">
        <ele>1088.1999511719</ele>
        <time>2012-05-19T09:23:43.000Z</time>
      </trkpt>
      <trkpt lat="45.37242" lon="5.7934">
        <ele>1086.8000488281</ele>
        <time>2012-05-19T09:23:47.000Z</time>
      </trkpt>
      <trkpt lat="45.37236" lon="5.79336">
        <ele>1085.4000244141</ele>
        <time>2012-05-19T09:23:49.000Z</time>
      </trkpt>
      <trkpt lat="45.37218" lon="5.79329">
        <ele>1081</ele>
        <time>2012-05-19T09:23:54.000Z</time>
      </trkpt>
      <trkpt lat="45.37202" lon="5.79321">
        <ele>1077.1999511719</ele>
        <time>2012-05-19T09:23:59.000Z</time>
      </trkpt>
      <trkpt lat="45.37201" lon="5.79317">
        <ele>1075.8000488281</ele>
        <time>2012-05-19T09:24:00.000Z</time>
      </trkpt>
      <trkpt lat="45.37187" lon="5.79307">
        <ele>1071.4000244141</ele>
        <time>2012-05-19T09:24:05.000Z</time>
      </trkpt>
      <trkpt lat="45.37168" lon="5.79298">
        <ele>1068.5999755859</ele>
        <time>2012-05-19T09:24:10.000Z</time>
      </trkpt>
      <trkpt lat="45.37147" lon="5.79295">
        <ele>1064.5999755859</ele>
        <time>2012-05-19T09:24:15.000Z</time>
      </trkpt>
      <trkpt lat="45.37138" lon="5.79295">
        <ele>1063.1999511719</ele>
        <time>2012-05-19T09:24:17.000Z</time>
      </trkpt>
      <trkpt lat="45.37129" lon="5.79296">
        <ele>1060.8000488281</ele>
        <time>2012-05-19T09:24:19.000Z</time>
      </trkpt>
      <trkpt lat="45.37114" lon="5.79294">
        <ele>1059.8000488281</ele>
        <time>2012-05-19T09:24:23.000Z</time>
      </trkpt>
      <trkpt lat="45.37101" lon="5.79287">
        <ele>1061.8000488281</ele>
        <time>2012-05-19T09:24:28.000Z</time>
      </trkpt>
      <trkpt lat="45.37088" lon="5.79282">
        <ele>1065.1999511719</ele>
        <time>2012-05-19T09:24:32.000Z</time>
      </trkpt>
      <trkpt lat="45.37077" lon="5.79289">
        <ele>1063.8000488281</ele>
        <time>2012-05-19T09:24:36.000Z</time>
      </trkpt>
      <trkpt lat="45.37067" lon="5.79303">
        <ele>1062.8000488281</ele>
        <time>2012-05-19T09:24:40.000Z</time>
      </trkpt>
      <trkpt lat="45.37055" lon="5.79317">
        <ele>1060.4000244141</ele>
        <time>2012-05-19T09:24:44.000Z</time>
      </trkpt>
      <trkpt lat="45.3704" lon="5.79327">
        <ele>1059.4000244141</ele>
        <time>2012-05-19T09:24:49.000Z</time>
      </trkpt>
      <trkpt lat="45.37024" lon="5.79329">
        <ele>1050.1999511719</ele>
        <time>2012-05-19T09:24:54.000Z</time>
      </trkpt>
      <trkpt lat="45.37009" lon="5.79337">
        <ele>1045.4000244141</ele>
        <time>2012-05-19T09:24:59.000Z</time>
      </trkpt>
      <trkpt lat="45.36992" lon="5.79349">
        <ele>1042.5999755859</ele>
        <time>2012-05-19T09:25:04.000Z</time>
      </trkpt>
      <trkpt lat="45.3698" lon="5.79363">
        <ele>1044</ele>
        <time>2012-05-19T09:25:08.000Z</time>
      </trkpt>
      <trkpt lat="45.36972" lon="5.79368">
        <ele>1044</ele>
        <time>2012-05-19T09:25:10.000Z</time>
      </trkpt>
      <trkpt lat="45.36954" lon="5.79371">
        <ele>1046</ele>
        <time>2012-05-19T09:25:15.000Z</time>
      </trkpt>
      <trkpt lat="45.36936" lon="5.79368">
        <ele>1040.1999511719</ele>
        <time>2012-05-19T09:25:20.000Z</time>
      </trkpt>
      <trkpt lat="45.36932" lon="5.7937">
        <ele>1038.8000488281</ele>
        <time>2012-05-19T09:25:21.000Z</time>
      </trkpt>
      <trkpt lat="45.36915" lon="5.79373">
        <ele>1037.1999511719</ele>
        <time>2012-05-19T09:25:26.000Z</time>
      </trkpt>
      <trkpt lat="45.36902" lon="5.79371">
        <ele>1034.8000488281</ele>
        <time>2012-05-19T09:25:29.000Z</time>
      </trkpt>
      <trkpt lat="45.3688" lon="5.79375">
        <ele>1029.5999755859</ele>
        <time>2012-05-19T09:25:34.000Z</time>
      </trkpt>
      <trkpt lat="45.36858" lon="5.79384">
        <ele>1021.4000244141</ele>
        <time>2012-05-19T09:25:40.000Z</time>
      </trkpt>
      <trkpt lat="45.36841" lon="5.79378">
        <ele>1022.4000244141</ele>
        <time>2012-05-19T09:25:45.000Z</time>
      </trkpt>
      <trkpt lat="45.36822" lon="5.79365">
        <ele>1020.4000244141</ele>
        <time>2012-05-19T09:25:50.000Z</time>
      </trkpt>
      <trkpt lat="45.36811" lon="5.79358">
        <ele>1018.5999755859</ele>
        <time>2012-05-19T09:25:54.000Z</time>
      </trkpt>
      <trkpt lat="45.36794" lon="5.79348">
        <ele>1017.5999755859</ele>
        <time>2012-05-19T09:25:59.000Z</time>
      </trkpt>
      <trkpt lat="45.36786" lon="5.7934">
        <ele>1013.799987793</ele>
        <time>2012-05-19T09:26:02.000Z</time>
      </trkpt>
      <trkpt lat="45.36775" lon="5.79328">
        <ele>1007</ele>
        <time>2012-05-19T09:26:07.000Z</time>
      </trkpt>
      <trkpt lat="45.36754" lon="5.79327">
        <ele>1001.200012207</ele>
        <time>2012-05-19T09:26:11.000Z</time>
      </trkpt>
      <trkpt lat="45.3674" lon="5.79326">
        <ele>999.40002441406</ele>
        <time>2012-05-19T09:26:14.000Z</time>
      </trkpt>
      <trkpt lat="45.36733" lon="5.79326">
        <ele>997</ele>
        <time>2012-05-19T09:26:16.000Z</time>
      </trkpt>
      <trkpt lat="45.36719" lon="5.79326">
        <ele>993</ele>
        <time>2012-05-19T09:26:20.000Z</time>
      </trkpt>
      <trkpt lat="45.367" lon="5.79327">
        <ele>993</ele>
        <time>2012-05-19T09:26:25.000Z</time>
      </trkpt>
      <trkpt lat="45.36682" lon="5.7933">
        <ele>992.59997558594</ele>
        <time>2012-05-19T09:26:30.000Z</time>
      </trkpt>
      <trkpt lat="45.36672" lon="5.79332">
        <ele>993.59997558594</ele>
        <time>2012-05-19T09:26:32.000Z</time>
      </trkpt>
      <trkpt lat="45.36664" lon="5.79335">
        <ele>991.59997558594</ele>
        <time>2012-05-19T09:26:34.000Z</time>
      </trkpt>
      <trkpt lat="45.36644" lon="5.79334">
        <ele>987.40002441406</ele>
        <time>2012-05-19T09:26:39.000Z</time>
      </trkpt>
      <trkpt lat="45.36635" lon="5.79332">
        <ele>987.79998779297</ele>
        <time>2012-05-19T09:26:41.000Z</time>
      </trkpt>
      <trkpt lat="45.36615" lon="5.79336">
        <ele>982.59997558594</ele>
        <time>2012-05-19T09:26:47.000Z</time>
      </trkpt>
      <trkpt lat="45.36607" lon="5.7934">
        <ele>982</ele>
        <time>2012-05-19T09:26:49.000Z</time>
      </trkpt>
      <trkpt lat="45.36589" lon="5.79348">
        <ele>979.20001220703</ele>
        <time>2012-05-19T09:26:54.000Z</time>
      </trkpt>
      <trkpt lat="45.36576" lon="5.79353">
        <ele>977.20001220703</ele>
        <time>2012-05-19T09:26:57.000Z</time>
      </trkpt>
      <trkpt lat="45.36563" lon="5.79354">
        <ele>973.40002441406</ele>
        <time>2012-05-19T09:27:01.000Z</time>
      </trkpt>
      <trkpt lat="45.36541" lon="5.7935">
        <ele>968.59997558594</ele>
        <time>2012-05-19T09:27:07.000Z</time>
      </trkpt>
      <trkpt lat="45.36528" lon="5.79341">
        <ele>964.79998779297</ele>
        <time>2012-05-19T09:27:11.000Z</time>
      </trkpt>
      <trkpt lat="45.36507" lon="5.79329">
        <ele>961.79998779297</ele>
        <time>2012-05-19T09:27:17.000Z</time>
      </trkpt>
      <trkpt lat="45.36494" lon="5.79318">
        <ele>960</ele>
        <time>2012-05-19T09:27:21.000Z</time>
      </trkpt>
      <trkpt lat="45.36484" lon="5.79303">
        <ele>960.40002441406</ele>
        <time>2012-05-19T09:27:25.000Z</time>
      </trkpt>
      <trkpt lat="45.36472" lon="5.79285">
        <ele>959.40002441406</ele>
        <time>2012-05-19T09:27:29.000Z</time>
      </trkpt>
      <trkpt lat="45.36464" lon="5.79271">
        <ele>960</ele>
        <time>2012-05-19T09:27:32.000Z</time>
      </trkpt>
      <trkpt lat="45.36457" lon="5.79246">
        <ele>959</ele>
        <time>2012-05-19T09:27:37.000Z</time>
      </trkpt>
      <trkpt lat="45.36444" lon="5.79234">
        <ele>955.20001220703</ele>
        <time>2012-05-19T09:27:41.000Z</time>
      </trkpt>
      <trkpt lat="45.36424" lon="5.79224">
        <ele>950.40002441406</ele>
        <time>2012-05-19T09:27:46.000Z</time>
      </trkpt>
      <trkpt lat="45.36407" lon="5.79216">
        <ele>946</ele>
        <time>2012-05-19T09:27:50.000Z</time>
      </trkpt>
      <trkpt lat="45.36395" lon="5.79212">
        <ele>942.59997558594</ele>
        <time>2012-05-19T09:27:53.000Z</time>
      </trkpt>
      <trkpt lat="45.36383" lon="5.79206">
        <ele>937.79998779297</ele>
        <time>2012-05-19T09:27:56.000Z</time>
      </trkpt>
      <trkpt lat="45.36369" lon="5.79194">
        <ele>934</ele>
        <time>2012-05-19T09:28:00.000Z</time>
      </trkpt>
      <trkpt lat="45.36349" lon="5.79177">
        <ele>928.20001220703</ele>
        <time>2012-05-19T09:28:06.000Z</time>
      </trkpt>
      <trkpt lat="45.3633" lon="5.79166">
        <ele>924.79998779297</ele>
        <time>2012-05-19T09:28:11.000Z</time>
      </trkpt>
      <trkpt lat="45.36327" lon="5.79164">
        <ele>924.40002441406</ele>
        <time>2012-05-19T09:28:12.000Z</time>
      </trkpt>
      <trkpt lat="45.36306" lon="5.79161">
        <ele>919.59997558594</ele>
        <time>2012-05-19T09:28:17.000Z</time>
      </trkpt>
      <trkpt lat="45.36293" lon="5.79161">
        <ele>916.59997558594</ele>
        <time>2012-05-19T09:28:20.000Z</time>
      </trkpt>
      <trkpt lat="45.36286" lon="5.7916">
        <ele>915.20001220703</ele>
        <time>2012-05-19T09:28:22.000Z</time>
      </trkpt>
      <trkpt lat="45.36267" lon="5.7916">
        <ele>913.20001220703</ele>
        <time>2012-05-19T09:28:27.000Z</time>
      </trkpt>
      <trkpt lat="45.36253" lon="5.79156">
        <ele>909.40002441406</ele>
        <time>2012-05-19T09:28:31.000Z</time>
      </trkpt>
      <trkpt lat="45.36237" lon="5.79148">
        <ele>911.79998779297</ele>
        <time>2012-05-19T09:28:35.000Z</time>
      </trkpt>
      <trkpt lat="45.36232" lon="5.79149">
        <ele>910.79998779297</ele>
        <time>2012-05-19T09:28:36.000Z</time>
      </trkpt>
      <trkpt lat="45.36222" lon="5.79153">
        <ele>910</ele>
        <time>2012-05-19T09:28:38.000Z</time>
      </trkpt>
      <trkpt lat="45.36207" lon="5.79155">
        <ele>910.40002441406</ele>
        <time>2012-05-19T09:28:42.000Z</time>
      </trkpt>
      <trkpt lat="45.36192" lon="5.7916">
        <ele>910</ele>
        <time>2012-05-19T09:28:46.000Z</time>
      </trkpt>
      <trkpt lat="45.36174" lon="5.79158">
        <ele>910.40002441406</ele>
        <time>2012-05-19T09:28:52.000Z</time>
      </trkpt>
      <trkpt lat="45.36157" lon="5.79159">
        <ele>910.79998779297</ele>
        <time>2012-05-19T09:28:57.000Z</time>
      </trkpt>
      <trkpt lat="45.36144" lon="5.79159">
        <ele>910.79998779297</ele>
        <time>2012-05-19T09:29:01.000Z</time>
      </trkpt>
      <trkpt lat="45.36128" lon="5.7916">
        <ele>910</ele>
        <time>2012-05-19T09:29:05.000Z</time>
      </trkpt>
      <trkpt lat="45.36108" lon="5.79163">
        <ele>911.40002441406</ele>
        <time>2012-05-19T09:29:10.000Z</time>
      </trkpt>
      <trkpt lat="45.36094" lon="5.79166">
        <ele>909.40002441406</ele>
        <time>2012-05-19T09:29:13.000Z</time>
      </trkpt>
      <trkpt lat="45.36078" lon="5.79164">
        <ele>907</ele>
        <time>2012-05-19T09:29:17.000Z</time>
      </trkpt>
      <trkpt lat="45.36067" lon="5.79161">
        <ele>904.20001220703</ele>
        <time>2012-05-19T09:29:20.000Z</time>
      </trkpt>
      <trkpt lat="45.36043" lon="5.79156">
        <ele>902.20001220703</ele>
        <time>2012-05-19T09:29:26.000Z</time>
      </trkpt>
      <trkpt lat="45.36039" lon="5.79155">
        <ele>901.20001220703</ele>
        <time>2012-05-19T09:29:27.000Z</time>
      </trkpt>
      <trkpt lat="45.36022" lon="5.79146">
        <ele>903.20001220703</ele>
        <time>2012-05-19T09:29:31.000Z</time>
      </trkpt>
      <trkpt lat="45.36011" lon="5.79142">
        <ele>900.79998779297</ele>
        <time>2012-05-19T09:29:34.000Z</time>
      </trkpt>
      <trkpt lat="45.3599" lon="5.79133">
        <ele>898.40002441406</ele>
        <time>2012-05-19T09:29:40.000Z</time>
      </trkpt>
      <trkpt lat="45.35977" lon="5.79129">
        <ele>897.40002441406</ele>
        <time>2012-05-19T09:29:44.000Z</time>
      </trkpt>
      <trkpt lat="45.3596" lon="5.79123">
        <ele>896.40002441406</ele>
        <time>2012-05-19T09:29:49.000Z</time>
      </trkpt>
      <trkpt lat="45.35943" lon="5.7912">
        <ele>893.59997558594</ele>
        <time>2012-05-19T09:29:54.000Z</time>
      </trkpt>
      <trkpt lat="45.35924" lon="5.79115">
        <ele>891.20001220703</ele>
        <time>2012-05-19T09:29:59.000Z</time>
      </trkpt>
      <trkpt lat="45.35904" lon="5.7911">
        <ele>888.79998779297</ele>
        <time>2012-05-19T09:30:04.000Z</time>
      </trkpt>
      <trkpt lat="45.35897" lon="5.79107">
        <ele>887.40002441406</ele>
        <time>2012-05-19T09:30:06.000Z</time>
      </trkpt>
      <trkpt lat="45.35878" lon="5.79098">
        <ele>885.79998779297</ele>
        <time>2012-05-19T09:30:11.000Z</time>
      </trkpt>
      <trkpt lat="45.35857" lon="5.79093">
        <ele>887.40002441406</ele>
        <time>2012-05-19T09:30:16.000Z</time>
      </trkpt>
      <trkpt lat="45.35853" lon="5.79091">
        <ele>887.40002441406</ele>
        <time>2012-05-19T09:30:17.000Z</time>
      </trkpt>
      <trkpt lat="45.35836" lon="5.79086">
        <ele>883.40002441406</ele>
        <time>2012-05-19T09:30:22.000Z</time>
      </trkpt>
      <trkpt lat="45.35819" lon="5.79077">
        <ele>879.59997558594</ele>
        <time>2012-05-19T09:30:27.000Z</time>
      </trkpt>
      <trkpt lat="45.358" lon="5.79069">
        <ele>888.79998779297</ele>
        <time>2012-05-19T09:30:32.000Z</time>
      </trkpt>
      <trkpt lat="45.3578" lon="5.79066">
        <ele>894</ele>
        <time>2012-05-19T09:30:37.000Z</time>
      </trkpt>
      <trkpt lat="45.35762" lon="5.79065">
        <ele>893.20001220703</ele>
        <time>2012-05-19T09:30:42.000Z</time>
      </trkpt>
      <trkpt lat="45.35743" lon="5.79064">
        <ele>892.20001220703</ele>
        <time>2012-05-19T09:30:47.000Z</time>
      </trkpt>
      <trkpt lat="45.35725" lon="5.79062">
        <ele>892.20001220703</ele>
        <time>2012-05-19T09:30:52.000Z</time>
      </trkpt>
      <trkpt lat="45.35712" lon="5.79059">
        <ele>890.20001220703</ele>
        <time>2012-05-19T09:30:56.000Z</time>
      </trkpt>
      <trkpt lat="45.35694" lon="5.79057">
        <ele>886.79998779297</ele>
        <time>2012-05-19T09:31:01.000Z</time>
      </trkpt>
      <trkpt lat="45.35677" lon="5.79057">
        <ele>884.40002441406</ele>
        <time>2012-05-19T09:31:06.000Z</time>
      </trkpt>
      <trkpt lat="45.35655" lon="5.79059">
        <ele>883.40002441406</ele>
        <time>2012-05-19T09:31:12.000Z</time>
      </trkpt>
      <trkpt lat="45.35638" lon="5.79054">
        <ele>881.59997558594</ele>
        <time>2012-05-19T09:31:17.000Z</time>
      </trkpt>
      <trkpt lat="45.35631" lon="5.79054">
        <ele>881</ele>
        <time>2012-05-19T09:31:19.000Z</time>
      </trkpt>
      <trkpt lat="45.35613" lon="5.79054">
        <ele>879.20001220703</ele>
        <time>2012-05-19T09:31:24.000Z</time>
      </trkpt>
      <trkpt lat="45.35589" lon="5.79049">
        <ele>878.20001220703</ele>
        <time>2012-05-19T09:31:31.000Z</time>
      </trkpt>
      <trkpt lat="45.35579" lon="5.79045">
        <ele>878.59997558594</ele>
        <time>2012-05-19T09:31:34.000Z</time>
      </trkpt>
      <trkpt lat="45.35561" lon="5.7904">
        <ele>879.20001220703</ele>
        <time>2012-05-19T09:31:39.000Z</time>
      </trkpt>
      <trkpt lat="45.35549" lon="5.79037">
        <ele>877.79998779297</ele>
        <time>2012-05-19T09:31:42.000Z</time>
      </trkpt>
      <trkpt lat="45.35527" lon="5.79033">
        <ele>875.79998779297</ele>
        <time>2012-05-19T09:31:47.000Z</time>
      </trkpt>
      <trkpt lat="45.35523" lon="5.79031">
        <ele>876.20001220703</ele>
        <time>2012-05-19T09:31:48.000Z</time>
      </trkpt>
      <trkpt lat="45.35508" lon="5.79027">
        <ele>875.40002441406</ele>
        <time>2012-05-19T09:31:52.000Z</time>
      </trkpt>
      <trkpt lat="45.3549" lon="5.7902">
        <ele>875.79998779297</ele>
        <time>2012-05-19T09:31:57.000Z</time>
      </trkpt>
      <trkpt lat="45.35476" lon="5.79012">
        <ele>876.79998779297</ele>
        <time>2012-05-19T09:32:01.000Z</time>
      </trkpt>
      <trkpt lat="45.35459" lon="5.79004">
        <ele>875.40002441406</ele>
        <time>2012-05-19T09:32:06.000Z</time>
      </trkpt>
      <trkpt lat="45.35444" lon="5.78996">
        <ele>874.79998779297</ele>
        <time>2012-05-19T09:32:10.000Z</time>
      </trkpt>
      <trkpt lat="45.3542" lon="5.78985">
        <ele>873</ele>
        <time>2012-05-19T09:32:16.000Z</time>
      </trkpt>
      <trkpt lat="45.35404" lon="5.7898">
        <ele>871</ele>
        <time>2012-05-19T09:32:20.000Z</time>
      </trkpt>
      <trkpt lat="45.35397" lon="5.78976">
        <ele>870.59997558594</ele>
        <time>2012-05-19T09:32:22.000Z</time>
      </trkpt>
      <trkpt lat="45.35373" lon="5.78958">
        <ele>869</ele>
        <time>2012-05-19T09:32:29.000Z</time>
      </trkpt>
      <trkpt lat="45.35359" lon="5.78951">
        <ele>865.20001220703</ele>
        <time>2012-05-19T09:32:33.000Z</time>
      </trkpt>
      <trkpt lat="45.35341" lon="5.78944">
        <ele>860.79998779297</ele>
        <time>2012-05-19T09:32:38.000Z</time>
      </trkpt>
      <trkpt lat="45.35326" lon="5.78935">
        <ele>858</ele>
        <time>2012-05-19T09:32:42.000Z</time>
      </trkpt>
      <trkpt lat="45.35308" lon="5.78927">
        <ele>853.20001220703</ele>
        <time>2012-05-19T09:32:47.000Z</time>
      </trkpt>
      <trkpt lat="45.35292" lon="5.78921">
        <ele>849.40002441406</ele>
        <time>2012-05-19T09:32:52.000Z</time>
      </trkpt>
      <trkpt lat="45.35279" lon="5.78921">
        <ele>848</ele>
        <time>2012-05-19T09:32:56.000Z</time>
      </trkpt>
      <trkpt lat="45.35258" lon="5.78921">
        <ele>845.59997558594</ele>
        <time>2012-05-19T09:33:01.000Z</time>
      </trkpt>
      <trkpt lat="45.35255" lon="5.78919">
        <ele>846</ele>
        <time>2012-05-19T09:33:02.000Z</time>
      </trkpt>
      <trkpt lat="45.35241" lon="5.78921">
        <ele>846.40002441406</ele>
        <time>2012-05-19T09:33:06.000Z</time>
      </trkpt>
      <trkpt lat="45.35229" lon="5.7892">
        <ele>848</ele>
        <time>2012-05-19T09:33:10.000Z</time>
      </trkpt>
      <trkpt lat="45.35211" lon="5.7892">
        <ele>849.40002441406</ele>
        <time>2012-05-19T09:33:16.000Z</time>
      </trkpt>
      <trkpt lat="45.35198" lon="5.78922">
        <ele>849.40002441406</ele>
        <time>2012-05-19T09:33:20.000Z</time>
      </trkpt>
      <trkpt lat="45.35181" lon="5.78925">
        <ele>849.79998779297</ele>
        <time>2012-05-19T09:33:25.000Z</time>
      </trkpt>
      <trkpt lat="45.35168" lon="5.78926">
        <ele>852.20001220703</ele>
        <time>2012-05-19T09:33:30.000Z</time>
      </trkpt>
      <trkpt lat="45.35152" lon="5.78929">
        <ele>854.59997558594</ele>
        <time>2012-05-19T09:33:35.000Z</time>
      </trkpt>
      <trkpt lat="45.3514" lon="5.78936">
        <ele>854.59997558594</ele>
        <time>2012-05-19T09:33:38.000Z</time>
      </trkpt>
      <trkpt lat="45.35124" lon="5.78946">
        <ele>854.59997558594</ele>
        <time>2012-05-19T09:33:42.000Z</time>
      </trkpt>
      <trkpt lat="45.35109" lon="5.78957">
        <ele>854.59997558594</ele>
        <time>2012-05-19T09:33:46.000Z</time>
      </trkpt>
      <trkpt lat="45.35094" lon="5.78967">
        <ele>856</ele>
        <time>2012-05-19T09:33:51.000Z</time>
      </trkpt>
      <trkpt lat="45.35081" lon="5.78975">
        <ele>856</ele>
        <time>2012-05-19T09:33:55.000Z</time>
      </trkpt>
      <trkpt lat="45.35069" lon="5.78981">
        <ele>856.59997558594</ele>
        <time>2012-05-19T09:33:59.000Z</time>
      </trkpt>
      <trkpt lat="45.35054" lon="5.78984">
        <ele>857</ele>
        <time>2012-05-19T09:34:03.000Z</time>
      </trkpt>
      <trkpt lat="45.3504" lon="5.78988">
        <ele>854.59997558594</ele>
        <time>2012-05-19T09:34:07.000Z</time>
      </trkpt>
      <trkpt lat="45.35023" lon="5.78997">
        <ele>851.20001220703</ele>
        <time>2012-05-19T09:34:12.000Z</time>
      </trkpt>
      <trkpt lat="45.35012" lon="5.79002">
        <ele>849.79998779297</ele>
        <time>2012-05-19T09:34:16.000Z</time>
      </trkpt>
      <trkpt lat="45.34997" lon="5.79001">
        <ele>849.79998779297</ele>
        <time>2012-05-19T09:34:21.000Z</time>
      </trkpt>
      <trkpt lat="45.34981" lon="5.79002">
        <ele>848.79998779297</ele>
        <time>2012-05-19T09:34:26.000Z</time>
      </trkpt>
      <trkpt lat="45.34967" lon="5.7901">
        <ele>849.40002441406</ele>
        <time>2012-05-19T09:34:30.000Z</time>
      </trkpt>
      <trkpt lat="45.34957" lon="5.79027">
        <ele>847</ele>
        <time>2012-05-19T09:34:35.000Z</time>
      </trkpt>
      <trkpt lat="45.34951" lon="5.79051">
        <ele>844.59997558594</ele>
        <time>2012-05-19T09:34:40.000Z</time>
      </trkpt>
      <trkpt lat="45.34945" lon="5.79077">
        <ele>842.20001220703</ele>
        <time>2012-05-19T09:34:45.000Z</time>
      </trkpt>
      <trkpt lat="45.34942" lon="5.79093">
        <ele>838.40002441406</ele>
        <time>2012-05-19T09:34:49.000Z</time>
      </trkpt>
      <trkpt lat="45.34933" lon="5.79109">
        <ele>835</ele>
        <time>2012-05-19T09:34:53.000Z</time>
      </trkpt>
      <trkpt lat="45.34926" lon="5.79126">
        <ele>828.59997558594</ele>
        <time>2012-05-19T09:34:57.000Z</time>
      </trkpt>
      <trkpt lat="45.34918" lon="5.79146">
        <ele>824.40002441406</ele>
        <time>2012-05-19T09:35:01.000Z</time>
      </trkpt>
      <trkpt lat="45.34909" lon="5.79163">
        <ele>820.59997558594</ele>
        <time>2012-05-19T09:35:05.000Z</time>
      </trkpt>
      <trkpt lat="45.349" lon="5.79177">
        <ele>826.79998779297</ele>
        <time>2012-05-19T09:35:08.000Z</time>
      </trkpt>
      <trkpt lat="45.34886" lon="5.79184">
        <ele>826.20001220703</ele>
        <time>2012-05-19T09:35:12.000Z</time>
      </trkpt>
      <trkpt lat="45.34878" lon="5.79187">
        <ele>826.20001220703</ele>
        <time>2012-05-19T09:35:14.000Z</time>
      </trkpt>
      <trkpt lat="45.34861" lon="5.79192">
        <ele>827.79998779297</ele>
        <time>2012-05-19T09:35:18.000Z</time>
      </trkpt>
      <trkpt lat="45.34848" lon="5.79196">
        <ele>823.40002441406</ele>
        <time>2012-05-19T09:35:21.000Z</time>
      </trkpt>
      <trkpt lat="45.34831" lon="5.79194">
        <ele>823.79998779297</ele>
        <time>2012-05-19T09:35:25.000Z</time>
      </trkpt>
      <trkpt lat="45.34804" lon="5.79194">
        <ele>825.79998779297</ele>
        <time>2012-05-19T09:35:31.000Z</time>
      </trkpt>
      <trkpt lat="45.34796" lon="5.79195">
        <ele>826.20001220703</ele>
        <time>2012-05-19T09:35:33.000Z</time>
      </trkpt>
      <trkpt lat="45.34778" lon="5.79197">
        <ele>826.79998779297</ele>
        <time>2012-05-19T09:35:39.000Z</time>
      </trkpt>
      <trkpt lat="45.34758" lon="5.7921">
        <ele>822</ele>
        <time>2012-05-19T09:35:44.000Z</time>
      </trkpt>
      <trkpt lat="45.34742" lon="5.79221">
        <ele>813.40002441406</ele>
        <time>2012-05-19T09:35:49.000Z</time>
      </trkpt>
      <trkpt lat="45.34735" lon="5.79235">
        <ele>809</ele>
        <time>2012-05-19T09:35:52.000Z</time>
      </trkpt>
      <trkpt lat="45.3472" lon="5.79256">
        <ele>801.20001220703</ele>
        <time>2012-05-19T09:35:58.000Z</time>
      </trkpt>
      <trkpt lat="45.34715" lon="5.79264">
        <ele>799.79998779297</ele>
        <time>2012-05-19T09:36:00.000Z</time>
      </trkpt>
      <trkpt lat="45.34709" lon="5.79298">
        <ele>792.20001220703</ele>
        <time>2012-05-19T09:36:06.000Z</time>
      </trkpt>
      <trkpt lat="45.34707" lon="5.79318">
        <ele>784.40002441406</ele>
        <time>2012-05-19T09:36:10.000Z</time>
      </trkpt>
      <trkpt lat="45.34701" lon="5.79337">
        <ele>780.20001220703</ele>
        <time>2012-05-19T09:36:14.000Z</time>
      </trkpt>
      <trkpt lat="45.3469" lon="5.79349">
        <ele>776.79998779297</ele>
        <time>2012-05-19T09:36:18.000Z</time>
      </trkpt>
      <trkpt lat="45.34678" lon="5.79366">
        <ele>780.20001220703</ele>
        <time>2012-05-19T09:36:23.000Z</time>
      </trkpt>
      <trkpt lat="45.34669" lon="5.79383">
        <ele>776.40002441406</ele>
        <time>2012-05-19T09:36:27.000Z</time>
      </trkpt>
      <trkpt lat="45.34663" lon="5.79399">
        <ele>775.40002441406</ele>
        <time>2012-05-19T09:36:31.000Z</time>
      </trkpt>
      <trkpt lat="45.34659" lon="5.79423">
        <ele>777.20001220703</ele>
        <time>2012-05-19T09:36:36.000Z</time>
      </trkpt>
      <trkpt lat="45.34657" lon="5.79447">
        <ele>780.20001220703</ele>
        <time>2012-05-19T09:36:41.000Z</time>
      </trkpt>
      <trkpt lat="45.34652" lon="5.79466">
        <ele>784</ele>
        <time>2012-05-19T09:36:46.000Z</time>
      </trkpt>
      <trkpt lat="45.34648" lon="5.79484">
        <ele>794</ele>
        <time>2012-05-19T09:36:50.000Z</time>
      </trkpt>
      <trkpt lat="45.34634" lon="5.79499">
        <ele>801.79998779297</ele>
        <time>2012-05-19T09:36:56.000Z</time>
      </trkpt>
      <trkpt lat="45.34618" lon="5.79508">
        <ele>811.40002441406</ele>
        <time>2012-05-19T09:37:01.000Z</time>
      </trkpt>
      <trkpt lat="45.34606" lon="5.79524">
        <ele>816.20001220703</ele>
        <time>2012-05-19T09:37:06.000Z</time>
      </trkpt>
      <trkpt lat="45.34598" lon="5.79542">
        <ele>814.79998779297</ele>
        <time>2012-05-19T09:37:10.000Z</time>
      </trkpt>
      <trkpt lat="45.3459" lon="5.79564">
        <ele>811.79998779297</ele>
        <time>2012-05-19T09:37:16.000Z</time>
      </trkpt>
      <trkpt lat="45.34584" lon="5.7958">
        <ele>807</ele>
        <time>2012-05-19T09:37:20.000Z</time>
      </trkpt>
      <trkpt lat="45.34579" lon="5.79597">
        <ele>802.20001220703</ele>
        <time>2012-05-19T09:37:24.000Z</time>
      </trkpt>
      <trkpt lat="45.34575" lon="5.79613">
        <ele>803.20001220703</ele>
        <time>2012-05-19T09:37:28.000Z</time>
      </trkpt>
      <trkpt lat="45.34568" lon="5.79633">
        <ele>800.79998779297</ele>
        <time>2012-05-19T09:37:33.000Z</time>
      </trkpt>
      <trkpt lat="45.3456" lon="5.79651">
        <ele>799.79998779297</ele>
        <time>2012-05-19T09:37:38.000Z</time>
      </trkpt>
      <trkpt lat="45.34555" lon="5.79666">
        <ele>795.59997558594</ele>
        <time>2012-05-19T09:37:42.000Z</time>
      </trkpt>
      <trkpt lat="45.34555" lon="5.79666">
        <ele>795</ele>
        <time>2012-05-19T09:37:43.000Z</time>
      </trkpt>
      <trkpt lat="45.34553" lon="5.79665">
        <ele>792.20001220703</ele>
        <time>2012-05-19T09:37:47.000Z</time>
      </trkpt>
      <trkpt lat="45.34554" lon="5.79659">
        <ele>788.79998779297</ele>
        <time>2012-05-19T09:37:49.000Z</time>
      </trkpt>
      <trkpt lat="45.34557" lon="5.79646">
        <ele>779.59997558594</ele>
        <time>2012-05-19T09:37:54.000Z</time>
      </trkpt>
      <trkpt lat="45.34549" lon="5.79657">
        <ele>774.79998779297</ele>
        <time>2012-05-19T09:37:59.000Z</time>
      </trkpt>
      <trkpt lat="45.34546" lon="5.7966">
        <ele>769.59997558594</ele>
        <time>2012-05-19T09:38:03.000Z</time>
      </trkpt>
      <trkpt lat="45.34546" lon="5.7964">
        <ele>767.59997558594</ele>
        <time>2012-05-19T09:38:08.000Z</time>
      </trkpt>
      <trkpt lat="45.34543" lon="5.79634">
        <ele>764.20001220703</ele>
        <time>2012-05-19T09:38:11.000Z</time>
      </trkpt>
      <trkpt lat="45.3453" lon="5.79643">
        <ele>759.40002441406</ele>
        <time>2012-05-19T09:38:16.000Z</time>
      </trkpt>
      <trkpt lat="45.3453" lon="5.79652">
        <ele>756.59997558594</ele>
        <time>2012-05-19T09:38:21.000Z</time>
      </trkpt>
      <trkpt lat="45.34531" lon="5.79664">
        <ele>753.20001220703</ele>
        <time>2012-05-19T09:38:26.000Z</time>
      </trkpt>
      <trkpt lat="45.34531" lon="5.79673">
        <ele>752.79998779297</ele>
        <time>2012-05-19T09:38:29.000Z</time>
      </trkpt>
      <trkpt lat="45.34531" lon="5.79682">
        <ele>750.79998779297</ele>
        <time>2012-05-19T09:38:33.000Z</time>
      </trkpt>
      <trkpt lat="45.34522" lon="5.79699">
        <ele>746</ele>
        <time>2012-05-19T09:38:38.000Z</time>
      </trkpt>
      <trkpt lat="45.34519" lon="5.79707">
        <ele>744.59997558594</ele>
        <time>2012-05-19T09:38:41.000Z</time>
      </trkpt>
      <trkpt lat="45.34515" lon="5.79728">
        <ele>758</ele>
        <time>2012-05-19T09:38:47.000Z</time>
      </trkpt>
      <trkpt lat="45.34511" lon="5.79739">
        <ele>771.40002441406</ele>
        <time>2012-05-19T09:38:51.000Z</time>
      </trkpt>
      <trkpt lat="45.345" lon="5.79748">
        <ele>782</ele>
        <time>2012-05-19T09:38:55.000Z</time>
      </trkpt>
      <trkpt lat="45.34496" lon="5.79754">
        <ele>784.40002441406</ele>
        <time>2012-05-19T09:38:57.000Z</time>
      </trkpt>
      <trkpt lat="45.34486" lon="5.79768">
        <ele>792.20001220703</ele>
        <time>2012-05-19T09:39:04.000Z</time>
      </trkpt>
      <trkpt lat="45.34472" lon="5.7977">
        <ele>794.59997558594</ele>
        <time>2012-05-19T09:39:09.000Z</time>
      </trkpt>
      <trkpt lat="45.3447" lon="5.7977">
        <ele>795</ele>
        <time>2012-05-19T09:39:10.000Z</time>
      </trkpt>
      <trkpt lat="45.34462" lon="5.79778">
        <ele>806.20001220703</ele>
        <time>2012-05-19T09:39:14.000Z</time>
      </trkpt>
      <trkpt lat="45.34455" lon="5.79785">
        <ele>814.79998779297</ele>
        <time>2012-05-19T09:39:18.000Z</time>
      </trkpt>
      <trkpt lat="45.34451" lon="5.79786">
        <ele>819.59997558594</ele>
        <time>2012-05-19T09:39:20.000Z</time>
      </trkpt>
      <trkpt lat="45.3444" lon="5.79795">
        <ele>826.79998779297</ele>
        <time>2012-05-19T09:39:25.000Z</time>
      </trkpt>
      <trkpt lat="45.34427" lon="5.79803">
        <ele>835</ele>
        <time>2012-05-19T09:39:30.000Z</time>
      </trkpt>
      <trkpt lat="45.34416" lon="5.79813">
        <ele>840.20001220703</ele>
        <time>2012-05-19T09:39:35.000Z</time>
      </trkpt>
      <trkpt lat="45.34409" lon="5.79817">
        <ele>848</ele>
        <time>2012-05-19T09:39:39.000Z</time>
      </trkpt>
      <trkpt lat="45.34393" lon="5.7982">
        <ele>836</ele>
        <time>2012-05-19T09:39:52.000Z</time>
      </trkpt>
      <trkpt lat="45.34389" lon="5.79818">
        <ele>840.20001220703</ele>
        <time>2012-05-19T09:39:58.000Z</time>
      </trkpt>
      <trkpt lat="45.34383" lon="5.79823">
        <ele>844.59997558594</ele>
        <time>2012-05-19T09:40:02.000Z</time>
      </trkpt>
      <trkpt lat="45.3438" lon="5.7984">
        <ele>850.40002441406</ele>
        <time>2012-05-19T09:40:07.000Z</time>
      </trkpt>
      <trkpt lat="45.34381" lon="5.79845">
        <ele>849.79998779297</ele>
        <time>2012-05-19T09:40:08.000Z</time>
      </trkpt>
      <trkpt lat="45.34385" lon="5.79869">
        <ele>854.59997558594</ele>
        <time>2012-05-19T09:40:13.000Z</time>
      </trkpt>
      <trkpt lat="45.34388" lon="5.79889">
        <ele>852.20001220703</ele>
        <time>2012-05-19T09:40:18.000Z</time>
      </trkpt>
      <trkpt lat="45.34385" lon="5.79909">
        <ele>849.79998779297</ele>
        <time>2012-05-19T09:40:23.000Z</time>
      </trkpt>
      <trkpt lat="45.34383" lon="5.79924">
        <ele>848.79998779297</ele>
        <time>2012-05-19T09:40:27.000Z</time>
      </trkpt>
      <trkpt lat="45.34388" lon="5.79953">
        <ele>842.20001220703</ele>
        <time>2012-05-19T09:40:32.000Z</time>
      </trkpt>
      <trkpt lat="45.34392" lon="5.79968">
        <ele>836</ele>
        <time>2012-05-19T09:40:34.000Z</time>
      </trkpt>
      <trkpt lat="45.34397" lon="5.79994">
        <ele>827.79998779297</ele>
        <time>2012-05-19T09:40:39.000Z</time>
      </trkpt>
      <trkpt lat="45.34405" lon="5.80025">
        <ele>828.20001220703</ele>
        <time>2012-05-19T09:40:46.000Z</time>
      </trkpt>
      <trkpt lat="45.3441" lon="5.80055">
        <ele>833</ele>
        <time>2012-05-19T09:40:51.000Z</time>
      </trkpt>
      <trkpt lat="45.3441" lon="5.80072">
        <ele>836</ele>
        <time>2012-05-19T09:40:54.000Z</time>
      </trkpt>
      <trkpt lat="45.34416" lon="5.80088">
        <ele>836</ele>
        <time>2012-05-19T09:41:00.000Z</time>
      </trkpt>
      <trkpt lat="45.34423" lon="5.8009">
        <ele>830.20001220703</ele>
        <time>2012-05-19T09:41:05.000Z</time>
      </trkpt>
      <trkpt lat="45.34425" lon="5.80091">
        <ele>830.59997558594</ele>
        <time>2012-05-19T09:41:06.000Z</time>
      </trkpt>
      <trkpt lat="45.34428" lon="5.80094">
        <ele>821</ele>
        <time>2012-05-19T09:41:11.000Z</time>
      </trkpt>
      <trkpt lat="45.34423" lon="5.80094">
        <ele>819.59997558594</ele>
        <time>2012-05-19T09:41:18.000Z</time>
      </trkpt>
      <trkpt lat="45.34426" lon="5.80105">
        <ele>815.79998779297</ele>
        <time>2012-05-19T09:41:23.000Z</time>
      </trkpt>
      <trkpt lat="45.34433" lon="5.80116">
        <ele>808.59997558594</ele>
        <time>2012-05-19T09:41:27.000Z</time>
      </trkpt>
      <trkpt lat="45.34435" lon="5.80118">
        <ele>806.20001220703</ele>
        <time>2012-05-19T09:41:29.000Z</time>
      </trkpt>
      <trkpt lat="45.3444" lon="5.80126">
        <ele>798.40002441406</ele>
        <time>2012-05-19T09:41:36.000Z</time>
      </trkpt>
      <trkpt lat="45.3444" lon="5.80131">
        <ele>798</ele>
        <time>2012-05-19T09:41:43.000Z</time>
      </trkpt>
      <trkpt lat="45.34445" lon="5.80151">
        <ele>808.59997558594</ele>
        <time>2012-05-19T09:42:01.000Z</time>
      </trkpt>
      <trkpt lat="45.34441" lon="5.80163">
        <ele>808.59997558594</ele>
        <time>2012-05-19T09:42:06.000Z</time>
      </trkpt>
      <trkpt lat="45.3444" lon="5.80173">
        <ele>810.40002441406</ele>
        <time>2012-05-19T09:42:11.000Z</time>
      </trkpt>
      <trkpt lat="45.34442" lon="5.80178">
        <ele>809.40002441406</ele>
        <time>2012-05-19T09:42:13.000Z</time>
      </trkpt>
      <trkpt lat="45.34449" lon="5.80182">
        <ele>812.40002441406</ele>
        <time>2012-05-19T09:42:19.000Z</time>
      </trkpt>
      <trkpt lat="45.34446" lon="5.80177">
        <ele>817.59997558594</ele>
        <time>2012-05-19T09:42:25.000Z</time>
      </trkpt>
      <trkpt lat="45.34449" lon="5.80174">
        <ele>823.79998779297</ele>
        <time>2012-05-19T09:42:32.000Z</time>
      </trkpt>
      <trkpt lat="45.34457" lon="5.80179">
        <ele>823.40002441406</ele>
        <time>2012-05-19T09:42:38.000Z</time>
      </trkpt>
      <trkpt lat="45.34463" lon="5.80179">
        <ele>825.40002441406</ele>
        <time>2012-05-19T09:42:45.000Z</time>
      </trkpt>
      <trkpt lat="45.34472" lon="5.80179">
        <ele>822.40002441406</ele>
        <time>2012-05-19T09:42:53.000Z</time>
      </trkpt>
      <trkpt lat="45.34481" lon="5.80188">
        <ele>824.79998779297</ele>
        <time>2012-05-19T09:43:00.000Z</time>
      </trkpt>
      <trkpt lat="45.34488" lon="5.80192">
        <ele>825.40002441406</ele>
        <time>2012-05-19T09:43:05.000Z</time>
      </trkpt>
      <trkpt lat="45.34493" lon="5.80196">
        <ele>825.40002441406</ele>
        <time>2012-05-19T09:43:09.000Z</time>
      </trkpt>
      <trkpt lat="45.34501" lon="5.80203">
        <ele>826.79998779297</ele>
        <time>2012-05-19T09:43:15.000Z</time>
      </trkpt>
      <trkpt lat="45.34504" lon="5.80208">
        <ele>824.79998779297</ele>
        <time>2012-05-19T09:43:18.000Z</time>
      </trkpt>
      <trkpt lat="45.3451" lon="5.80214">
        <ele>824.79998779297</ele>
        <time>2012-05-19T09:43:24.000Z</time>
      </trkpt>
      <trkpt lat="45.34512" lon="5.80216">
        <ele>823</ele>
        <time>2012-05-19T09:43:28.000Z</time>
      </trkpt>
      <trkpt lat="45.34516" lon="5.80222">
        <ele>821.40002441406</ele>
        <time>2012-05-19T09:43:34.000Z</time>
      </trkpt>
      <trkpt lat="45.34519" lon="5.80232">
        <ele>817.20001220703</ele>
        <time>2012-05-19T09:43:39.000Z</time>
      </trkpt>
      <trkpt lat="45.3452" lon="5.80237">
        <ele>816.59997558594</ele>
        <time>2012-05-19T09:43:41.000Z</time>
      </trkpt>
      <trkpt lat="45.34525" lon="5.80251">
        <ele>821</ele>
        <time>2012-05-19T09:43:47.000Z</time>
      </trkpt>
      <trkpt lat="45.34526" lon="5.80252">
        <ele>820</ele>
        <time>2012-05-19T09:43:48.000Z</time>
      </trkpt>
      <trkpt lat="45.34536" lon="5.80258">
        <ele>824.79998779297</ele>
        <time>2012-05-19T09:43:54.000Z</time>
      </trkpt>
      <trkpt lat="45.34539" lon="5.80261">
        <ele>834</ele>
        <time>2012-05-19T09:43:59.000Z</time>
      </trkpt>
      <trkpt lat="45.34545" lon="5.8027">
        <ele>847.40002441406</ele>
        <time>2012-05-19T09:44:04.000Z</time>
      </trkpt>
      <trkpt lat="45.3455" lon="5.80268">
        <ele>851.79998779297</ele>
        <time>2012-05-19T09:44:10.000Z</time>
      </trkpt>
      <trkpt lat="45.34562" lon="5.80268">
        <ele>860.40002441406</ele>
        <time>2012-05-19T09:44:17.000Z</time>
      </trkpt>
      <trkpt lat="45.34568" lon="5.8027">
        <ele>864.79998779297</ele>
        <time>2012-05-19T09:44:23.000Z</time>
      </trkpt>
      <trkpt lat="45.34576" lon="5.80272">
        <ele>871</ele>
        <time>2012-05-19T09:44:30.000Z</time>
      </trkpt>
      <trkpt lat="45.34577" lon="5.80273">
        <ele>870</ele>
        <time>2012-05-19T09:44:31.000Z</time>
      </trkpt>
      <trkpt lat="45.34583" lon="5.80276">
        <ele>868.59997558594</ele>
        <time>2012-05-19T09:44:36.000Z</time>
      </trkpt>
      <trkpt lat="45.34587" lon="5.80278">
        <ele>868.59997558594</ele>
        <time>2012-05-19T09:44:39.000Z</time>
      </trkpt>
      <trkpt lat="45.34591" lon="5.80281">
        <ele>867.20001220703</ele>
        <time>2012-05-19T09:44:43.000Z</time>
      </trkpt>
      <trkpt lat="45.34593" lon="5.80289">
        <ele>862.40002441406</ele>
        <time>2012-05-19T09:44:49.000Z</time>
      </trkpt>
      <trkpt lat="45.34595" lon="5.80294">
        <ele>860.79998779297</ele>
        <time>2012-05-19T09:44:52.000Z</time>
      </trkpt>
      <trkpt lat="45.34597" lon="5.80301">
        <ele>859.40002441406</ele>
        <time>2012-05-19T09:44:54.000Z</time>
      </trkpt>
      <trkpt lat="45.34603" lon="5.80312">
        <ele>858</ele>
        <time>2012-05-19T09:44:58.000Z</time>
      </trkpt>
      <trkpt lat="45.34609" lon="5.80328">
        <ele>853.59997558594</ele>
        <time>2012-05-19T09:45:03.000Z</time>
      </trkpt>
      <trkpt lat="45.34612" lon="5.8034">
        <ele>847.40002441406</ele>
        <time>2012-05-19T09:45:07.000Z</time>
      </trkpt>
      <trkpt lat="45.34612" lon="5.80353">
        <ele>850.40002441406</ele>
        <time>2012-05-19T09:45:11.000Z</time>
      </trkpt>
      <trkpt lat="45.34609" lon="5.80353">
        <ele>852.20001220703</ele>
        <time>2012-05-19T09:45:13.000Z</time>
      </trkpt>
      <trkpt lat="45.34604" lon="5.80361">
        <ele>857.59997558594</ele>
        <time>2012-05-19T09:45:18.000Z</time>
      </trkpt>
      <trkpt lat="45.34602" lon="5.80367">
        <ele>856.59997558594</ele>
        <time>2012-05-19T09:45:22.000Z</time>
      </trkpt>
      <trkpt lat="45.346" lon="5.80371">
        <ele>851.20001220703</ele>
        <time>2012-05-19T09:45:27.000Z</time>
      </trkpt>
      <trkpt lat="45.34593" lon="5.80374">
        <ele>858</ele>
        <time>2012-05-19T09:45:33.000Z</time>
      </trkpt>
      <trkpt lat="45.34584" lon="5.80378">
        <ele>860.79998779297</ele>
        <time>2012-05-19T09:45:39.000Z</time>
      </trkpt>
      <trkpt lat="45.34582" lon="5.80375">
        <ele>864.20001220703</ele>
        <time>2012-05-19T09:45:42.000Z</time>
      </trkpt>
      <trkpt lat="45.34572" lon="5.80369">
        <ele>867.20001220703</ele>
        <time>2012-05-19T09:45:47.000Z</time>
      </trkpt>
      <trkpt lat="45.34558" lon="5.80368">
        <ele>872.40002441406</ele>
        <time>2012-05-19T09:45:51.000Z</time>
      </trkpt>
      <trkpt lat="45.34554" lon="5.80368">
        <ele>870</ele>
        <time>2012-05-19T09:45:53.000Z</time>
      </trkpt>
      <trkpt lat="45.3454" lon="5.80368">
        <ele>866.59997558594</ele>
        <time>2012-05-19T09:45:59.000Z</time>
      </trkpt>
      <trkpt lat="45.34529" lon="5.80359">
        <ele>865.79998779297</ele>
        <time>2012-05-19T09:46:03.000Z</time>
      </trkpt>
      <trkpt lat="45.34518" lon="5.80351">
        <ele>863.79998779297</ele>
        <time>2012-05-19T09:46:08.000Z</time>
      </trkpt>
      <trkpt lat="45.34504" lon="5.8035">
        <ele>862.79998779297</ele>
        <time>2012-05-19T09:46:12.000Z</time>
      </trkpt>
      <trkpt lat="45.34485" lon="5.80345">
        <ele>864.20001220703</ele>
        <time>2012-05-19T09:46:17.000Z</time>
      </trkpt>
      <trkpt lat="45.34466" lon="5.80338">
        <ele>865.20001220703</ele>
        <time>2012-05-19T09:46:22.000Z</time>
      </trkpt>
      <trkpt lat="45.34453" lon="5.8033">
        <ele>858</ele>
        <time>2012-05-19T09:46:27.000Z</time>
      </trkpt>
      <trkpt lat="45.34448" lon="5.80328">
        <ele>855.20001220703</ele>
        <time>2012-05-19T09:46:30.000Z</time>
      </trkpt>
      <trkpt lat="45.34437" lon="5.80322">
        <ele>851.20001220703</ele>
        <time>2012-05-19T09:46:35.000Z</time>
      </trkpt>
      <trkpt lat="45.34427" lon="5.80316">
        <ele>850.79998779297</ele>
        <time>2012-05-19T09:46:39.000Z</time>
      </trkpt>
      <trkpt lat="45.34417" lon="5.80314">
        <ele>850.40002441406</ele>
        <time>2012-05-19T09:46:43.000Z</time>
      </trkpt>
      <trkpt lat="45.34401" lon="5.80319">
        <ele>851.79998779297</ele>
        <time>2012-05-19T09:46:48.000Z</time>
      </trkpt>
      <trkpt lat="45.34397" lon="5.8032">
        <ele>852.20001220703</ele>
        <time>2012-05-19T09:46:49.000Z</time>
      </trkpt>
      <trkpt lat="45.34378" lon="5.80328">
        <ele>850.40002441406</ele>
        <time>2012-05-19T09:46:55.000Z</time>
      </trkpt>
      <trkpt lat="45.34368" lon="5.8033">
        <ele>850.79998779297</ele>
        <time>2012-05-19T09:46:58.000Z</time>
      </trkpt>
      <trkpt lat="45.34356" lon="5.80339">
        <ele>849.79998779297</ele>
        <time>2012-05-19T09:47:03.000Z</time>
      </trkpt>
      <trkpt lat="45.34345" lon="5.80347">
        <ele>847</ele>
        <time>2012-05-19T09:47:07.000Z</time>
      </trkpt>
      <trkpt lat="45.34342" lon="5.8035">
        <ele>845.59997558594</ele>
        <time>2012-05-19T09:47:08.000Z</time>
      </trkpt>
      <trkpt lat="45.34323" lon="5.80363">
        <ele>841.20001220703</ele>
        <time>2012-05-19T09:47:14.000Z</time>
      </trkpt>
      <trkpt lat="45.34307" lon="5.80375">
        <ele>839.79998779297</ele>
        <time>2012-05-19T09:47:20.000Z</time>
      </trkpt>
      <trkpt lat="45.34283" lon="5.80389">
        <ele>845.59997558594</ele>
        <time>2012-05-19T09:47:26.000Z</time>
      </trkpt>
      <trkpt lat="45.34275" lon="5.80391">
        <ele>843.59997558594</ele>
        <time>2012-05-19T09:47:29.000Z</time>
      </trkpt>
      <trkpt lat="45.3426" lon="5.80389">
        <ele>843.20001220703</ele>
        <time>2012-05-19T09:47:35.000Z</time>
      </trkpt>
      <trkpt lat="45.34246" lon="5.804">
        <ele>843.59997558594</ele>
        <time>2012-05-19T09:47:40.000Z</time>
      </trkpt>
      <trkpt lat="45.34233" lon="5.80402">
        <ele>842.59997558594</ele>
        <time>2012-05-19T09:47:44.000Z</time>
      </trkpt>
      <trkpt lat="45.34221" lon="5.80407">
        <ele>841.20001220703</ele>
        <time>2012-05-19T09:47:48.000Z</time>
      </trkpt>
      <trkpt lat="45.34203" lon="5.8041">
        <ele>843.20001220703</ele>
        <time>2012-05-19T09:47:53.000Z</time>
      </trkpt>
      <trkpt lat="45.34194" lon="5.80419">
        <ele>844.59997558594</ele>
        <time>2012-05-19T09:47:57.000Z</time>
      </trkpt>
      <trkpt lat="45.34181" lon="5.80432">
        <ele>846</ele>
        <time>2012-05-19T09:48:02.000Z</time>
      </trkpt>
      <trkpt lat="45.34163" lon="5.80441">
        <ele>850.40002441406</ele>
        <time>2012-05-19T09:48:08.000Z</time>
      </trkpt>
      <trkpt lat="45.34153" lon="5.80451">
        <ele>853.20001220703</ele>
        <time>2012-05-19T09:48:13.000Z</time>
      </trkpt>
      <trkpt lat="45.34147" lon="5.80454">
        <ele>854.59997558594</ele>
        <time>2012-05-19T09:48:15.000Z</time>
      </trkpt>
      <trkpt lat="45.34133" lon="5.80466">
        <ele>852.20001220703</ele>
        <time>2012-05-19T09:48:21.000Z</time>
      </trkpt>
      <trkpt lat="45.3413" lon="5.80468">
        <ele>851.20001220703</ele>
        <time>2012-05-19T09:48:22.000Z</time>
      </trkpt>
      <trkpt lat="45.34115" lon="5.80476">
        <ele>849.79998779297</ele>
        <time>2012-05-19T09:48:27.000Z</time>
      </trkpt>
      <trkpt lat="45.34105" lon="5.80487">
        <ele>848.40002441406</ele>
        <time>2012-05-19T09:48:31.000Z</time>
      </trkpt>
      <trkpt lat="45.34092" lon="5.805">
        <ele>841.59997558594</ele>
        <time>2012-05-19T09:48:36.000Z</time>
      </trkpt>
      <trkpt lat="45.34083" lon="5.80519">
        <ele>833</ele>
        <time>2012-05-19T09:48:41.000Z</time>
      </trkpt>
      <trkpt lat="45.34072" lon="5.8053">
        <ele>828.20001220703</ele>
        <time>2012-05-19T09:48:45.000Z</time>
      </trkpt>
      <trkpt lat="45.34064" lon="5.80539">
        <ele>823</ele>
        <time>2012-05-19T09:48:49.000Z</time>
      </trkpt>
      <trkpt lat="45.34051" lon="5.80557">
        <ele>813.79998779297</ele>
        <time>2012-05-19T09:48:54.000Z</time>
      </trkpt>
      <trkpt lat="45.34046" lon="5.80578">
        <ele>807.59997558594</ele>
        <time>2012-05-19T09:48:58.000Z</time>
      </trkpt>
      <trkpt lat="45.34043" lon="5.80596">
        <ele>802.20001220703</ele>
        <time>2012-05-19T09:49:02.000Z</time>
      </trkpt>
      <trkpt lat="45.3404" lon="5.80617">
        <ele>798</ele>
        <time>2012-05-19T09:49:06.000Z</time>
      </trkpt>
      <trkpt lat="45.34037" lon="5.80626">
        <ele>795.59997558594</ele>
        <time>2012-05-19T09:49:08.000Z</time>
      </trkpt>
      <trkpt lat="45.34023" lon="5.80635">
        <ele>790.79998779297</ele>
        <time>2012-05-19T09:49:13.000Z</time>
      </trkpt>
      <trkpt lat="45.34012" lon="5.80629">
        <ele>786.40002441406</ele>
        <time>2012-05-19T09:49:17.000Z</time>
      </trkpt>
      <trkpt lat="45.34003" lon="5.80633">
        <ele>783.59997558594</ele>
        <time>2012-05-19T09:49:20.000Z</time>
      </trkpt>
      <trkpt lat="45.3399" lon="5.80644">
        <ele>780.20001220703</ele>
        <time>2012-05-19T09:49:25.000Z</time>
      </trkpt>
      <trkpt lat="45.33981" lon="5.80657">
        <ele>784</ele>
        <time>2012-05-19T09:49:29.000Z</time>
      </trkpt>
      <trkpt lat="45.33978" lon="5.80679">
        <ele>786.79998779297</ele>
        <time>2012-05-19T09:49:34.000Z</time>
      </trkpt>
      <trkpt lat="45.33978" lon="5.80694">
        <ele>790.79998779297</ele>
        <time>2012-05-19T09:49:37.000Z</time>
      </trkpt>
      <trkpt lat="45.33979" lon="5.80726">
        <ele>795.59997558594</ele>
        <time>2012-05-19T09:49:44.000Z</time>
      </trkpt>
      <trkpt lat="45.33979" lon="5.80744">
        <ele>798</ele>
        <time>2012-05-19T09:49:48.000Z</time>
      </trkpt>
      <trkpt lat="45.33979" lon="5.80754">
        <ele>799.40002441406</ele>
        <time>2012-05-19T09:49:51.000Z</time>
      </trkpt>
      <trkpt lat="45.33974" lon="5.80764">
        <ele>800.79998779297</ele>
        <time>2012-05-19T09:49:55.000Z</time>
      </trkpt>
      <trkpt lat="45.33968" lon="5.80766">
        <ele>800.79998779297</ele>
        <time>2012-05-19T09:49:57.000Z</time>
      </trkpt>
      <trkpt lat="45.33949" lon="5.80764">
        <ele>804.59997558594</ele>
        <time>2012-05-19T09:50:04.000Z</time>
      </trkpt>
      <trkpt lat="45.3395" lon="5.80778">
        <ele>804.59997558594</ele>
        <time>2012-05-19T09:50:08.000Z</time>
      </trkpt>
      <trkpt lat="45.3395" lon="5.80783">
        <ele>805.20001220703</ele>
        <time>2012-05-19T09:50:09.000Z</time>
      </trkpt>
      <trkpt lat="45.33955" lon="5.80804">
        <ele>806.20001220703</ele>
        <time>2012-05-19T09:50:14.000Z</time>
      </trkpt>
      <trkpt lat="45.3396" lon="5.8082">
        <ele>809</ele>
        <time>2012-05-19T09:50:18.000Z</time>
      </trkpt>
      <trkpt lat="45.3397" lon="5.80841">
        <ele>811.79998779297</ele>
        <time>2012-05-19T09:50:24.000Z</time>
      </trkpt>
      <trkpt lat="45.33972" lon="5.80854">
        <ele>812.40002441406</ele>
        <time>2012-05-19T09:50:28.000Z</time>
      </trkpt>
      <trkpt lat="45.33974" lon="5.80866">
        <ele>814.20001220703</ele>
        <time>2012-05-19T09:50:32.000Z</time>
      </trkpt>
      <trkpt lat="45.33974" lon="5.80874">
        <ele>813.79998779297</ele>
        <time>2012-05-19T09:50:37.000Z</time>
      </trkpt>
      <trkpt lat="45.33973" lon="5.80882">
        <ele>815.79998779297</ele>
        <time>2012-05-19T09:50:42.000Z</time>
      </trkpt>
      <trkpt lat="45.33974" lon="5.80886">
        <ele>814.79998779297</ele>
        <time>2012-05-19T09:50:46.000Z</time>
      </trkpt>
      <trkpt lat="45.33973" lon="5.80892">
        <ele>815.79998779297</ele>
        <time>2012-05-19T09:50:51.000Z</time>
      </trkpt>
      <trkpt lat="45.33972" lon="5.80893">
        <ele>817.20001220703</ele>
        <time>2012-05-19T09:50:52.000Z</time>
      </trkpt>
      <trkpt lat="45.33971" lon="5.80897">
        <ele>818.20001220703</ele>
        <time>2012-05-19T09:50:54.000Z</time>
      </trkpt>
      <trkpt lat="45.3397" lon="5.80901">
        <ele>817.59997558594</ele>
        <time>2012-05-19T09:50:56.000Z</time>
      </trkpt>
      <trkpt lat="45.33966" lon="5.80909">
        <ele>815.20001220703</ele>
        <time>2012-05-19T09:51:02.000Z</time>
      </trkpt>
      <trkpt lat="45.33966" lon="5.80915">
        <ele>815.20001220703</ele>
        <time>2012-05-19T09:51:07.000Z</time>
      </trkpt>
      <trkpt lat="45.33963" lon="5.80921">
        <ele>815.20001220703</ele>
        <time>2012-05-19T09:51:12.000Z</time>
      </trkpt>
      <trkpt lat="45.33952" lon="5.80926">
        <ele>813.79998779297</ele>
        <time>2012-05-19T09:51:19.000Z</time>
      </trkpt>
      <trkpt lat="45.33943" lon="5.80931">
        <ele>813.79998779297</ele>
        <time>2012-05-19T09:51:24.000Z</time>
      </trkpt>
      <trkpt lat="45.33934" lon="5.80939">
        <ele>814.79998779297</ele>
        <time>2012-05-19T09:51:30.000Z</time>
      </trkpt>
      <trkpt lat="45.3393" lon="5.80948">
        <ele>813.79998779297</ele>
        <time>2012-05-19T09:51:34.000Z</time>
      </trkpt>
      <trkpt lat="45.33928" lon="5.80965">
        <ele>817.59997558594</ele>
        <time>2012-05-19T09:51:39.000Z</time>
      </trkpt>
      <trkpt lat="45.33929" lon="5.80971">
        <ele>818.59997558594</ele>
        <time>2012-05-19T09:51:41.000Z</time>
      </trkpt>
      <trkpt lat="45.33929" lon="5.80998">
        <ele>823.40002441406</ele>
        <time>2012-05-19T09:51:47.000Z</time>
      </trkpt>
      <trkpt lat="45.33932" lon="5.81028">
        <ele>825.40002441406</ele>
        <time>2012-05-19T09:51:52.000Z</time>
      </trkpt>
      <trkpt lat="45.33937" lon="5.81041">
        <ele>825.40002441406</ele>
        <time>2012-05-19T09:51:55.000Z</time>
      </trkpt>
      <trkpt lat="45.33942" lon="5.81058">
        <ele>824.40002441406</ele>
        <time>2012-05-19T09:51:59.000Z</time>
      </trkpt>
      <trkpt lat="45.33942" lon="5.8107">
        <ele>824.40002441406</ele>
        <time>2012-05-19T09:52:02.000Z</time>
      </trkpt>
      <trkpt lat="45.33946" lon="5.81087">
        <ele>823.40002441406</ele>
        <time>2012-05-19T09:52:08.000Z</time>
      </trkpt>
      <trkpt lat="45.33946" lon="5.81089">
        <ele>823</ele>
        <time>2012-05-19T09:52:09.000Z</time>
      </trkpt>
      <trkpt lat="45.33946" lon="5.8111">
        <ele>822.40002441406</ele>
        <time>2012-05-19T09:52:15.000Z</time>
      </trkpt>
      <trkpt lat="45.33949" lon="5.81117">
        <ele>823.79998779297</ele>
        <time>2012-05-19T09:52:17.000Z</time>
      </trkpt>
      <trkpt lat="45.33952" lon="5.81131">
        <ele>828.20001220703</ele>
        <time>2012-05-19T09:52:21.000Z</time>
      </trkpt>
      <trkpt lat="45.33954" lon="5.81157">
        <ele>832.59997558594</ele>
        <time>2012-05-19T09:52:27.000Z</time>
      </trkpt>
      <trkpt lat="45.33956" lon="5.81164">
        <ele>832.59997558594</ele>
        <time>2012-05-19T09:52:29.000Z</time>
      </trkpt>
      <trkpt lat="45.33957" lon="5.81173">
        <ele>834.40002441406</ele>
        <time>2012-05-19T09:52:32.000Z</time>
      </trkpt>
      <trkpt lat="45.33957" lon="5.8118">
        <ele>828.20001220703</ele>
        <time>2012-05-19T09:52:36.000Z</time>
      </trkpt>
      <trkpt lat="45.33957" lon="5.81184">
        <ele>826.20001220703</ele>
        <time>2012-05-19T09:52:38.000Z</time>
      </trkpt>
      <trkpt lat="45.33956" lon="5.81199">
        <ele>824.40002441406</ele>
        <time>2012-05-19T09:52:44.000Z</time>
      </trkpt>
      <trkpt lat="45.33957" lon="5.81206">
        <ele>823</ele>
        <time>2012-05-19T09:52:47.000Z</time>
      </trkpt>
      <trkpt lat="45.33959" lon="5.81221">
        <ele>824.40002441406</ele>
        <time>2012-05-19T09:52:52.000Z</time>
      </trkpt>
      <trkpt lat="45.3396" lon="5.81234">
        <ele>827.79998779297</ele>
        <time>2012-05-19T09:52:56.000Z</time>
      </trkpt>
      <trkpt lat="45.33958" lon="5.81245">
        <ele>829.20001220703</ele>
        <time>2012-05-19T09:53:00.000Z</time>
      </trkpt>
      <trkpt lat="45.33957" lon="5.8125">
        <ele>829.59997558594</ele>
        <time>2012-05-19T09:53:02.000Z</time>
      </trkpt>
      <trkpt lat="45.33955" lon="5.81258">
        <ele>830.20001220703</ele>
        <time>2012-05-19T09:53:05.000Z</time>
      </trkpt>
      <trkpt lat="45.33956" lon="5.81268">
        <ele>836</ele>
        <time>2012-05-19T09:53:09.000Z</time>
      </trkpt>
      <trkpt lat="45.33954" lon="5.81287">
        <ele>841.59997558594</ele>
        <time>2012-05-19T09:53:15.000Z</time>
      </trkpt>
      <trkpt lat="45.33953" lon="5.81304">
        <ele>843.20001220703</ele>
        <time>2012-05-19T09:53:20.000Z</time>
      </trkpt>
      <trkpt lat="45.33957" lon="5.81328">
        <ele>844.59997558594</ele>
        <time>2012-05-19T09:53:26.000Z</time>
      </trkpt>
      <trkpt lat="45.33963" lon="5.81341">
        <ele>841.59997558594</ele>
        <time>2012-05-19T09:53:30.000Z</time>
      </trkpt>
      <trkpt lat="45.3398" lon="5.8136">
        <ele>844</ele>
        <time>2012-05-19T09:53:38.000Z</time>
      </trkpt>
      <trkpt lat="45.3399" lon="5.81375">
        <ele>841.59997558594</ele>
        <time>2012-05-19T09:53:42.000Z</time>
      </trkpt>
      <trkpt lat="45.33989" lon="5.81395">
        <ele>836.79998779297</ele>
        <time>2012-05-19T09:53:46.000Z</time>
      </trkpt>
      <trkpt lat="45.33987" lon="5.814">
        <ele>835.40002441406</ele>
        <time>2012-05-19T09:53:47.000Z</time>
      </trkpt>
      <trkpt lat="45.33979" lon="5.81411">
        <ele>829.59997558594</ele>
        <time>2012-05-19T09:53:51.000Z</time>
      </trkpt>
      <trkpt lat="45.33971" lon="5.81414">
        <ele>827.79998779297</ele>
        <time>2012-05-19T09:53:55.000Z</time>
      </trkpt>
      <trkpt lat="45.33964" lon="5.81421">
        <ele>828.59997558594</ele>
        <time>2012-05-19T09:54:00.000Z</time>
      </trkpt>
      <trkpt lat="45.33963" lon="5.81428">
        <ele>841.59997558594</ele>
        <time>2012-05-19T09:54:05.000Z</time>
      </trkpt>
      <trkpt lat="45.3396" lon="5.81444">
        <ele>848.40002441406</ele>
        <time>2012-05-19T09:54:10.000Z</time>
      </trkpt>
      <trkpt lat="45.33958" lon="5.81448">
        <ele>844.59997558594</ele>
        <time>2012-05-19T09:54:12.000Z</time>
      </trkpt>
      <trkpt lat="45.33959" lon="5.81463">
        <ele>840.79998779297</ele>
        <time>2012-05-19T09:54:18.000Z</time>
      </trkpt>
      <trkpt lat="45.33962" lon="5.81474">
        <ele>840.20001220703</ele>
        <time>2012-05-19T09:54:22.000Z</time>
      </trkpt>
      <trkpt lat="45.33971" lon="5.8149">
        <ele>845</ele>
        <time>2012-05-19T09:54:28.000Z</time>
      </trkpt>
      <trkpt lat="45.33968" lon="5.81499">
        <ele>842.20001220703</ele>
        <time>2012-05-19T09:54:33.000Z</time>
      </trkpt>
      <trkpt lat="45.33966" lon="5.81516">
        <ele>840.20001220703</ele>
        <time>2012-05-19T09:54:38.000Z</time>
      </trkpt>
      <trkpt lat="45.3397" lon="5.81526">
        <ele>842.59997558594</ele>
        <time>2012-05-19T09:54:41.000Z</time>
      </trkpt>
      <trkpt lat="45.3399" lon="5.81542">
        <ele>853.59997558594</ele>
        <time>2012-05-19T09:54:48.000Z</time>
      </trkpt>
      <trkpt lat="45.33992" lon="5.81544">
        <ele>856</ele>
        <time>2012-05-19T09:54:49.000Z</time>
      </trkpt>
      <trkpt lat="45.34003" lon="5.81562">
        <ele>856</ele>
        <time>2012-05-19T09:54:55.000Z</time>
      </trkpt>
      <trkpt lat="45.34001" lon="5.81582">
        <ele>851.20001220703</ele>
        <time>2012-05-19T09:55:00.000Z</time>
      </trkpt>
      <trkpt lat="45.33996" lon="5.81593">
        <ele>849.79998779297</ele>
        <time>2012-05-19T09:55:03.000Z</time>
      </trkpt>
      <trkpt lat="45.33991" lon="5.81603">
        <ele>846.40002441406</ele>
        <time>2012-05-19T09:55:06.000Z</time>
      </trkpt>
      <trkpt lat="45.33982" lon="5.81618">
        <ele>837.40002441406</ele>
        <time>2012-05-19T09:55:12.000Z</time>
      </trkpt>
      <trkpt lat="45.33978" lon="5.81628">
        <ele>832</ele>
        <time>2012-05-19T09:55:16.000Z</time>
      </trkpt>
      <trkpt lat="45.33975" lon="5.81641">
        <ele>826.79998779297</ele>
        <time>2012-05-19T09:55:21.000Z</time>
      </trkpt>
      <trkpt lat="45.33983" lon="5.81651">
        <ele>829.20001220703</ele>
        <time>2012-05-19T09:55:26.000Z</time>
      </trkpt>
      <trkpt lat="45.3399" lon="5.81651">
        <ele>829.20001220703</ele>
        <time>2012-05-19T09:55:28.000Z</time>
      </trkpt>
      <trkpt lat="45.33998" lon="5.81643">
        <ele>829.20001220703</ele>
        <time>2012-05-19T09:55:34.000Z</time>
      </trkpt>
      <trkpt lat="45.34005" lon="5.81636">
        <ele>830.59997558594</ele>
        <time>2012-05-19T09:55:38.000Z</time>
      </trkpt>
      <trkpt lat="45.34013" lon="5.81638">
        <ele>830.59997558594</ele>
        <time>2012-05-19T09:55:43.000Z</time>
      </trkpt>
      <trkpt lat="45.34017" lon="5.8164">
        <ele>834</ele>
        <time>2012-05-19T09:55:51.000Z</time>
      </trkpt>
      <trkpt lat="45.34023" lon="5.81639">
        <ele>835</ele>
        <time>2012-05-19T09:55:58.000Z</time>
      </trkpt>
      <trkpt lat="45.34029" lon="5.81639">
        <ele>837.40002441406</ele>
        <time>2012-05-19T09:56:03.000Z</time>
      </trkpt>
      <trkpt lat="45.34039" lon="5.8164">
        <ele>844.59997558594</ele>
        <time>2012-05-19T09:56:15.000Z</time>
      </trkpt>
      <trkpt lat="45.34041" lon="5.81642">
        <ele>845</ele>
        <time>2012-05-19T09:56:17.000Z</time>
      </trkpt>
      <trkpt lat="45.34043" lon="5.81643">
        <ele>846</ele>
        <time>2012-05-19T09:56:19.000Z</time>
      </trkpt>
      <trkpt lat="45.34044" lon="5.8165">
        <ele>846.40002441406</ele>
        <time>2012-05-19T09:56:24.000Z</time>
      </trkpt>
      <trkpt lat="45.34042" lon="5.81653">
        <ele>846.40002441406</ele>
        <time>2012-05-19T09:56:27.000Z</time>
      </trkpt>
      <trkpt lat="45.34041" lon="5.81663">
        <ele>848</ele>
        <time>2012-05-19T09:56:33.000Z</time>
      </trkpt>
      <trkpt lat="45.34041" lon="5.81668">
        <ele>847.40002441406</ele>
        <time>2012-05-19T09:56:37.000Z</time>
      </trkpt>
      <trkpt lat="45.34042" lon="5.8167">
        <ele>848.79998779297</ele>
        <time>2012-05-19T09:56:39.000Z</time>
      </trkpt>
      <trkpt lat="45.34044" lon="5.81677">
        <ele>850.40002441406</ele>
        <time>2012-05-19T09:56:44.000Z</time>
      </trkpt>
      <trkpt lat="45.34045" lon="5.8168">
        <ele>851.79998779297</ele>
        <time>2012-05-19T09:56:46.000Z</time>
      </trkpt>
      <trkpt lat="45.34045" lon="5.81684">
        <ele>852.79998779297</ele>
        <time>2012-05-19T09:56:49.000Z</time>
      </trkpt>
      <trkpt lat="45.34045" lon="5.8169">
        <ele>853.59997558594</ele>
        <time>2012-05-19T09:56:55.000Z</time>
      </trkpt>
      <trkpt lat="45.34046" lon="5.81697">
        <ele>856</ele>
        <time>2012-05-19T09:57:01.000Z</time>
      </trkpt>
      <trkpt lat="45.34049" lon="5.81694">
        <ele>859.40002441406</ele>
        <time>2012-05-19T09:57:06.000Z</time>
      </trkpt>
      <trkpt lat="45.34052" lon="5.81691">
        <ele>860.79998779297</ele>
        <time>2012-05-19T09:57:11.000Z</time>
      </trkpt>
      <trkpt lat="45.34057" lon="5.81689">
        <ele>864.79998779297</ele>
        <time>2012-05-19T09:57:18.000Z</time>
      </trkpt>
      <trkpt lat="45.34061" lon="5.81689">
        <ele>866.59997558594</ele>
        <time>2012-05-19T09:57:21.000Z</time>
      </trkpt>
      <trkpt lat="45.34069" lon="5.81686">
        <ele>867.20001220703</ele>
        <time>2012-05-19T09:57:29.000Z</time>
      </trkpt>
      <trkpt lat="45.34072" lon="5.81684">
        <ele>867.59997558594</ele>
        <time>2012-05-19T09:57:34.000Z</time>
      </trkpt>
      <trkpt lat="45.34075" lon="5.81677">
        <ele>869</ele>
        <time>2012-05-19T09:57:40.000Z</time>
      </trkpt>
      <trkpt lat="45.34081" lon="5.81665">
        <ele>872.40002441406</ele>
        <time>2012-05-19T09:57:47.000Z</time>
      </trkpt>
      <trkpt lat="45.34085" lon="5.81658">
        <ele>873</ele>
        <time>2012-05-19T09:57:53.000Z</time>
      </trkpt>
      <trkpt lat="45.34088" lon="5.81654">
        <ele>872.40002441406</ele>
        <time>2012-05-19T09:57:57.000Z</time>
      </trkpt>
      <trkpt lat="45.34093" lon="5.81647">
        <ele>873</ele>
        <time>2012-05-19T09:58:06.000Z</time>
      </trkpt>
      <trkpt lat="45.341" lon="5.81643">
        <ele>873.40002441406</ele>
        <time>2012-05-19T09:58:14.000Z</time>
      </trkpt>
      <trkpt lat="45.34105" lon="5.81643">
        <ele>872</ele>
        <time>2012-05-19T09:58:21.000Z</time>
      </trkpt>
      <trkpt lat="45.34106" lon="5.8164">
        <ele>875.40002441406</ele>
        <time>2012-05-19T09:58:25.000Z</time>
      </trkpt>
      <trkpt lat="45.34114" lon="5.81634">
        <ele>877.20001220703</ele>
        <time>2012-05-19T09:58:31.000Z</time>
      </trkpt>
      <trkpt lat="45.34122" lon="5.81633">
        <ele>878.59997558594</ele>
        <time>2012-05-19T09:58:37.000Z</time>
      </trkpt>
      <trkpt lat="45.34127" lon="5.81631">
        <ele>878.20001220703</ele>
        <time>2012-05-19T09:58:41.000Z</time>
      </trkpt>
      <trkpt lat="45.34129" lon="5.81625">
        <ele>880.20001220703</ele>
        <time>2012-05-19T09:58:45.000Z</time>
      </trkpt>
      <trkpt lat="45.34128" lon="5.81614">
        <ele>882.59997558594</ele>
        <time>2012-05-19T09:58:52.000Z</time>
      </trkpt>
      <trkpt lat="45.3413" lon="5.81604">
        <ele>885.40002441406</ele>
        <time>2012-05-19T09:58:59.000Z</time>
      </trkpt>
      <trkpt lat="45.3413" lon="5.81594">
        <ele>886.79998779297</ele>
        <time>2012-05-19T09:59:03.000Z</time>
      </trkpt>
      <trkpt lat="45.34129" lon="5.81571">
        <ele>888.79998779297</ele>
        <time>2012-05-19T09:59:08.000Z</time>
      </trkpt>
      <trkpt lat="45.34126" lon="5.81556">
        <ele>888.20001220703</ele>
        <time>2012-05-19T09:59:12.000Z</time>
      </trkpt>
      <trkpt lat="45.34125" lon="5.81551">
        <ele>887.79998779297</ele>
        <time>2012-05-19T09:59:14.000Z</time>
      </trkpt>
      <trkpt lat="45.34123" lon="5.8153">
        <ele>889.79998779297</ele>
        <time>2012-05-19T09:59:20.000Z</time>
      </trkpt>
      <trkpt lat="45.34123" lon="5.81517">
        <ele>891.59997558594</ele>
        <time>2012-05-19T09:59:23.000Z</time>
      </trkpt>
      <trkpt lat="45.3413" lon="5.81508">
        <ele>893.20001220703</ele>
        <time>2012-05-19T09:59:28.000Z</time>
      </trkpt>
      <trkpt lat="45.34135" lon="5.81513">
        <ele>892.59997558594</ele>
        <time>2012-05-19T09:59:31.000Z</time>
      </trkpt>
      <trkpt lat="45.34136" lon="5.81517">
        <ele>892.59997558594</ele>
        <time>2012-05-19T09:59:32.000Z</time>
      </trkpt>
      <trkpt lat="45.34143" lon="5.8153">
        <ele>892.20001220703</ele>
        <time>2012-05-19T09:59:37.000Z</time>
      </trkpt>
      <trkpt lat="45.34143" lon="5.81532">
        <ele>892.20001220703</ele>
        <time>2012-05-19T09:59:38.000Z</time>
      </trkpt>
      <trkpt lat="45.34145" lon="5.81533">
        <ele>894.59997558594</ele>
        <time>2012-05-19T09:59:52.000Z</time>
      </trkpt>
      <trkpt lat="45.34144" lon="5.81535">
        <ele>892.20001220703</ele>
        <time>2012-05-19T10:00:00.000Z</time>
      </trkpt>
      <trkpt lat="45.34143" lon="5.81539">
        <ele>891.20001220703</ele>
        <time>2012-05-19T10:00:04.000Z</time>
      </trkpt>
      <trkpt lat="45.34143" lon="5.8154">
        <ele>891.20001220703</ele>
        <time>2012-05-19T10:00:06.000Z</time>
      </trkpt>
    </trkseg>
  </trk>
</gpx>